     2              OBSERVATION DATA    GPS                 RINEX VERSION / TYPE
teqc 1998Mar9 19980907 20:09:09UTC                          PGM / RUN BY / DATE
                                                            COMMENT
BIT 2 OF LLI FLAGS DATA COLLECTED UNDER A-S CONDITION       COMMENT
BIT 2 OF LLI FLAGS DATA COLLECTED UNDER A-S CONDITION       COMMENT
Original Marker Name: SANTA PAULA PEAK                      COMMENT
Campaign Name: Ventura Basin 1992                           COMMENT
4-Character Station Name: SNP2                              COMMENT
6-Character Antenna Code: TRMSST                            COMMENT
Vertical Measurement Point: BGP                             COMMENT
Vertical Offset to Rinex Ref. Point: 0.0597                 COMMENT
Radial Measurement Point: NGP                               COMMENT
Radial Offset to Rinex Ref. Point: 0.2334                   COMMENT
Antenna Height from Field Measurement: 1.1940 m             COMMENT
Original XYZ: -2554268.6304 -4606200.0553 3587673.0165      COMMENT
New XYZ position is based on association with SCEC monument COMMENT
E1E9H8I7+0011. Position of that monument is believed to be  COMMENT
valid to within 1 m horizontally; vertical accuracy         COMMENT
should be no worse than 3-times this value.                 COMMENT
                                                            COMMENT
Revised Rinex header created by UCSD GPS archive for        COMMENT
GSAC on 14-Apr-1999 (1999:104) 04:03:10 GMT                 COMMENT
For assistance contact dagnew@ucsd.edu or hjohnson@ucsd.edu COMMENT
                                                            COMMENT
SANTA PAULA PEAK                                            MARKER NAME
UNKNOWN OBSERVER MIT                                        OBSERVER / AGENCY
428 TRIMBLE 4000 SST NP 4.64 / SP 4.20                      REC # / TYPE / VERS
S/N UNKNOWN TR 4000SST L1/L2 GEO                            ANT # / TYPE
 -2554271.0000 -4606197.0000  3587672.0000                  APPROX POSITION XYZ
        1.1113        0.0000        0.0000                  ANTENNA: DELTA H/E/N
     1     1     0                                          WAVELENGTH FACT L1/2
     3    C1    L1    L2                                    # / TYPES OF OBSERV
     0                                                      INTERVAL
  1992     5    25    16    51    0.000000                  TIME OF FIRST OBS
  1992     5    26    11    19   60.000000                  TIME OF LAST OBS
                                                            END OF HEADER
 92  5 25 16 51  0.0000000  0  6G18G 2G19G11G16G28
  20566412.5164         -0.39458
  23559006.7664         -0.44556        -0.36471
  20972340.9064         -0.98257        -0.30372
  23903353.1804         -0.19256
  24322404.8594         -0.69355
  23755987.633          -0.83416
 92  5 25 16 52  0.0000000  0  6G18G 2G19G11G16G28
  20566477.805         339.943 8
  23515884.7424    -226614.06846   -176582.28661
  20960110.4774     -64265.07747    -50076.18462
  23870454.297     -172876.794 6    -67222.09521
  24291715.4144    -161271.58845    -62679.50761
  23755697.461       -1506.480 6
 92  5 25 16 52 30.0000000  0  6G18G 2G19G11G16G28
  20566630.6484       1146.98348        -0.31373
  23494378.3284    -339627.76046   -264644.84361
  20954040.6254     -96165.11947    -74933.34262
  23854105.3444    -258796.15846   -134172.18761
  24276489.328     -241289.071 5   -125030.74821
  23755702.617       -1520.426 6
 92  5 25 16 53  0.0000000  0  6G18G 2G19G11G16G28
  20566869.2424       2382.54348       962.44563
  23472911.6414    -452434.66146   -352546.26861
  20948000.6564    -127899.56947    -99661.47962
  23837822.5634    -344360.20046   -200845.39561
  24261342.063     -320884.239 5   -187052.90021
  23755787.6024      -1047.37446
 92  5 25 16 53 30.0000000  0  6G18G 2G19G11G16G28
  20567183.4774       4049.53048      2261.38263
  23451483.313     -565045.359 6   -440294.80921
  20941993.6414    -159473.73047   -124264.72662
  23821608.4454    -429565.83246   -267239.34861
  24246280.852     -400036.537 5   -248729.97621
  23755973.922         -96.040 6       701.99321
 92  5 25 16 54  0.0000000  0  6G18G 2G19G11G16G28
  20567587.2274       6161.71848      3907.21863
  23430087.6884    -677475.42546   -527902.59761
  20936007.6094    -190922.38147   -148770.18062
  23805460.977     -514422.512 6   -333361.37821
  24231303.7344    -478737.75845   -310055.54461
  23756238.586        1330.781 6      1813.77921
 92  5 25 16 54 30.0000000  0  6G18G 2G19G11G16G28
  20568077.9064       8737.70748      5914.46163
  23408727.250     -789720.525 6   -615366.25821
  20930047.4384    -222246.63847   -173178.68662
  23789382.406     -598911.934 6   -399197.23721
  24216415.711     -556974.678 5   -371019.32921
  23756607.6644       3246.76546      3306.73061
 92  5 25 16 55  0.0000000  0  6G18G 2G19G11G16G28
  20568652.266       11763.444 8      8272.14723
  23387399.3984    -901795.49646   -702697.34161
  20924109.5164    -253452.91347   -197495.26362
  23773375.258     -683031.438 6   -464744.84921
  24201613.422     -634762.027 5   -431632.81521
  23757063.7814       5644.90046      5175.38761
 92  5 25 16 55 30.0000000  0  6G18G 2G19G11G16G28
  20569312.2504      15224.39448     10968.97363
  23366103.3444   -1013711.16146   -789904.29561
  20918192.0864    -284543.36747   -221721.59462
  23757438.4224    -766782.54446   -530005.38861
  24186893.766     -712105.470 5   -491900.36521
  23757609.0944       8525.60946      7420.07561
 92  5 25 16 56  0.0000000  0  6G18G 2G19G11G16G28
  20570051.797       19121.247 8     14005.45023
  23344839.1024   -1125458.39546   -876980.00761
  20912304.0634    -315504.30147   -245846.99862
  23741572.250     -850154.199 6   -594970.26421
  24172257.188     -789021.623 5   -551834.98421
  23758255.9774      11896.96546     10047.08161
 92  5 25 16 56 30.0000000  0  6G18G 2G19G11G16G28
  20570876.320       23442.908 8     17372.94723
  23323607.492    -1237032.323 6   -963920.67221
  20906436.0234    -346334.13447   -269870.23362
  23725780.500     -933144.835 6   -659638.23921
  24157699.2194    -865524.09945   -611447.26061
  23758984.7894      15744.53646     13045.17261
 92  5 25 16 57  0.0000000  0  6G18G 2G19G11G16G28
  20571781.609       28201.028 8     21080.54223
  23302410.4304   -1348419.89046  -1050716.12561
  20900593.3444    -377026.27347   -293786.17962
  23710059.6644   -1015752.41346   -724007.71761
  24143224.820     -941601.405 5   -670728.22221
  23759803.750       20063.020 6     16410.19721
 92  5 25 16 57 30.0000000  0  6G18G 2G19G11G16G28
  20572773.1954      33417.58248     25145.38863
  23281251.2814   -1459607.39846  -1137355.68161
  20894784.2584    -407568.99047   -317585.69562
  23694413.5004   -1097972.86546   -788075.55461
  24128831.7034   -1017230.10845   -729659.62561
  23760721.367       24859.917 6     20148.01921
 92  5 25 16 58  0.0000000  0  6G18G 2G19G11G16G28
  20573855.359       39102.609 8     29575.26123
  23260132.602    -1570593.056 6  -1223837.95521
  20888999.9384    -437958.13647   -341265.53662
  23678841.891    -1179809.114 6   -851844.00821
  24114526.6414   -1092406.60345   -788238.66161
  23761724.7034      30137.07246     24260.06461
 92  5 25 16 58 30.0000000  0  6G18G 2G19G11G16G28
  20575027.2584      45258.72748     34372.21863
  23239051.2734   -1681373.35546  -1310160.20961
  20883249.8054    -468184.10747   -364818.23462
  23663341.883    -1261255.668 6   -915308.80121
  24100311.953    -1167102.585 5   -846443.26621
  23762819.0164      35905.10246     28754.59661
 92  5 25 16 59  0.0000000  0  6G18G 2G19G11G16G28
  20576284.453       51865.720 8     39520.50723
  23218006.523    -1791967.959 6  -1396337.76721
  20877528.5474    -498245.17047   -388242.43662
  23647917.766    -1342317.942 6   -978474.15321
  24086189.203    -1241318.417 5   -904273.71921
  23764011.656       42173.088 6     33638.69621
 92  5 25 16 59 30.0000000  0  6G18G 2G19G11G16G28
  20577620.977       58889.774 8     44993.76323
  23196994.9144   -1902378.40446  -1482371.82661
  20871840.1254    -528147.58647   -411543.01062
  23632563.9534   -1422999.24746  -1041342.63261
  24072155.031    -1315069.118 5   -961741.74821
  23765301.836       48939.220 6     38910.96521
 92  5 25 17  0  0.0000000  0  6G18G 2G19G11G16G28
  20579031.711       66304.953 8
  23176020.6254   -2012606.09046  -1568263.47261
  20866176.9304    -557909.13047   -434733.81462
  23617282.3754   -1503301.86346  -1103916.04761
  24058204.836    -1388379.083 5  -1018866.34221
  23766686.180       56197.713 6
 92  5 25 17  0 30.0000000  0  6G18G 2G19G11G16G28
  20580515.633       74105.137 8
  23155081.1804   -2122640.93746  -1654004.85261
  20860536.8204    -587537.47047   -457820.81762
  23602076.336    -1583214.791 6  -1166185.81521
  24044340.5474   -1461244.47745  -1075644.51461
  23768160.516       63940.841 6
 92  5 25 17  1  0.0000000  0  6G18G 2G19G11G16G28
  20582072.633       82284.107 8
  23134175.906    -2232490.558 6  -1739601.90521
  20854919.4454    -617052.39947   -480819.45962
  23586941.656    -1662745.953 6  -1228158.11521
  24030553.5314   -1533688.54045  -1132094.39161
  23769718.328       72135.117 6
 92  5 25 17  1 30.0000000  0  6G18G 2G19G11G16G28
  20583704.891       90862.123 8
  23113311.2274   -2342138.90046  -1825042.11761
  20849321.2894    -646457.57847   -503732.58162
  23571880.922    -1741888.112 6  -1289827.29221
  24016847.305    -1605710.844 5  -1188215.59921
  23771360.578       80760.575 6
 92  5 25 17  2  0.0000000  0  6G18G 2G19G11G16G28
  20585419.242       99870.526 8
  23092481.5164   -2451598.17546  -1910335.00161
  20843751.2584    -675755.79846   -526562.35662
  23556896.469    -1820637.592 6  -1351190.48321
  24003225.313    -1677301.530 5  -1244000.49021
  23773081.570       89805.840 6
 92  5 25 17  2 30.0000000  0  6G18G 2G19G11G16G28
  20587221.3364     109338.50848
  23071689.8984   -2560856.51146  -1995471.30561
  20838200.5084    -704920.03746   -549287.72962
  23541988.047    -1898979.887 6  -1412236.38221
  23989685.859    -1748443.660 5  -1299435.87021
  23774882.164       99277.910 6
 92  5 25 17  3  0.0000000  0  6G18G 2G19G11G16G28
  20589110.547      119269.147 8
  23050938.0474   -2669913.35946  -2080450.60761
  20832673.9534    -733952.14747   -571910.15062
  23527156.023    -1976919.804 6  -1472968.73121
  23976230.8524   -1819143.97345  -1354526.98261
  23776767.453      109183.226 6
 92  5 25 17  3 30.0000000  0  6G18G 2G19G11G16G28
  20591087.406      129655.980 8
  23030225.2814   -2778756.73746  -2165263.57961
  20827176.4454    -762850.40747   -594428.27162
  23512401.688    -2054455.625 6  -1533386.20521
  23962863.4384   -1889398.67845  -1409270.88261
  23778741.539      119545.485 6
 92  5 25 17  4  0.0000000  0  6G18G 2G19G11G16G28
  20593147.266      140481.706 8
  23009552.4534   -2887395.21546  -2249916.87661
  20821703.7664    -791608.65046   -616837.28862
  23497724.195    -2131586.112 6  -1593487.84321
  23949579.602    -1959203.428 5  -1463664.14321
  23780801.930      130378.885 6
 92  5 25 17  4 30.0000000  0  6G18G 2G19G11G16G28
  20595288.477      151730.991 8
  22988920.219    -2995820.269 6  -2334403.87321
  20816258.3754    -820220.68047   -639132.38062
  23483125.9224   -2208302.48546  -1653266.78661
  23936379.516    -2028560.865 5  -1517708.87521
  23782956.039      141708.703 6
 92  5 25 17  5  0.0000000  0  6G18G 2G19G11G16G28
  20597509.055      163401.098 8
  22968327.695    -3104037.504 6  -2418728.93721
  20810838.7274    -848700.69147   -661324.59062
  23468606.4614   -2284600.11546  -1712719.41861
  23923271.477    -2097460.299 5  -1571396.71621
  23785205.844      153533.136 6
 92  5 25 17  5 30.0000000  0  6G18G 2G19G11G16G28
  20599807.367      175478.474 8    135841.66623
  22947766.9064   -3212080.48846  -2502918.21561
  20805441.5704    -877058.02247   -683421.21862
  23454165.5234   -2360490.45646  -1771854.69761
  23910246.6334   -2165906.76645  -1624731.59161
  23787543.711      165824.619 5     62962.93921
 92  5 25 17  6  0.0000000  0  6G18G 2G19G11G16G28
  20602189.164      187990.098 8    145590.93823
  22927240.7034   -3319948.34646  -2586971.03461
  20800072.3674    -905273.84247   -705407.57962
  23439805.797    -2435952.135 6  -1830655.94221
  23897308.8204   -2233886.34345  -1677702.67861
  23789972.5704     178588.77645     72908.96961
 92  5 25 17  6 30.0000000  0  6G18G 2G19G11G16G28
  20604652.164      200940.740 8    155682.29723
  22906747.719    -3427633.607 6  -2670881.57621
  20794728.8674    -933357.58747   -727291.02162
  23425526.2194   -2510991.36746  -1889128.02061
  23884461.148    -2301400.308 5  -1730310.94821
  23792491.7664     191816.32346     83216.08661
 92  5 25 17  7  0.0000000  0  6G18G 2G19G11G16G28
  20607200.609      214333.137 8    166117.89423
  22886294.8834   -3535120.49846  -2754637.54161
  20789413.3594    -961292.95647   -749058.84762
  23411327.5634   -2585601.98246  -1947266.09761
  23871707.8284   -2368425.13045  -1782538.05661
  23795095.648      205496.250 6     93875.71721
 92  5 25 17  7 30.0000000  0  6G18G 2G19G11G16G28
  20609832.430      228161.287 8    176893.04223
  22865879.883    -3642396.811 6  -2838229.41221
  20784127.6804    -989068.07847   -770701.79862
  23397212.414    -2659775.653 6  -2005063.71521
  23859046.8054   -2434963.79345  -1834386.33561
  23797786.0394     219638.00746    104895.20461
 92  5 25 17  8  0.0000000  0  6G18G 2G19G11G16G28
  20612544.961      242411.557 7    187997.09723
  22845507.6484   -3749452.54246  -2921649.40861
  20778870.9774   -1016687.73547   -792223.61662
  23383180.8134   -2733515.49146  -2062523.27361
  23846474.4614   -2501027.90345  -1885864.84261
  23800562.188      234244.628 5    116276.92921
 92  5 25 17  8 30.0000000  0  6G18G 2G19G11G16G28
  20615334.688      257073.497 8    199421.94623
  22825177.7734   -3856288.58846  -3004898.21761
  20773643.9614   -1044163.45346   -813633.27462
  23369229.5944   -2806822.92446  -2119645.88361
  23833993.7114   -2566609.03445  -1936967.01661
  23803431.883      249310.077 5    128016.19721
 92  5 25 17  9  0.0000000  0  6G18G 2G19G11G16G28
  20618204.250      272155.480 8    211174.10423
  22804887.5084   -3962913.96346  -3087982.85961
  20768443.6884   -1071495.75447   -834931.16362
  23355364.8754   -2879685.87946  -2176422.14661
  23821604.0704   -2631718.74445  -1987701.84661
  23806388.242      264829.386 5    140109.11221
 92  5 25 17  9 30.0000000  0  6G18G 2G19G11G16G28
  20621158.930      287676.481 8    223268.34523
  22784639.6024   -4069321.47346  -3170897.73461
  20763266.3594   -1098691.87247   -856122.94762
  23341585.648    -2952097.676 6  -2232846.88121
  23809302.1094   -2696365.83545  -2038076.18161
  23809427.102      280809.323 5    152560.96121
 92  5 25 17 10  0.0000000  0  6G18G 2G19G11G16G28
  20624197.000      303640.732 8    235707.98423
  22764431.4384   -4175512.97046  -3253644.29861
  20758116.9614   -1125759.64347   -877214.72062
  23327890.6024   -3024065.76846  -2288925.85661
  23797089.6024   -2760554.51445  -2088093.31261
  23812550.445      297241.470 5    165365.17621
 92  5 25 17 10 30.0000000  0  6G18G 2G19G11G16G28
  20627318.648      320053.561 8    248497.16923
  22744265.4924   -4281489.80146  -3336223.58861
  20752989.8054   -1152703.42447   -898209.88562
  23314281.1094   -3095589.17046  -2344658.32061
  23784960.4384   -2824283.48545  -2137752.23461
  23815765.516      314116.643 5    178514.61421
 92  5 25 17 11  0.0000000  0  6G18G 2G19G11G16G28
  20630530.844      336930.077 8    261647.66523
  22724145.3594   -4387216.34646  -3418607.84761
  20747890.7814   -1179494.12646   -919085.77162
  23300757.109    -3166649.641 6  -2400030.06221
  23772923.7974   -2887541.35745  -2187044.07061
  23819066.094      331453.418 5    192023.73921
 92  5 25 17 11 30.0000000  0  6G18G 2G19G11G16G28
  20633826.125      354242.001 8    275137.42623
  22704073.2814   -4492699.28946  -3500802.29861
  20742823.1884   -1206130.20147   -939841.17262
  23287322.0164   -3237255.66546  -2455047.68161
  23760977.7664   -2950315.23645  -2235958.77261
  23822449.0864     349254.87745    205894.95161
 92  5 25 17 12  0.0000000  0  6G18G 2G19G11G16G28
  20637199.906      371977.215 8    288957.02823
  22684042.344    -4597963.285 6  -3582826.13321
  20737783.8134   -1232617.03546   -960480.27362
  23273971.266    -3307410.865 6  -2509714.02721
  23749123.8054   -3012607.17345  -2284497.93061
  23825926.5864     367514.09545    220122.87061
 92  5 25 17 12 30.0000000  0  6G18G 2G19G11G16G28
  20640656.539      390140.345 8    303110.07023
  22664053.2344   -4703005.17046  -3664676.89561
  20732772.8054   -1258954.09246   -981002.66162
  23260710.3834   -3377099.68346  -2564016.94261
  23737363.297    -3074410.817 5  -2332656.59421
  23829490.703      386237.760 5    234712.68721
 92  5 25 17 13  0.0000000  0  6G18G 2G19G11G16G28
  20644191.219      408712.021 8    317581.46123
  22644104.867    -4807836.202 6  -3746363.35821
  20727783.7664   -1285160.38447  -1001423.16062
  23247535.4064   -3446331.89946  -2617964.07761
  23725691.5004   -3135742.47845  -2380447.50261
  23833136.7274     405417.07545    249657.56261
 92  5 25 17 13 30.0000000  0  6G18G 2G19G11G16G28
  20647804.3054     427701.26448    332378.21663
  22624194.352    -4912464.925 6  -3827892.18021
  20722819.2664   -1311241.93047  -1021746.45162
  23234448.3444   -3515102.80246  -2671551.74461
  23714110.9844   -3196595.74145  -2427865.61461
  23836876.117      425046.323 5    264953.02521
 92  5 25 17 14  0.0000000  0  6G18G 2G19G11G16G28
  20651501.0084     447128.12048    347515.96363
  22604326.8524   -5016867.62646  -3909244.87361
  20717880.3914   -1337189.95547  -1041965.69762
  23221453.063    -3583399.802 6  -2724770.13921
  23702622.4694   -3256967.07345  -2474908.21261
  23840690.8364     445119.44745    280594.36561
 92  5 25 17 14 30.0000000  0  6G18G 2G19G11G16G28
  20655276.4924     466970.57148    362977.55563
  22584506.0864   -5121026.15246  -3990407.29461
  20712972.3134   -1363007.22046  -1062083.05062
  23208545.313    -3651228.604 6  -2777623.70021
  23691225.6484   -3316856.81545  -2521575.53961
  23844597.3984     465629.01545    296575.81661
 92  5 25 17 15  0.0000000  0  6G18G 2G19G11G16G28
  20659135.1884     487242.61948    378773.89663
  22564734.0864   -5224929.77746  -4071371.09661
  20708089.5864   -1388658.12946  -1082070.78262
  23195729.258    -3718577.415 6  -2830103.24721
  23679926.2894   -3376240.84645  -2567848.81861
  23848584.922      486589.144 5    312908.34621
 92  5 25 17 15 30.0000000  0  6G18G 2G19G11G16G28
  20663073.4844     507941.80348    394903.06163
  22545006.3834   -5328594.72446  -4152148.93161
  20703238.1024   -1414139.92047  -1101926.73362
  23183003.688    -3785452.096 6  -2882213.34421
  23668722.1254   -3435122.52845  -2613730.64661
  23852657.4614     507988.32145    329582.98261
 92  5 25 17 16  0.0000000  0  6G18G 2G19G11G16G28
  20667093.469      529063.267 8    411361.29923
  22525327.047    -5432017.369 6  -4232737.94921
  20698425.0704   -1439444.18347  -1121644.34662
  23170369.2664   -3851842.36946  -2933945.98161
  23657612.3754   -3493504.09345  -2659222.78461
  23856818.5554     529848.35745    346616.72061
 92  5 25 17 16 30.0000000  0  6G18G 2G19G11G16G28
  20671193.398      550609.099 8    428150.21923
  22505688.6724   -5535216.21846  -4313152.57962
  20693643.0234   -1464579.34346  -1141230.18962
  23157826.805    -3917750.310 6  -2985302.77321
  23646594.8134   -3551394.29545  -2704332.04961
  23861065.4844     552172.84845    364012.34861
 92  5 25 17 16 59.9990000  0  6G18G 2G19G11G16G28
  20675378.136      572599.049 8    445285.19823
  22486090.6594   -5638199.53146  -4393399.25661
  20688888.948    -1489542.519 7  -1160682.02922
  23145378.519    -3983169.630 6  -3036278.82921
  23635673.4564   -3608797.97245  -2749062.19361
  23865399.0504     574948.80245    381759.78861
 92  5 25 17 17 29.9990000  0  6G18G 2G19G11G16G28
  20679644.730      595023.598 7    462758.82623
  22466535.6124   -5740966.29146  -4473477.19161
  20684167.347    -1514358.422 7  -1180019.11922
  23133021.745    -4048103.474 6  -3086876.59921
  23624840.6754   -3665725.84445  -2793421.58061
  23869820.9404     598174.82845    399857.92861
 92  5 25 17 17 59.9990000  0  6G18G 2G19G11G16G28
  20683996.612      617885.712 7    480573.40623
  22447025.0654   -5843489.96846  -4553365.70262
  20679473.589    -1539023.972 7  -1199239.05222
  23120760.011    -4112539.848 6  -3137086.71321
  23614101.0974   -3722165.67745  -2837400.67661
  23874325.4254     621854.77545    418309.77861
 92  5 25 17 18 29.9990000  0  6G18G 2G19G11G16G28
  20688432.4404     641199.97848    498740.30163
  22427564.8314   -5945754.31846  -4633052.14761
  20674811.3944   -1563529.78246  -1218334.50162
  23108595.425    -4176470.368 6  -3186902.65221
  23603454.5734   -3778103.50845  -2880988.60261
  23878917.1054     645978.90145    437107.74661
 92  5 25 17 18 59.9990000  0  6G18G 2G19G11G16G28
  20692951.0344     664942.70047    517241.06063
  22408151.9724   -6047769.36746  -4712544.33061
  20670176.526    -1587882.294 6  -1237310.50622
  23096523.698    -4239909.142 6  -3236335.43721
  23592902.964    -3833550.075 5  -2924193.73321
  23883587.3314     670534.93345    456242.24961
 92  5 25 17 19 29.9990000  0  6G18G 2G19G11G16G28
  20697548.5344     689106.01047    536069.55863
  22388789.4334   -6149526.81146  -4791835.78161
  20665572.7064   -1612081.64847  -1256167.16162
  23084545.0584   -4302848.53746  -3285379.09661
  23582445.0504   -3888498.54645  -2967010.72161
  23888348.4334     695536.52245    475723.94761
 92  5 25 17 19 59.9990000  0  6G18G 2G19G11G16G28
  20702227.019      713688.686 7    555224.84523
  22369470.7224   -6251042.68346  -4870938.98961
  20660996.3234   -1636125.97947  -1274903.01562
  23072662.8154   -4365296.41346  -3334039.75561
  23572085.636    -3942957.412 5  -3009446.20821
  23893184.7534     720968.95745    495541.35661
 92  5 25 17 20 29.9990000  0  6G18G 2G19G11G16G28
  20706986.1594     738701.42747    574715.23063
  22350197.2144   -6352325.63346  -4949860.70561
  20656451.5814   -1660003.24647  -1293508.68762
  23060875.058    -4427241.827 6  -3382308.87421
  23561817.5114   -3996913.97945  -3051490.28461
  23898114.1594     746846.06845    515705.26161
 92  5 25 17 20 59.9990000  0  6G18G 2G19G11G16G28
  20711826.714      764135.391 7    594533.84823
  22330966.2764   -6453384.42646  -5028607.74861
  20651941.6674   -1683725.14746  -1311993.30662
  23049181.456    -4488692.012 6  -3430192.11421
  23551646.4724   -4050365.34145  -3093140.70561
  23903116.565      773159.262 5    536208.95621
 92  5 25 17 21 29.9990000  0  6G18G 2G19G11G16G28
  20716747.4954     789996.53247    614685.34463
  22311780.7764   -6554199.46046  -5107164.84662
  20647453.8554   -1707298.13846  -1330361.88562
  23037583.8154   -4549636.88146  -3477681.59461
  23541571.0194   -4103307.85045  -3134394.60461
  23908210.972      799904.386 5    557049.23721
 92  5 25 17 21 59.9990000  0  6G18G 2G19G11G16G28
  20721750.9174     816289.63747    635173.41663
  22292643.7064   -6654767.29146  -5185529.32162
  20642995.8624   -1730717.38347  -1348610.65362
  23026083.0894   -4610073.73146  -3524775.22161
  23531592.1754   -4155742.52145  -3175252.79661
  23913376.9644     827075.54745    578221.49161
 92  5 25 17 22 29.9990000  0  6G18G 2G19G11G16G28
  20726836.190      843012.564 7    655996.42023
  22273555.5344   -6755079.12346  -5263694.31462
  20638567.8004   -1753994.68046  -1366748.80962
  23014678.1674   -4670002.65146  -3571473.06561
  23521710.3314   -4207675.01545  -3215719.67661
  23918626.847      854655.841 5    599712.54121
 92  5 25 17 22 59.9990000  0  6G18G 2G19G11G16G28
  20732001.667      870156.593 7    677147.55923
  22254519.3554   -6855116.57646  -5341645.49962
  20634164.0194   -1777135.04946  -1384780.26562
  23003371.0034   -4729424.16046  -3617775.52261
  23511919.7764   -4259118.95945  -3255805.87261
  23923951.581      882636.989 5    621515.95321
 92  5 25 17 23 29.9990000  0  6G18G 2G19G11G16G28
  20737244.284      897704.618 7    698613.50423
  22235531.5194   -6954894.07446  -5419394.12262
  20629789.3234   -1800130.71346  -1402698.97362
  22992159.6674   -4788340.12046  -3663684.04061
  23502221.230    -4310089.775 5  -3295523.39821
  23929351.401      911020.019 5    643632.51121
 92  5 25 17 23 59.9990000  0  6G18G 2G19G11G16G28
  20742563.933      925661.374 7    720397.94823
  22216592.0194   -7054425.85846  -5496951.28062
  20625442.7844   -1822967.69346  -1420494.02762
  22981045.386    -4846746.577 6  -3709195.54521
  23492613.323    -4360578.794 5  -3334865.51421
  23934836.2614     939813.30845    666068.74461
 92  5 25 17 24 29.9990000  0  6G18G 2G19G11G16G28
  20747963.651      954032.284 7    742505.11123
  22197697.4724   -7153709.20046  -5574314.84862
  20621129.2764   -1845639.96246  -1438160.73962
  22970030.0424   -4904632.69746  -3754301.59461
  23483101.9014   -4410567.40145  -3373817.69161
  23940392.4094     969045.65245    688847.10461
 92  5 25 17 24 59.9990000  0  6G18G 2G19G11G16G28
  20753436.933      982800.414 7    764921.78623
  22178848.5034   -7252764.44946  -5651500.68262
  20616847.1594   -1868145.02146  -1455697.15362
  22959114.4334   -4962002.17846  -3799005.07261
  23473684.0894   -4460055.02845  -3412379.48861
  23946047.253      998735.400 5    711981.88121
 92  5 25 17 25 29.9990000  0  6G18G 2G19G11G16G28
  20758986.7764    1011962.18947    787645.18763
  22160040.2534   -7351602.93446  -5728517.61162
  20612594.8784   -1890482.48047  -1473102.96862
  22948294.4334   -5018854.59746  -3843305.63561
  23464363.9174   -4509038.10045  -3450548.13961
  23951777.9334    1028873.08245    735465.68461
 92  5 25 17 25 59.9990000  0  6G18G 2G19G11G16G28
  20764614.808     1041536.027 7    810689.68023
  22141277.206    -7450204.664 7  -5805350.05022
  20608374.7764   -1912656.18947  -1490381.18362
  22937575.386    -5075182.249 6  -3887197.30021
  23455141.995    -4557499.284 5  -3488310.10721
  23957598.855     1059460.955 5    759300.29821
 92  5 25 17 26 29.9990000  0  6G18G 2G19G11G16G28
  20770318.823     1071512.503 7    834047.92523
  22122561.1514   -7548556.32747  -5881987.63262
  20604183.9174   -1934673.40547  -1507537.46162
  22926955.6124   -5130990.93746  -3930684.57261
  23446017.0974   -4605448.91145  -3525673.46761
  23963506.261     1090482.061 5    783472.48721
 92  5 25 17 26 59.9990000  0  6G18G 2G19G11G16G28
  20776099.4484    1101893.09247    857721.05563
  22103896.7454   -7646637.93647  -5958414.79162
  20600031.4804   -1956516.03546  -1524557.69862
  22916434.9804   -5186273.86346  -3973762.16061
  23436989.792    -4652893.875 5  -3562643.58521
  23969481.987     1121906.035 5    807958.59721
 92  5 25 17 27 29.9990000  0  6G18G 2G19G11G16G28
  20781959.5114    1132679.66747    881710.53863
  22085284.7534   -7744444.39147  -6034627.54362
  20595904.9724   -1978193.87246  -1541449.53062
  22906014.9804   -5241036.25646  -4016434.14261
  23428054.9564   -4699841.96745  -3599226.53161
  23975531.886     1153705.238 5    832737.08521
 92  5 25 17 27 59.9990000  0  6G18G 2G19G11G16G28
  20787896.534     1163885.653 7    906026.84423
  22066726.7764   -7841965.17447  -6110617.69862
  20591810.7694   -1999699.48447  -1558207.16562
  22895694.7374   -5295266.37846  -4058691.35961
  23419213.9334   -4746288.98345  -3635419.02261
  23981660.5424    1185896.27945    857820.89661
 92  5 25 17 28 29.9990000  0  6G18G 2G19G11G16G28
  20793913.167     1195502.376 7    930663.21423
  22048220.9644   -7939214.40147  -6186396.25062
  20587753.1984   -2021029.28347  -1574827.78862
  22885476.714    -5348965.452 6  -4100534.77721
  23410468.4724   -4792257.46245  -3671238.62261
  23987856.2924    1218464.08245    883198.29561
 92  5 25 17 28 59.9990000  0  6G18G 2G19G11G16G28
  20800009.065     1227535.159 7    955623.79123
  22029762.2764   -8036215.44447  -6261981.41162
  20583727.6514   -2042186.62346  -1591314.03362
  22875358.2144   -5402135.69946  -4141966.12561
  23401811.6364   -4837752.42345  -3706689.25561
  23994128.4644    1251409.31245    908869.78261
 92  5 25 17 29 29.9990000  0  6G18G 2G19G11G16G28
  20806184.105     1259985.544 7    980909.76523
  22011347.6674   -8132985.81947  -6337386.82562
  20579729.3394   -2063189.84547  -1607680.18962
  22865339.8944   -5454781.97746  -4182989.17761
  23393242.8554   -4882778.87845  -3741774.81961
  24000473.370     1284750.303 5    934849.67421
 92  5 25 17 29 59.9990000  0  6G18G 2G19G11G16G28
  20812440.480     1292861.959 7   1006527.70923
  21992978.4564   -8229514.66747  -6412604.03862
  20575764.1444   -2084028.17847  -1623917.85762
  22855424.159    -5506890.235 6  -4223592.98821
  23384764.4484   -4927330.40245  -3776490.31661
  24006895.0654    1318501.00445    961148.82161
 92  5 25 17 30 29.9990000  0  6G18G 2G19G11G16G28
  20818774.753     1326149.342 7   1032465.88223
  21974653.9954   -8325810.56647  -6487639.73062
  20571827.0344   -2104715.22147  -1640037.63762
  22845607.7224   -5558472.38446  -4263786.84661
  23376379.4014   -4971399.42045  -3810829.81961
  24013393.0584    1352643.08045    987752.92461
 92  5 25 17 30 59.9990000  0  6G18G 2G19G11G16G28
  20825188.745     1359853.131 7   1058728.53923
  21956378.2614   -8421849.59747  -6562475.26962
  20567920.5424   -2125246.08247  -1656035.71862
  22835894.792    -5609509.473 6  -4303555.97421
  23368092.0194   -5014947.05645  -3844763.06161
  24019963.0894    1387199.26145   1014679.68861
 92  5 25 17 31 29.9990000  0  6G18G 2G19G11G16G28
  20831676.105     1393943.547 7   1085292.46623
  21938150.2304   -8517636.51947  -6637114.36362
  20564038.331    -2145643.169 7  -1671929.57022
  22826286.683    -5660011.813 6  -4342908.42221
  23359901.5894   -5057977.88745  -3878293.59861
  24026621.9254    1422153.33545   1041916.53861
 92  5 25 17 31 59.9990000  0  6G18G 2G19G11G16G28
  20838238.1754    1428429.53247   1112164.60463
  21919973.4564   -8613158.05247  -6711546.65362
  20560187.4094   -2165884.92247  -1687702.38462
  22816780.230    -5709963.455 6  -4381831.75521
  23351818.4174   -5100466.45645  -3911401.59161
  24033346.7614    1457510.86345   1069467.73561
 92  5 25 17 32 29.9990000  0  6G18G 2G19G11G16G28
  20844873.1904    1463297.06747   1139334.05763
  21901843.8154   -8708427.40347  -6785782.44462
  20556364.815    -2185967.308 7  -1703351.01122
  22807378.230    -5759373.869 6  -4420333.35621
  23343833.394    -5142419.773 5  -3944092.51921
  24040154.636     1493273.890 5   1097334.92921
 92  5 25 17 32 59.9990000  0  6G18G 2G19G11G16G28
  20851581.956     1498553.711 7   1166806.72223
  21883762.9254   -8803445.59147  -6859822.52262
  20552575.2694   -2205880.67447  -1718867.93862
  22798078.667    -5808241.693 6  -4458412.14221
  23335948.6984   -5183860.46345  -3976383.98361
  24047038.4254    1529450.59045   1125524.45261
 92  5 25 17 33 29.9990000  0  6G18G 2G19G11G16G28
  20858372.589     1534234.386 7   1194609.81223
  21865733.9174   -8898188.44447  -6933648.05462
  20548826.6444   -2225592.07646  -1734227.49762
  22788885.683    -5856546.158 6  -4496051.96821
  23328162.019    -5224778.496 5  -4008268.17721
  24054004.4014    1566060.70845   1154051.71261
 92  5 25 17 33 59.9990000  0  6G18G 2G19G11G16G28
  20865241.9094    1570333.72947   1222739.15063
  21847757.7304   -8992655.77847  -7007258.89662
  20545113.7304   -2245103.60547  -1749431.30362
  22779799.464    -5904299.726 6  -4533262.51221
  23320471.933    -5265189.158 5  -4039757.03421
  24061052.901     1603082.772 5   1182899.95521
 92  5 25 17 34 29.9990000  0  6G18G 2G19G11G16G28
  20872189.464     1606844.929 7   1251189.40523
  21829834.0034   -9086840.55547  -7080649.56262
  20541434.3944   -2264429.98447  -1764490.84062
  22770816.519    -5951506.522 6  -4570047.00421
  23312875.081    -5305106.397 5  -4070861.40621
  24068167.081     1640497.868 5   1212054.46721
 92  5 25 17 34 59.9990000  0  6G18G 2G19G11G16G28
  20879215.605     1643767.450 7   1279960.16823
  21811967.5584   -9180733.00147  -7153812.43562
  20537789.4724   -2283590.44747  -1779421.07362
  22761937.550    -5998161.440 6  -4606401.45921
  23305375.237    -5344529.755 5  -4101580.92821
  24075361.034     1678284.903 5   1241498.79821
 92  5 25 17 35 29.9990000  0  6G18G 2G19G11G16G28
  20886316.9644    1681084.07447   1309038.00163
  21794155.8704   -9274336.64847  -7226750.27062
  20534172.0114   -2302595.89047  -1794230.52462
  22753164.7304   -6044263.27946  -4642324.94261
  23297969.847    -5383445.700 5  -4131905.08021
  24082617.409     1716420.692 5   1271214.89121
 92  5 25 17 35 59.9990000  0  6G18G 2G19G11G16G28
  20893491.534     1718785.185 7   1338415.42723
  21776396.386    -9367661.193 7  -7299470.62122
  20530585.448    -2321449.926 7  -1808922.00322
  22744498.339    -6089809.585 6  -4677815.54421
  23290658.972    -5421857.825 5  -4161836.64121
  24089942.6204    1754904.37245   1301202.05461
 92  5 25 17 36 29.9990000  0  6G18G 2G19G11G16G28
  20900736.394     1756856.594 7   1368081.41323
  21758684.7614   -9460734.93047  -7371995.53562
  20527024.1444   -2340161.90547  -1823502.78662
  22735936.300    -6134803.664 6  -4712875.84321
  23283443.6444   -5459777.82545  -4191384.71361
  24097328.9564    1793744.18145   1331466.72161
 92  5 25 17 36 59.9990000  0  6G18G 2G19G11G16G28
  20908052.206     1795299.870 7   1398037.16823
  21741020.9254   -9553560.33347  -7444326.94362
  20523494.8784   -2358717.96546  -1837962.07662
  22727480.042    -6179244.619 6  -4747505.13121
  23276320.581    -5497205.426 5  -4220549.11421
  24104794.3154    1832952.30545   1362018.38361
 92  5 25 17 37 29.9990000  0  6G18G 2G19G11G16G28
  20915441.315     1834131.774 7   1428295.74423
  21723403.6834   -9646135.09047  -7516463.04262
  20519997.3554   -2377093.93446  -1852281.02662
  22719128.3234   -6223130.10046  -4781701.58661
  23269293.456    -5534141.786 5  -4249330.72021
  24112328.9174    1872551.43645   1392874.70961
 92  5 25 17 37 59.9990000  0  6G18G 2G19G11G16G28
  20922905.9564    1873359.46347   1458862.72263
  21705837.1754   -9738448.21847  -7588395.27362
  20516534.706    -2395283.939 7  -1866455.07222
  22710884.417    -6266454.182 6  -4815460.58221
  23262353.995    -5570593.313 5  -4277734.53421
  24119942.722     1912568.667 5   1424056.84921
 92  5 25 17 38 29.9990000  0  6G18G 2G19G11G16G28
  20930447.440     1912989.209 7   1489742.99223
  21688323.4254   -9830487.41647  -7660114.05762
  20513108.065    -2413284.142 7  -1880481.22922
  22702746.9644   -6309214.39746  -4848780.21661
  23255514.550    -5606545.156 5  -4305749.00421
  24127638.401     1952997.077 5   1455559.38721
 92  5 25 17 38 59.9990000  0  6G18G 2G19G11G16G28
  20938066.2534    1953025.51847   1520940.06163
  21670863.0114   -9922239.09247  -7731608.79962
  20509720.222    -2431085.125 7  -1894352.14622
  22694718.6284   -6351410.06446  -4881659.93561
  23248767.901    -5641992.971 5  -4333370.70221
  24135408.487     1993823.191 5   1487371.82521
 92  5 25 17 39 29.9990000  0  6G18G 2G19G11G16G28
  20945760.683     1993461.025 7   1552448.20023
  21653456.4724  -10013711.97047  -7802886.30262
  20506371.7374   -2448697.59446  -1908076.17262
  22686797.1754   -6393035.59346  -4914095.39861
  23242120.714    -5676926.645 5  -4360591.77521
  24143249.065     2035043.532 5   1519491.45621
 92  5 25 17 39 59.9990000  0  6G18G 2G19G11G16G28
  20953527.526     2034274.431 7   1584250.80222
  21636101.2374  -10104911.18247  -7873950.55762
  20503053.7454   -2466130.50047  -1921660.27262
  22678984.0814   -6434089.76046  -4946085.64561
  23235573.589    -5711342.730 5  -4387409.52621
  24151167.6124    2076637.50145   1551902.20761
 92  5 25 17 40 29.9990000  0  6G18G 2G19G11G16G28
  20961364.3944    2075458.86847   1616342.51062
  21618797.0894  -10195843.50447  -7944806.85462
  20499771.0894   -2483376.34347  -1935098.61463
  22671279.9644   -6474579.06746  -4977635.73461
  23229122.940    -5745240.071 5  -4413823.07621
  24159147.8474    2118583.58645   1584587.34061
 92  5 25 17 40 59.9990000  0  6G18G 2G19G11G16G28
  20969270.8154    2117002.79547   1648714.34062
  21601542.8314  -10286518.49047  -8015462.62362
  20496523.8864   -2500444.99547  -1948398.87963
  22663680.9804   -6514506.96046  -5008748.37061
  23222768.120    -5778630.451 5  -4439841.59621
  24167197.355     2160881.208 5   1617546.38921
 92  5 25 17 41 29.9990000  0  6G18G 2G19G11G16G28
  20977246.6364    2158915.93947   1681373.86963
  21584339.3234  -10376924.52347  -8085908.81062
  20493309.9404   -2517337.99647  -1961562.27163
  22656192.5424   -6553858.82146  -5039412.15961
  23216513.5034   -5811495.09645  -4465450.43561
  24175315.3314    2203534.39445   1650782.50061
 92  5 25 17 41 59.9990000  0  6G18G 2G19G11G16G28
  20985292.5974    2201201.24047   1714323.39063
  21567191.5194  -10467039.80947  -8156128.44662
  20490128.4404   -2534048.80047  -1974583.69163
  22648814.2374   -6592633.99546  -5069626.57761
  23210362.0734   -5843835.96945  -4490651.16161
  24183498.6594    2246540.49145   1684293.60161
 92  5 25 17 42 29.9990000  0  6G18G 2G19G11G16G28
  20993410.9644    2243861.51447   1747565.10362
  21550096.3704  -10556874.00047  -8226129.04762
  20486979.019    -2550597.347 7  -1987478.67823
  22641543.4804   -6630840.05846  -5099397.53661
  23204302.8004   -5875669.21845  -4515456.32061
  24191746.6674    2289892.32445   1718074.11361
 92  5 25 17 42 59.9980000  0  6G18G 2G19G11G16G28
  21001601.4594    2286906.10147   1781106.28262
  21533056.1074  -10646414.53047  -8295900.82562
  20483857.9434   -2566994.28447  -2000255.53163
  22634383.584    -6668464.417 6  -5128715.21521
  23198339.772    -5906998.348 5  -4539868.67521
  24200065.9044    2333597.34645   1752129.82661
 92  5 25 17 43 29.9980000  0  6G18G 2G19G11G16G28
  21009868.1784    2330343.58747   1814953.61262
  21516073.4514  -10735663.06947  -8365445.07762
  20480770.5224   -2583223.62147  -2012901.77763
  22627334.9984   -6705505.43246  -5157578.35261
  23192475.318    -5937832.696 5  -4563895.48221
  24208447.2794    2377661.13145   1786465.08461
 92  5 25 17 43 59.9980000  0  6G18G 2G19G11G16G28
  21018207.9124    2374166.74247   1849101.46062
  21499143.1544  -10824628.13447  -8434768.44062
  20477714.6004   -2599272.21347  -2025407.18263
  22620396.3974   -6741965.90246  -5185989.09461
  23186697.5294   -5968186.73245  -4587548.01961
  24216904.998     2422089.012 4   1821084.04521
 92  5 25 17 44 29.9980000  0  6G18G 2G19G11G16G28
  21026620.8974    2418379.35047   1883552.77463
  21482263.0374  -10913334.01347  -8503889.84162
  20474697.5294   -2615135.29247  -2037768.02863
  22613567.8504   -6777849.99246  -5213950.72661
  23181010.615    -5998062.355 5  -4610827.75921
  24225426.3344    2466878.24944   1855984.61061
 92  5 25 17 44 59.9980000  0  6G18G 2G19G11G16G28
  21035107.2094    2462975.00647   1918302.55962
  21465433.1784  -11001774.06547  -8572804.10062
  20471718.1234   -2630791.32947  -2049967.54263
  22606850.0534   -6813154.44546  -5241460.69161
  23175419.2644   -6027444.82845  -4633723.22461
  24234016.8344    2512030.87545   1891168.32161
 92  5 25 17 45 29.9980000  0  6G18G 2G19G11G16G28
  21043666.9364    2507959.42847   1953355.29062
  21448656.0454  -11089940.61647  -8641505.23762
  20468782.6154   -2646217.61647  -2061988.02163
  22600244.561    -6847867.930 6  -5268510.14221
  23169929.686    -6056301.875 5  -4656209.26021
  24242682.0294    2557550.07945   1926637.69561
 92  5 25 17 45 59.9980000  0  6G18G 2G19G11G16G28
  21052304.2404    2553345.35047   1988720.88062
  21431932.1394  -11177822.67547  -8709984.69862
  20465891.0924   -2661422.64846  -2073836.09663
  22593751.8184   -6881986.21446  -5295095.81061
  23164539.5144   -6084623.32145  -4678277.95761
  24251413.3974    2603428.75745   1962387.15861
 92  5 25 17 46 29.9980000  0  6G18G 2G19G11G16G28
  21061014.5224    2599118.22147   2024387.97662
  21415264.9364  -11265411.18147  -8778235.40462
  20463035.1004   -2676430.76747  -2085530.73263
  22587370.9124   -6915517.71046  -5321224.24061
  23159249.8734   -6112417.47545  -4699935.77361
  24260205.459     2649643.173 5   1998398.23921
 92  5 25 17 46 59.9980000  0  6G18G 2G19G11G16G28
  21069797.8424    2645278.30247   2060356.78962
  21398658.3814  -11352679.85047  -8846236.89462
  20460214.9204   -2691235.38047  -2097066.79263
  22581103.9824   -6948449.31546  -5346885.21861
  23154063.842    -6139680.707 5  -4721179.89221
  24269068.1704    2696198.11844   2034674.64361
 92  5 25 17 47 29.9980000  0  6G18G 2G19G11G16G28
  21078655.0224    2691822.88547   2096625.21562
  21382111.2484  -11439631.20547  -8913991.12462
  20457437.6314   -2705848.58147  -2108453.70463
  22574951.6394   -6980783.13946  -5372080.40161
  23148972.397    -6166436.219 5  -4742028.37521
  24277993.061     2743093.760 4   2071216.54221
 92  5 25 17 47 59.9980000  0  6G18G 2G19G11G16G28
  21087584.7254    2738748.08047   2133190.22662
  21365628.5764  -11526252.88447  -8981488.46762
  20454693.3504   -2720265.32147  -2119687.53563
  22568913.6314   -7012510.66246  -5396803.14061
  23143974.2874   -6192701.00545  -4762494.47861
  24286983.061     2790348.843 5   2108038.53621
 92  5 25 17 48 29.9980000  0  6G18G 2G19G11G16G28
  21096581.9364    2786027.86247   2170031.55062
  21349204.3504  -11612561.74647  -9048742.06162
  20451987.7954   -2734482.95747  -2130766.22063
  22562991.7954   -7043635.21146  -5421056.03961
  23139067.670    -6218479.720 5  -4782581.82921
  24296044.0924    2837975.95144   2145150.43761
 92  5 25 17 48 59.9980000  0  6G18G 2G19G11G16G28
  21105646.5844    2833662.92747   2207149.70562
  21332836.6074  -11698575.39747  -9115765.61462
  20449321.8184   -2748495.22047  -2141684.87963
  22557181.8034   -7074155.50746  -5444838.09561
  23134255.076    -6243771.885 5  -4802290.04321
  24305178.9904    2885984.89444   2182559.85361
 92  5 25 17 49 29.9980000  0  6G18G 2G19G11G16G28
  21114783.4124    2881677.64247   2244563.69762
  21316527.0294  -11784280.89447  -9182549.05163
  20446699.1394   -2762281.40746  -2152427.37263
  22551495.4044   -7104051.07246  -5468133.34561
  23129540.725    -6268543.649 5  -4821592.76221
  24314393.7484    2934400.21544   2220285.94161
 92  5 25 17 49 59.9980000  0  6G18G 2G19G11G16G28
  21123993.9824    2930072.36547   2282273.79862
  21300274.9754  -11869687.66247  -9249099.71263
  20444121.2094   -2775832.30246  -2162986.52063
  22545923.8114   -7133327.12546  -5490945.86461
  23124928.107    -6292777.367 5  -4840476.20521
  24323681.3184    2983211.97644   2258320.93961
 92  5 25 17 50 29.9980000  0  6G18G 2G19G11G16G28
  21133280.6784    2978877.06547   2320303.36162
  21284079.6074  -11954791.16047  -9315414.06363
  20441586.5294   -2789134.21647  -2173351.65763
  22540471.5924   -7161979.02546  -5513272.01961
  23120424.6624   -6316448.27645  -4858921.11561
  24333042.475     3032412.311 4   2296658.71721
 92  5 25 17 50 59.9980000  0  6G18G 2G19G11G16G28
  21142647.8424    3028102.67147   2358660.89562
  21267944.8264  -12039583.61847  -9381486.04162
  20439103.4204   -2802192.53847  -2183526.98163
  22535137.0294   -7190009.67146  -5535114.08761
  23116025.2324   -6339567.23745  -4876935.94161
  24342477.701     3081979.699 4   2335282.50021
 92  5 25 17 51 29.9980000  0  6G18G 2G19G11G16G28
  21152096.147     3077756.408 7   2397352.05022
  21251870.4984  -12124055.99447  -9447308.59562
  20436664.5294   -2814997.56447  -2193504.92363
  22529921.0374   -7217416.06846  -5556469.73961
  23111733.115    -6362136.740 5  -4894522.61621
  24351980.1394    3131906.53043   2374186.34161
 92  5 25 17 51 59.9980000  0  6G18G 2G19G11G16G28
  21161627.7404    3127844.40547
  21235859.0294  -12208192.12847  -9512869.15462
  20434279.9514   -2827551.11046  -2203286.90763
  22524826.2484   -7244190.42946  -5577332.86261
  23107540.350    -6384168.344 5  -4911690.15021
  24361549.881     3182186.331 4
 92  5 25 17 52 29.9980000  0  6G18G 2G19G11G16G28
  21171241.1004    3178359.76347
  21219915.7644  -12291974.86647  -9578154.34563
  20431936.4754   -2839862.84746  -2212880.47663
  22519852.6234   -7270323.46546  -5597696.26461
  23103450.404    -6405669.605 5  -4928444.42321
  24371186.678     3232825.026 4
 92  5 25 17 52 59.9980000  0  6G18G 2G19G11G16G28
  21180927.4514    3229261.82947
  21204037.6624  -12375416.42847  -9643173.68662
  20429636.4044   -2851937.52446  -2222289.31363
  22515001.8344   -7295821.61746  -5617564.95361
  23099454.6394   -6426654.24745  -4944796.15861
  24380887.006     3283814.920 4
 92  5 25 17 53 29.9980000  0  6G18G 2G19G11G16G28
  21190684.3974    3280536.06347
  21188226.1074  -12458506.86447  -9707919.41663
  20427386.9514   -2863771.19746  -2231510.36063
  22510270.7954   -7320679.06646  -5636934.38161
  23095562.0294   -6447105.95145  -4960732.60261
  24390659.772     3335164.664 4
 92  5 25 17 53 59.9980000  0  6G18G 2G19G11G16G28
  21200507.4284    3332156.78847
  21172480.8184  -12541248.64047  -9772393.45963
  20425177.8504   -2875376.09046  -2240553.14263
  22505661.7484   -7344903.97646  -5655810.92961
  23091774.4364   -6467025.02145  -4976254.01961
  24400498.701     3386872.969 5
 92  5 25 17 54 29.9980000  0  6G18G 2G19G11G16G28
  21210393.0374    3384105.34147
  21156797.5924  -12623659.93047  -9836609.98262
  20423013.6314   -2886740.06046  -2249408.18763
  22501172.5294   -7368501.71746  -5674198.76761
  23088084.592    -6486406.707 5  -4991356.69421
  24410405.592     3438936.897 4
 92  5 25 17 54 59.9980000  0  6G18G 2G19G11G16G28
  21220343.600     3436395.511 7
  21141177.6864  -12705747.73647  -9900574.44063
  20420898.9984   -2897857.92146  -2258071.45763
  22496799.4824   -7391469.97246  -5692096.11061
  23084500.1314   -6505249.34945  -5006039.33261
  24420379.576     3491352.329 4
 92  5 25 17 55 29.9980000  0  6G18G 2G19G11G16G28
  21230364.0144    3489049.83747
  21125617.6474  -12787514.61447  -9964288.83363
  20418825.5844   -2908741.02147  -2266551.79763
  22492549.7094   -7413815.19646  -5709507.96661
  23081014.553    -6523562.472 5  -5020309.35021
  24430419.076     3544108.060 4
 92  5 25 17 55 59.9980000  0  6G18G 2G19G11G16G28
  21240454.6314    3542078.63547
  21110113.9124  -12868982.73547 -10027770.42763
  20416800.3114   -2919390.25946  -2274849.91763
  22488413.3344   -7435544.77446  -5726440.09761
  23077624.982    -6541365.215 5  -5034181.67521
  24440519.428     3597189.111 4
 92  5 25 17 56 29.9980000  0  6G18G 2G19G11G16G28
  21250618.5224    3595488.47547
  21094666.1624  -12950165.44447 -10091029.62363
  20414814.6074   -2929818.62746  -2282975.92963
  22484393.9824   -7456668.47746  -5742900.12161
  23074332.975    -6558677.218 5  -5047671.59221
  24450679.123     3650578.747 4
 92  5 25 17 56 59.9980000  0  6G18G 2G19G11G16G28
  21260855.7794    3649287.03747
  21079273.9364  -13031050.37347 -10154056.78562
  20412871.8894   -2940034.07546  -2290936.03563
  22480489.0924   -7477187.72446  -5758889.14261
  23071131.756    -6575499.694 5  -5060780.07721
  24460894.631     3704273.139 4
 92  5 25 17 57 29.9980000  0  6G18G 2G19G11G16G28
  21271163.1624    3703453.47947   2884907.28862
  21063939.9364  -13111634.12747 -10216849.26863
  20410968.4984   -2950039.66046  -2298732.61163
  22476698.9594   -7497108.62546  -5774411.92261
  23068018.0924   -6591838.71045  -5073511.83161
  24471171.0924    3758264.27044   2449965.97361
 92  5 25 17 57 59.9980000  0  6G18G 2G19G11G16G28
  21281534.0534    3757949.31247   2927371.48962
  21048658.9204  -13191933.16947 -10279419.88763
  20409100.029    -2959856.488 7  -2306382.10323
  22473016.9594   -7516448.76846  -5789482.16861
  23064999.7484   -6607711.66845  -5085880.43161
  24481502.217     3812540.794 4   2492259.17721
 92  5 25 17 58 29.9980000  0  6G18G 2G19G11G16G28
  21291963.717     3812758.420 7   2970079.80622
  21033433.553   -13271943.175 7 -10341765.29123
  20407268.8114   -2969492.18646  -2313890.45763
  22469447.3504   -7535209.93246  -5804101.25861
  23062071.4824   -6623116.37045  -5097884.15961
  24491884.639     3867093.924 4   2534767.96821
 92  5 25 17 58 59.9980000  0  6G18G 2G19G11G16G28
  21302446.6704    3867845.31647   3013004.57662
  21018259.5534  -13351682.16947 -10403899.51563
  20405465.654    -2978960.198 6  -2321268.14623
  22465985.3654   -7553409.61946  -5818282.83261
  23059223.787    -6638071.869 5  -5109537.85521
  24502310.8574    3921906.07844   2577478.61161
 92  5 25 17 59 29.9980000  0  6G18G 2G19G11G16G28
  21312982.6934    3923212.00447   3056147.36362
  21003136.1314  -13431157.58047 -10465828.34363
  20403695.842    -2988258.662 7  -2328513.72923
  22462627.3504   -7571046.18846  -5832025.61261
  23056463.3504   -6652590.69445  -5120851.30261
  24512794.2484    3976984.72944   2620396.88561
 92  5 25 17 59 59.9980000  0  6G18G 2G19G11G16G28
  21323572.2324    3978863.12847   3099511.79562
  20988061.6864  -13510372.07147 -10527553.86663
  20401959.5454   -2997386.62246  -2335626.44463
  22459379.1234   -7588118.87646  -5845329.00561
  23053781.3424   -6666673.82345  -5131825.22961
  24523324.3424    4032326.41044   2663520.10361
 92  5 25 18  0 29.9980000  0  6G18G 2G19G11G16G28
  21334215.4284    4034792.19747   3143092.80062
  20973035.9754  -13589330.03047 -10589079.49463
  20400255.3184   -3006344.56346  -2342606.67563
  22456234.9754   -7604637.16646  -5858200.40761
  23051183.029    -6680337.177 5  -5142472.06121
  24533902.053     4087912.046 4   2706833.44721
 92  5 25 18  0 59.9980000  0  6G18G 2G19G11G16G28
  21344914.592     4091019.514 7   3186906.20822
  20958062.459   -13668022.678 7 -10650398.39623
  20398584.0534   -3015117.64246  -2349442.85963
  22453200.2174   -7620594.90946  -5870635.01661
  23048661.6394   -6693572.59845  -5152785.45261
  24544531.318     4143755.098 4   2750347.36021
 92  5 25 18  1 29.9980000  0  6G18G 2G19G11G16G28
  21355670.467     4147537.383 7   3230946.01822
  20943134.100   -13746467.933 7 -10711524.52723
  20396945.5844   -3023733.45346  -2356156.49863
  22450265.3264   -7636010.77846  -5882647.39061
  23046224.3424   -6706390.64445  -5162773.59861
  24555197.6154    4199817.76044   2794032.43861
 92  5 25 18  1 59.9980000  0  6G18G 2G19G11G16G28
  21366482.592     4204351.726 7   3275216.84422
  20928255.092   -13824658.667 7 -10772452.31423
  20395341.279    -3032178.697 6  -2362737.22823
  22447436.3424   -7650878.50746  -5894232.64461
  23043868.7874   -6718774.35045  -5172423.30761
  24565905.490     4256099.739 4   2837888.37721
 92  5 25 18  2 29.9980000  0  5G18G 2G19G11G16
  21377350.740     4261468.151 7   3319723.06022
  20913423.9904  -13902596.05647 -10833182.69463
  20393767.670    -3040443.159 6  -2369177.09623
  22444712.8654   -7665193.45946  -5905387.16261
  23041591.764    -6730717.483 5  -5181729.71221
 92  5 25 18  2 59.9980000  0  5G18G 2G19G11G16
  21388275.732     4318878.035 7   3364457.94822
  20898639.2254  -13980289.95047 -10893723.33163
  20392224.240    -3048541.814 6  -2375487.76523
  22442092.1074   -7678957.80246  -5916112.64161
  23039408.654    -6742221.741 5  -5190694.13421
 92  5 25 18  3 29.9980000  0  5G18G 2G19G11G16
  21399250.553     4376550.417 7   3409397.37222
  20883898.795   -14057750.702 7 -10954082.30523
  20390712.623    -3056484.744 6  -2381677.09123
  22439578.0614   -7692183.36746  -5926418.28861
  23037295.647    -6753312.413 5  -5199336.28621
 92  5 25 18  3 59.9980000  0  5G18G 2G19G11G16
  21410275.186     4434486.708 7   3454542.44622
  20869204.701   -14134968.230 7 -11014251.75823
  20389232.178    -3064249.083 7  -2387727.25423
  22437167.1544   -7704856.14046  -5936293.17861
  23035266.779    -6763973.362 5  -5207643.58721
 92  5 25 18  4 29.9980000  0  5G18G 2G19G11G16
  21421344.818     4492656.579 7   3499869.53522
  20854554.178   -14211957.545 7 -11074243.38623
  20387787.326    -3071865.812 6  -2393662.38923
  22434856.4364   -7716991.17346  -5945749.05761
  23033316.2174   -6774223.75845  -5215630.97861
 92  5 25 18  4 59.9980000  0  5G18G 2G19G11G16
  21432460.311     4551069.334 7   3545385.87922
  20839949.576   -14288706.495 7 -11134047.72023
  20386370.639    -3079319.628 6  -2399470.59123
  22432650.272    -7728573.670 6  -5954774.39721
  23031447.209    -6784044.647 5  -5223283.68321
 92  5 25 18  5 29.9980000  0  5G18G 2G19G11G16
  21443620.084     4609711.849 7   3591081.24522
  20825386.998   -14365231.480 7 -11193677.52723
  20384978.428    -3086613.955 6  -2405154.50523
  22430550.826    -7739618.743 6  -5963380.98521
  23029659.4904   -6793443.09645  -5230607.22861
 92  5 25 18  5 59.9980000  0  5G18G 2G19G11G16
  21454824.373     4668590.174 7   3636960.36922
  20810865.389   -14441541.795 7 -11253140.06023
  20383620.607    -3093757.917 6  -2410721.25323
  22428548.9124   -7750132.99646  -5971573.92361
  23027951.506    -6802424.112 5  -5237605.48621
 92  5 25 18  6 29.9980000  0  5G18G 2G19G11G16
  21466078.584     4727730.168 7   3683043.39022
  20796390.576   -14517610.028 7 -11312413.95323
  20382296.107    -3100717.742 6  -2416144.52123
  22426651.6314   -7760101.98946  -5979341.99361
  23026320.107    -6810993.214 5  -5244282.79321
 92  5 25 18  6 59.9980000  0  5G18G 2G19G11G16
  21477384.795     4787143.369 7   3729339.29822
  20781962.631   -14593425.514 7 -11371490.90823
  20381009.029    -3107469.127 6  -2421405.36223
  22424860.6394   -7769525.55546  -5986685.05461
  23024765.998    -6819155.069 5  -5250642.73921
 92  5 25 18  7 29.9980000  0  5G18G 2G19G11G16
  21488743.951     4846835.058 7   3775852.18922
  20767586.584   -14668976.731 7 -11430361.93823
  20379767.100    -3114011.965 6  -2426503.70423
  22423168.904    -7778407.819 6  -5993606.33921
  23023284.9984   -6826929.72745  -5256700.98161
 92  5 25 18  7 59.9980000  0  5G18G 2G19G11G16
  21500152.740     4906790.671 7   3822570.74622
  20753258.193   -14744269.839 7 -11489031.85423
  20378558.873    -3120353.695 6  -2431445.33223
  22421580.5844   -7786756.24146  -6000111.62061
  23021877.295    -6834329.436 5  -5262467.06221
 92  5 25 18  8 29.9970000  0  5G18G 2G19G11G16
  21511610.876     4967004.517 7   3869490.52922
  20738983.032   -14819287.293 7 -11547486.96523
  20377391.3764   -3126489.06346  -2436226.15363
  22420097.384    -7794552.148 6  -6006186.37321
  23020548.173    -6841324.618 5  -5267917.92021
 92  5 25 18  8 59.9970000  0  5G18G 2G19G11G16
  21523113.501     5027456.397 6   3916595.78622
  20724755.665   -14894051.023 7 -11605744.37923
  20376254.6574   -3132465.09346  -2440882.81363
  22418715.1264   -7801808.21446  -6011840.46361
  23019295.2204   -6847909.45745  -5273049.03161
 92  5 25 18  9 29.9970000  0  5G18G 2G19G11G16
  21534659.743     5088127.167 7   3963871.60922
  20710573.2824  -14968580.02347 -11663818.90163
  20375140.517    -3138318.431 6
  22417437.3144   -7808533.06646  -6017080.62361
  23018116.5714   -6854090.24945
 92  5 25 18  9 59.9970000  0  5G18G 2G19G11G16
  21546247.665     5149018.999 7   4011319.69022
  20696438.103   -15042862.583 7 -11721701.37723
  20374051.235    -3144045.589 6
  22416258.931    -7814711.911 6  -6021895.32621
  23017022.1814   -6859846.29245
 92  5 25 18 10 29.9970000  0  5G18G 2G19G11G16
  21557878.587     5210139.814 6   4058946.20921
  20682350.798   -15116889.910 7 -11779384.97223
  20372982.978    -3149659.770 7
  22415186.915    -7820348.066 6
  23016006.2594   -6865188.89145  -5286513.72961
 92  5 25 18 10 59.9970000  0  5G18G 2G19G11G16
  21569555.657     5271502.086 6   4106760.85822
  20668313.5714  -15190657.64247 -11836866.29763
  20371940.4934   -3155141.32346  -2458552.69663
  22414217.618    -7825445.708 6
  23015067.3294   -6870134.96845
 92  5 25 18 11 29.9970000  0  5G18G 2G19G11G16
  21581277.376     5333102.713 6   4154761.23821
  20654324.110   -15264172.909 7 -11894150.88723
  20370928.314    -3160461.587 6  -2462698.38223
  22413350.0714   -7830007.67646
  23014197.1494   -6874699.41845
 92  5 25 18 11 59.9970000  0  5G18G 2G19G11G16
  21593044.915     5394936.776 6   4202943.51321
  20640383.907   -15337427.510 7 -11951232.35423
  20369947.8374   -3165594.93547  -2466698.42163
  22412584.173    -7834035.057 6  -6036951.95221
  23013400.3604   -6878884.67145  -5297185.96261
 92  5 25 18 12 29.9970000  0  5G18G 2G19G11G16
  21604857.376     5457012.447 6   4251314.06421
  20626493.868   -15410420.415 7 -12008109.90423
  20369014.649    -3170509.102 6  -2470527.65823
  22411922.274    -7837516.748 6  -6039664.99021
  23012678.8144   -6882680.85945  -5300144.09061
 92  5 25 18 12 59.9970000  0  5G18G 2G19G11G16
  21616710.939     5519306.224 6   4299854.57121
  20612648.040   -15483183.088 7 -12064808.05323
  20368124.399    -3175188.946 6  -2474174.31623
  22411361.876    -7840463.147 6  -6041960.91821
  23012024.4784   -6886098.12845  -5302806.96261
 92  5 25 18 13 29.9970000  0  5G18G 2G19G11G16
  21628605.642     5581808.480 6   4348557.53121
  20598843.142   -15555726.277 7 -12121335.17723
  20367276.3684   -3179647.51846  -2477648.55363
  22410901.0484   -7842876.17646  -6043841.25561
  23011448.4704   -6889132.18545  -5305171.21861
 92  5 25 18 13 59.9970000  0  5G18G 2G19G11G16
  21640540.079     5644525.158 6   4397427.55521
  20585079.493   -15628051.995 7 -12177692.85223
  20366467.806    -3183895.953 6  -2480959.04823
  22410544.501    -7844754.959 6  -6045305.29421
  23010946.2594   -6891775.11245  -5307230.69461
 92  5 25 18 14 29.9970000  0  5G18G 2G19G11G16
  21652516.4704    5707466.35346   4446472.52861
  20571357.7284  -15700158.80547 -12233879.95763
  20365698.915    -3187946.719 6  -2484115.51323
  22410286.939    -7846097.559 6  -6046351.52021
  23010520.6734   -6894022.33145  -5308981.84361
 92  5 25 18 14 59.9970000  0  5G18G 2G19G11G16
  21664535.064     5770621.419 6   4495684.15721
  20557678.7204  -15772044.64247 -12289894.86563
  20364961.056    -3191828.792 6  -2487140.53523
  22410134.212    -7846913.776 6  -6046987.57221
  23010164.040    -6895888.833 5  -5310436.34321
 92  5 25 18 15 29.9970000  0  5G18G 2G19G11G16
  21676595.7284    5833997.12446   4545067.70861
  20544046.4544  -15843682.90347 -12345716.86463
  20364249.2284   -3195551.55346  -2490041.41063
  22410078.915    -7847196.568 6
  23009880.907    -6897366.899 5  -5311588.15521
 92  5 25 18 15 59.9970000  0  5G18G 2G19G11G16
  21688698.173     5897597.712 6   4594626.49421
  20530463.290   -15915066.240 7 -12401340.22223
  20363573.7674   -3199104.29446  -2492809.79963
  22410127.8994   -7846944.76046
  23009674.798    -6898460.289 5  -5312440.24721
 92  5 25 18 16 29.9970000  0  5G18G 2G19G11G16
  21700842.9624    5961417.59146   4644356.15961
  20516930.2514  -15986181.25347 -12456754.49763
  20362929.532    -3202477.731 7  -2495438.47023
  22410279.517    -7846157.721 6  -6046398.58121
  23009537.634    -6899173.277 5  -5312995.90121
 92  5 25 18 16 59.9970000  0  5G18G 2G19G11G16
  21713027.431     6025448.909 6   4694250.57621
  20503447.001   -16057033.919 7 -12511964.34323
  20362327.228    -3205666.105 6  -2497922.93823
  22410529.853    -7844841.431 6  -6045372.95221
  23009473.939    -6899513.619 5
 92  5 25 18 17 29.9970000  0  5G18G 2G19G11G16
  21725253.149     6089698.670 6   4744315.22421
  20490013.095   -16127635.047 7 -12566978.17823
  20361757.368    -3208657.494 6  -2500253.91923
  22410879.3454   -7842998.04546  -6043936.58461
  23009482.962    -6899467.983 5
 92  5 25 18 17 59.9970000  0  5G18G 2G19G11G16
  21737523.314     6154178.756 6   4794559.34121
  20476624.6344  -16197988.16447 -12621798.76863
  20361225.532    -3211445.792 7  -2502426.64423
  22411329.603    -7840619.811 6  -6042083.45621
  23009566.7514   -6899031.98645
 92  5 25 18 18 29.9970000  0  5G18G 2G19G11G16
  21749834.540     6218870.797 6   4844968.61421
  20463281.064   -16268109.506 7 -12676438.74923
  20360727.923    -3214058.832 6  -2504462.80923
  22411883.587    -7837720.651 6  -6039824.41321
  23009721.5174   -6898223.31845  -5312256.04261
 92  5 25 18 18 59.9970000  0  5G18G 2G19G11G16
  21762185.423     6283774.691 6   4895542.97021
  20449979.9544  -16338008.15547 -12730905.20463
  20360263.845    -3216502.617 6  -2506367.08923
  22412534.907    -7834299.099 6  -6037158.30721
  23009942.079    -6897047.984 5  -5311340.28521
 92  5 25 18 19 29.9970000  0  5G18G 2G19G11G16
  21774576.9624    6348889.27046   4946281.49161
  20436721.431   -16407684.039 7 -12785198.07323
  20359829.392    -3218778.641 7  -2508140.65223
  22413283.845    -7830354.899 6  -6034084.94521
  23010234.196    -6895521.100 5  -5310150.60721
 92  5 25 18 19 59.9970000  0  5G18G 2G19G11G16
  21787010.0954    6414219.78346   4997188.27061
  20423509.845   -16477107.236 7 -12839294.05023
  20359428.923    -3220884.579 7  -2509781.67923
  22414137.126    -7825876.974 6  -6030595.69421
  23010591.6494   -6893651.32145  -5308693.74461
 92  5 25 18 20 29.9970000  0  5G18G 2G19G11G16
  21799479.845     6479753.841 6   5048253.65821
  20410347.6424  -16546275.40347 -12893191.29963
  20359060.649    -3222817.426 7  -2511287.83123
  22415088.189    -7820873.006 6  -6026696.54321
  23011011.704    -6891443.330 5  -5306973.33621
 92  5 25 18 20 59.9970000  0  5G18G 2G19G11G16
  21811988.282     6545486.777 6   5099474.02321
  20397234.8064  -16615180.34047 -12946883.44363
  20358729.392    -3224565.435 7  -2512649.94723
  22416140.782    -7815345.154 6  -6022389.17221
  23011495.9624   -6888895.41645  -5304988.04161
 92  5 25 18 21 29.9970000  0  5G18G 2G19G11G16
  21824532.095     6611408.005 6   5150841.11421
  20384174.4074  -16683816.74647 -13000366.33063
  20358431.587    -3226131.515 7  -2513870.29723
  22417291.657    -7809297.690 6  -6017676.90121
  23012050.290    -6885992.655 5  -5302726.25921
 92  5 25 18 21 59.9970000  0  5G18G 2G19G11G16
  21837109.157     6677500.837 6   5202341.91621
  20371163.181   -16752194.525 7 -13053647.69423
  20358166.712    -3227520.480 7  -2514952.63323
  22418539.610    -7802735.319 6  -6012563.41621
  23012672.767    -6882716.772 5  -5300173.73621
 92  5 25 18 22 29.9970000  0  5G18G 2G19G11G16
  21849721.337     6743775.723 6   5253984.57821
  20358196.2204  -16820330.58448 -13106740.70863
  20357936.298    -3228719.787 7  -2515887.18823
  22419887.3604   -7795658.47446  -6007049.04061
  23013368.5174   -6879054.01145  -5297319.74261
 92  5 25 18 22 59.9970000  0  5G18G 2G19G11G16
  21862368.556     6810237.102 6   5305772.56121
  20345277.0094  -16888225.19648 -13159645.58263
  20357747.946    -3229719.726 7  -2516666.39523
  22421331.907    -7788062.570 6  -6001130.19821
  23014142.548    -6874999.556 5  -5294160.53521
 92  5 25 18 23 29.9970000  0  5G18G 2G19G11G16
  21875051.048     6876879.212 6   5357701.37821
  20332398.431   -16955904.122 8 -13212382.37823
  20357596.853    -3230525.171 6  -2517294.05423
  22422875.759    -7779957.341 6  -5994814.48021
  23014983.860    -6870572.174 5  -5290710.72221
 92  5 25 18 23 59.9970000  0  5G18G 2G19G11G16
  21887769.485     6943722.483 6   5409786.93921
  20319559.915   -17023366.500 8 -13264950.42823
  20357484.017    -3231114.547 7  -2517753.34223
  22424515.806    -7771331.437 6  -5988093.04521
  23015894.931    -6865784.773 5  -5286980.37921
 92  5 25 18 24 29.9970000  0  5G18G 2G19G11G16
  21900526.587     7010755.174 6   5462020.10221
  20306763.196   -17090616.653 8 -13317353.12423
  20357411.571    -3231489.224 7
  22426254.149    -7762196.924 6  -5980975.29521
  23016869.126    -6860666.885 5  -5282992.52821
 92  5 25 18 24 59.9970000  0  5G18G 2G19G11G16
  21913315.017     7077956.008 6   5514384.28621
  20294008.681   -17157640.938 8 -13369579.81323
  20357380.540    -3231656.073 6
  22428088.907    -7752555.056 6  -5973462.19021
  23017901.798    -6855237.103 5  -5278761.65021
 92  5 25 18 25 29.9970000  0  5G18G 2G19G11G16
  21926135.290     7145328.457 6   5566882.19221
  20281300.235   -17224423.893 8 -13421618.45723
  20357386.118    -3231627.571 6
  22430021.071    -7742404.877 6  -5965553.00421
  23018994.431    -6849496.238 5  -5274288.35221
 92  5 25 18 25 59.9970000  0  5G18G 2G19G11G16
  21938988.626     7212873.907 6   5619514.89821
  20268644.837   -17290930.062 8 -13473441.42023
  20357427.235    -3231400.860 6
  22432050.759    -7731743.902 6  -5957245.79721
  23020149.399    -6843437.879 5  -5269567.66521
 92  5 25 18 26 29.9970000  0  5G18G 2G19G11G16
  21951872.259     7280576.579 6   5672270.11221
  20256044.6344  -17357142.96048 -13525035.86463
  20357509.001    -3230985.335 6  -2517652.83723
  22434175.556    -7720577.738 6  -5948544.93421
  23021362.3604   -6837054.86245  -5264593.99661
 92  5 25 18 26 59.9970000  0  5G18G 2G19G11G16
  21964786.7124    7348438.73346   5725149.59761
  20243499.4074  -17423067.40148 -13576405.53463
  20357623.040    -3230394.762 6  -2517192.68923
  22436394.267    -7708912.988 6  -5939455.55321
  23022640.118    -6830336.713 5  -5259359.18921
 92  5 25 18 27 29.9970000  0  5G18G 2G19G11G16
  21977730.7744    7416464.09046   5778156.25561
  20231007.3924  -17488716.87548 -13627560.95963
  20357770.743    -3229616.022 6  -2516585.91023
  22438708.470    -7696749.196 6  -5929977.32421
  23023985.2284   -6823271.37045  -5253853.83761
 92  5 25 18 27 59.9970000  0  5G18G 2G19G11G16
  21990703.189     7484637.056 6   5831277.93021
  20218561.298   -17554121.487 8 -13678525.56723
  20357953.251    -3228642.808 6  -2515827.59423
  22441118.446    -7684093.409 6  -5920115.72221
  23025394.5174   -6815865.30845  -5248083.00061
 92  5 25 18 28 29.9970000  0  5G18G 2G19G11G16
  22003705.274     7552961.480 6   5884517.63921
  20206156.2984  -17619307.71148 -13729320.01163
  20358173.462    -3227480.516 6  -2514921.94723
  22443622.009    -7670940.846 6  -5909867.01521
  23026869.2354   -6808110.68845  -5242040.54861
 92  5 25 18 28 59.9970000  0  5G18G 2G19G11G16
  22016740.001     7621458.491 6   5937891.82621
  20193791.165   -17684288.385 8 -13779954.27023
  20358430.548    -3226122.500 7  -2513863.78623
  22446219.798    -7657286.185 6  -5899227.06821
  23028410.595    -6800014.720 5  -5235732.12121
 92  5 25 18 29 29.9970000  0  5G18G 2G19G11G16
  22029805.4154    7690115.56146   5991390.72761
  20181461.142   -17749082.087 8 -13830442.85023
  20358730.001    -3224576.867 6  -2512659.43023
  22448912.0174   -7643136.30046  -5888201.21861
  23030010.1424   -6791610.81345  -5229183.75061
 92  5 25 18 29 59.9970000  0  5G18G 2G19G11G16
  22042901.048     7758934.114 6   6045015.46221
  20169168.001   -17813681.268 8 -13880779.85023
  20359057.298    -3222861.107 6  -2511322.51323
  22451697.423    -7628492.385 6  -5876790.41521
  23031668.2124   -6782909.77345  -5222403.83261
 92  5 25 18 30 29.9970000  0  5G18G 2G19G11G16
  22056027.3144    7827912.14746   6098764.46261
  20156914.7674  -17878072.03348 -13930954.44463
  20359411.204    -3220980.888 7  -2509857.44223
  22454577.821    -7613358.770 6  -5864998.03721
  23033378.7904   -6773919.09345  -5215398.21961
 92  5 25 18 30 59.9970000  0  5G18G 2G19G11G16
  22069180.3374    7897035.09646   6152626.38261
  20144703.282   -17942244.691 8 -13980959.08223
  20359804.126    -3218917.879 7  -2508249.93723
  22457551.892    -7597740.721 6  -5852828.16821
  23035143.0404   -6764653.86545  -5208178.69061
 92  5 25 18 31 29.9970000  0  5G18G 2G19G11G16
  22082357.8844    7966277.86546   6206581.67161
  20132536.251   -18006179.486 8 -14030778.37823
  20360235.353    -3216656.399 7  -2506487.77623
  22460614.845    -7581639.358 6  -5840281.69321
  23036955.181    -6755105.792 5  -5200738.75421
 92  5 25 18 31 59.9960000  0  5G18G 2G19G11G16
  22095558.645     8035651.630 6   6260639.04221
  20120423.527   -18069835.757 8 -14080380.64223
  20360707.691    -3214169.059 7  -2504549.62023
  22463773.012    -7565045.353 6  -5827351.33221
  23038833.379    -6745242.308 5  -5193053.05521
 92  5 25 18 32 29.9960000  0  5G18G 2G19G11G16
  22108786.481     8105161.171 6   6314802.20821
  20108361.863   -18133222.279 8 -14129772.70023
  20361228.504    -3211434.743 7  -2502419.01523
  22467023.262    -7547959.966 6  -5814038.08921
  23040771.1604   -6735062.39045  -5185120.77961
 92  5 25 18 32 59.9960000  0  5G18G 2G19G11G16
  22122039.012     8174805.731 6   6369070.58621
  20096350.106   -18196343.114 8 -14178957.73923
  20361794.176    -3208450.265 7  -2500093.48523
  22470367.512    -7530387.362 6  -5800345.17921
  23042771.1914   -6724573.65045  -5176947.86061
 92  5 25 18 33 29.9960000  0  5G18G 2G19G11G16
  22135321.4184    8244597.87046   6423453.94961
  20084388.332   -18259202.733 8 -14227939.22823
  20362408.981    -3205230.610 7  -2497584.69623
  22473804.176    -7512327.431 6  -5786272.53921
  23044827.1134   -6713761.40945  -5168522.87761
 92  5 25 18 33 59.9960000  0  5G18G 2G19G11G16
  22148632.2704    8314552.22346   6477963.72061
  20072472.035   -18321823.008 8 -14276734.21523
  20363062.707    -3201794.368 7  -2494907.13523
  22477333.902    -7493779.637 6  -5771819.74821
  23046943.559    -6702636.608 5  -5159854.33121
 92  5 25 18 34 29.9960000  0  5G18G 2G19G11G16
  22161975.8244    8384673.80746   6532603.79261
  20060600.9104  -18384202.37348 -14325341.49163
  20363760.363    -3198134.012 7  -2492054.95123
  22480958.8404   -7474725.86946  -5756972.69461
  23049121.504    -6691197.177 5  -5150940.61321
 92  5 25 18 34 59.9960000  0  5G18G 2G19G11G16
  22175351.8164    8454961.37846   6587373.20261
  20048777.965   -18446335.724 8 -14373757.06923
  20364496.566    -3194261.780 7  -2489037.66023
  22484681.2464   -7455167.08146  -5741732.10961
  23051357.6914   -6679438.27745  -5141777.95761
 92  5 25 18 35 29.9960000  0  5G18G 2G19G11G16
  22188759.996     8525426.997 6   6642281.36121
  20037000.895   -18508222.100 8 -14421980.19023
  20365273.012    -3190177.246 7  -2485854.94123
  22488501.715    -7435094.176 6  -5726090.92221
  23053656.6604   -6667343.19745  -5132353.34961
 92  5 25 18 35 59.9960000  0  6G18G 2G19G11G16G15
  22202202.0354    8596064.62946   6697323.55061
  20025272.9654  -18569856.82648 -14470007.22863
  20366093.223    -3185880.037 6  -2482506.50223
  22492418.465    -7414509.272 6  -5710050.78121
  23056024.5984   -6654919.66945  -5122672.80861
  24323389.6214         -0.92953
 92  5 25 18 36 29.9960000  0  6G18G 2G19G11G16G15
  22215679.7934    8666887.81346   6752510.33161
  20013598.199   -18631208.677 8 -14517813.84023
  20366957.387    -3181334.834 7  -2478964.82123
  22496436.356    -7393397.474 6  -5693600.06421
  23058455.777    -6642138.081 5  -5112713.26221
  24303964.9104    -102084.91343
 92  5 25 18 36 59.9960000  0  6G18G 2G19G11G16G15
  22229194.9414    8737911.75846   6807853.53561
  20001976.074   -18692277.421 8 -14565399.85423
  20367870.270    -3176528.961 7  -2475220.02423
  22500554.098    -7371753.733 6  -5676734.85321
  23060956.816    -6628989.520 5  -5102467.75721
  24284563.0984    -204049.61943
 92  5 25 18 37 29.9960000  0  6G18G 2G19G11G16G15
  22242747.4964    8809124.76046   6863344.06161
  19990410.754   -18753056.505 8 -14612760.14723
  20368836.895    -3171453.267 6  -2471264.97723
  22504775.3164   -7349576.52546  -5659453.94461
  23063527.7074   -6615486.73645  -5091946.24361
  24265180.9884    -305896.44743
 92  5 25 18 37 59.9960000  0  6G18G 2G19G11G16G15
  22256331.4184    8880509.02846   6918968.03461
  19978905.660   -18813514.622 8 -14659870.34623
  20369858.754    -3166089.002 6  -2467085.07723
  22509097.582    -7326862.614 6  -5641754.83421
  23066158.8164   -6601649.45045  -5081164.05961
  24245825.113     -407617.517 3        -0.39931
 92  5 25 18 38 29.9960000  0  6G18G 2G19G11G16G15
  22269947.7934    8952062.31146   6974723.71661
  19967463.785   -18873644.572 8 -14706724.83423
  20370934.051    -3160428.452 6  -2462674.30423
  22513522.2704   -7303610.57146  -5623636.40661
  23068856.7934   -6587492.39845  -5070132.71961
  24226491.574     -509214.000 4    -79166.37621
 92  5 25 18 38 59.9960000  0  6G18G 2G19G11G16G15
  22283594.426     9023777.484 6   7030605.54121
  19956082.504   -18933453.447 8 -14753329.12623
  20372065.051    -3154491.149 6  -2458047.87123
  22518046.918    -7279826.870 6  -5605103.70621
  23071605.8714   -6573029.22945  -5058862.85361
  24207177.434     -610705.455 3   -158250.48921
 92  5 25 18 39 29.9960000  0  6G18G 2G19G11G16G15
  22297275.2704    9095671.74346   7086626.91361
  19944769.410   -18992900.819 8 -14799651.72823
  20373253.035    -3148256.887 6  -2453190.04623
  22522677.957    -7255493.295 6  -5586142.51821
  23074422.6914   -6558237.26745  -5047336.78161
  24187888.418     -712065.624 3   -237232.38021
 92  5 25 18 39 59.9960000  0  6G18G 2G19G11G16G15
  22310996.0824    9167769.63446   7142806.95961
  19933525.8794  -19051987.56948 -14845693.32763
  20374498.184    -3141714.955 6  -2448092.47523
  22527415.582    -7230599.864 6  -5566745.08721
  23077305.7074   -6543085.47545  -5035530.32661
  24168633.4574    -813272.60943   -316094.86861
 92  5 25 18 40 29.9960000  0  6G18G 2G19G11G16G15
  22324758.8874    9240093.78346   7199163.29261
  19922345.340   -19110739.374 8 -14891473.92823
  20375800.902    -3134865.681 7  -2442755.41523
  22532260.2074   -7205141.64846  -5546907.56161
  23080263.863    -6527534.792 5  -5023413.03921
  24149403.238     -914311.517 3   -394826.40521
 92  5 25 18 40 59.9960000  0  6G18G 2G19G11G16G15
  22338569.332     9312668.702 6   7255715.03121
  19911232.2234  -19169139.07248 -14936980.16563
  20377169.582    -3127664.682 7  -2437144.28623
  22537217.902    -7179088.883 6  -5526606.75421
  23083310.4884   -6511536.28845  -5010946.79961
  24130219.934    -1015132.328 3   -473387.97821
 92  5 25 18 41 29.9960000  0  6G18G 2G19G11G16G15
  22352424.6524    9385482.47846   7312452.89861
  19900184.5824  -19227195.59548 -14982219.00063
  20378607.176    -3120104.782 7  -2431253.49523
  22542288.598    -7152442.322 6  -5505843.25721
  23086438.715    -6495095.755 5  -4998136.14321
  24111079.1844   -1115704.48444   -551755.78261
 92  5 25 18 41 59.9960000  0  6G18G 2G19G11G16G15
  22366325.051     9458529.257 6   7369372.31321
  19889197.6134  -19284930.69848 -15027207.37063
  20380117.832    -3112191.754 6  -2425087.53723
  22547471.332    -7125206.376 6  -5484620.49221
  23089646.949    -6478224.941 5  -4984990.18021
  24091988.3094   -1216029.55443   -629931.07261
 92  5 25 18 42 29.9960000  0  6G18G 2G19G11G16G15
  22380264.863     9531781.219 6   7426451.62221
  19878272.3794  -19342348.07348 -15071948.16263
  20381687.910    -3103932.290 6  -2418651.63323
  22552763.6604   -7097397.46246  -5462951.27261
  23092933.238    -6460959.598 5  -4971536.81121
  24072941.840    -1316125.161 3   -707927.51721
 92  5 25 18 42 59.9960000  0  6G18G 2G19G11G16G15
  22394232.8244    9605184.51646   7483648.85261
  19867401.488   -19399472.350 8 -15116460.56223
  20383315.356    -3095375.679 6  -2411984.18523
  22558155.465    -7069066.270 6  -5440875.07321
  23096282.856    -6443369.022 5  -4957829.99021
  24053927.2624   -1416033.47543   -785778.06061
 92  5 25 18 43 29.9960000  0  6G18G 2G19G11G16G15
  22408228.3244    9678724.61346   7540952.69261
  19856582.465   -19456326.059 8 -15160762.11723
  20384991.215    -3086573.205 6  -2405125.15923
  22563637.2854   -7040253.35346  -5418423.51161
  23099683.1684   -6425498.37345  -4943904.95961
  24034944.3714   -1515793.48643   -863513.04561
 92  5 25 18 43 59.9960000  0  6G18G 2G19G11G16G15
  22422243.4184    9752377.64546   7598344.50961
  19845811.3484  -19512933.73748 -15204871.97363
  20386705.543    -3077561.449 6  -2398103.05623
  22569204.6604   -7010998.28246  -5395627.42061
  23103133.3404   -6407377.59945  -4929785.01161
  24015981.3634   -1615453.40343   -941170.04161
 92  5 25 18 44 29.9960000  0  6G18G 2G19G11G16G15
  22436272.2934    9826096.20846   7655787.40561
  19835078.0514  -19569332.49848 -15248819.04463
  20388451.582    -3068381.548 6  -2390949.92623
  22574846.4024   -6981348.96046  -5372524.12161
  23106619.6454   -6389049.30745  -4915503.37361
  23997027.223    -1715046.179 3  -1018774.66521
 92  5 25 18 44 59.9960000  0  6G18G 2G19G11G16G15
  22450313.074     9899881.389 6   7713282.20321
  19824381.926   -19625542.221 8 -15292618.81123
  20390226.668    -3059051.309 6  -2383679.65423
  22580560.4494   -6951315.94946  -5349121.83961
  23110146.5984   -6370520.36845  -4901065.38161
  23978089.5664   -1814578.08843  -1096331.85961
 92  5 25 18 45 29.9960000  0  6G18G 2G19G11G16G15
  22464362.754     9973708.350 6   7770809.56321
  19813716.043   -19681588.936 8 -15336291.54823
  20392027.887    -3049585.936 7  -2376304.08023
  22586346.9884   -6920912.54846  -5325430.95361
  23113705.6604   -6351816.57845  -4886491.14461
  23959155.543    -1914069.364 3  -1173857.40421
 92  5 25 18 45 59.9960000  0  6G18G 2G19G11G16G15
  22478412.113    10047541.788 5   7828341.94621
  19803079.363   -19737488.180 8 -15379849.36723
  20393853.715    -3039987.317 6  -2368824.68523
  22592202.3794   -6890144.65146  -5301456.03861
  23117294.973    -6332959.366 5  -4871797.36621
  23940230.0044   -2013527.15643  -1251356.84961
 92  5 25 18 46 29.9960000  0  6G18G 2G19G11G16G15
  22492462.441    10121372.199 5   7885871.96721
  19792469.152   -19793243.500 8 -15423295.05023
  20395706.691    -3030258.292 7  -2361243.67023
  22598127.5664   -6859012.87946  -5277197.58561
  23120908.2704   -6313962.21844  -4856994.51061
  23921310.2154   -2112947.04543  -1328826.79461
 92  5 25 18 46 59.9960000  0  6G18G 2G19G11G16G15
  22506512.8164   10195209.07345   7943407.02961
  19781889.371   -19848843.237 8 -15466619.48923
  20397585.387    -3020385.832 7  -2353550.89523
  22604123.1844   -6827506.70346  -5252647.37461
  23124551.2544   -6294819.09045  -4842077.95661
  23902401.4344   -2212313.20143  -1406254.83061
 92  5 25 18 47 29.9960000  0  6G18G 2G19G11G16G15
  22520561.926    10269037.371 5   8000935.40521
  19771339.590   -19904284.397 8 -15509820.36223
  20399491.879    -3010364.121 6  -2345741.81123
  22610187.3324   -6795634.54546  -5227811.99061
  23128219.9414   -6275536.45245  -4827052.66061
  23883504.223    -2311615.975 3  -1483633.48221
 92  5 25 18 47 59.9960000  0  6G18G 2G19G11G16G15
  22534615.5274   10342887.35945   8058480.67261
  19760824.0274  -19959541.76348 -15552878.03063
  20401434.316    -3000154.292 7  -2337786.14823
  22616325.2464   -6763378.09046  -5202677.15361
  23131924.270    -6256072.426 5  -4811886.04721
  23864627.7314   -2410823.87243  -1560938.23561
 92  5 25 18 48 29.9960000  0  6G18G 2G19G11G16G15
  22548676.6214   10416779.87445   8116059.08661
  19750346.7464  -20014599.83548 -15595780.39763
  20403416.926    -2989747.629 6  -2329677.09923
  22622538.2314   -6730735.81746  -5177241.68761
  23135669.020    -6236401.690 4  -4796558.33821
  23845768.004    -2509926.835 3  -1638161.22021
 92  5 25 18 48 59.9960000  0  6G18G 2G19G11G16G15
  22562746.9184   10490722.84745   8173676.81461
  19739907.551   -20069455.208 8 -15638524.82023
  20405439.027    -2979124.100 6  -2321399.06423
  22628823.5514   -6697703.75046  -5151502.49061
  23139454.199    -6216506.424 4  -4781055.68121
  23826929.0044   -2608920.32643  -1715298.88761
 92  5 25 18 49 29.9960000  0  6G18G 2G19G11G16G15
  22576828.762    10564722.389 5   8231338.62021
  19729509.551   -20124094.720 8 -15681101.03723
  20407501.434    -2968273.860 7  -2312944.36823
  22635184.9184   -6664272.43646  -5125452.18661
  23143284.5594   -6196369.83044  -4765365.00061
  23808113.301    -2707805.495 4  -1792352.14021
 92  5 25 18 49 59.9960000  0  6G18G 2G19G11G16G15
  22590922.2624   10638783.78445   8289048.62961
  19719154.4814  -20178515.18948 -15723506.57863
  20409609.973    -2957203.020 6  -2304317.78023
  22641623.2074   -6630438.76846  -5099088.36861
  23147161.801    -6175989.704 4  -4749484.52021
  23789313.8014   -2806588.87643  -1869326.08361
 92  5 25 18 50 29.9960000  0  6G18G 2G19G11G16G15
  22605026.6454   10712899.06645   8346800.62061
  19708839.9734  -20232717.10848 -15765741.82363
  20411753.426    -2945932.193 6  -2295535.36223
  22648137.2624   -6596205.92346  -5072413.49161
  23151083.3794   -6155393.10044  -4733435.38561
  23770533.4344   -2905275.71843  -1946224.77761
 92  5 25 18 50 59.9960000  0  6G18G 2G19G11G16G15
  22619138.457    10787060.178 5   8404588.32921
  19698566.3794  -20286705.57848 -15807810.73363
  20413936.106    -2934467.784 6  -2286602.10323
  22654730.059    -6561571.872 6  -5045425.98821
  23155039.410    -6134606.657 4  -4717238.30521
  23751777.004    -3003852.965 4  -2023038.12421
 92  5 25 18 51 29.9960000  0  6G18G 2G19G11G16G15
  22633260.5824   10861274.57245   8462417.54061
  19688336.621   -20340463.046 8 -15849699.64923
  20416154.387    -2922807.823 6  -2277516.46823
  22661398.7154   -6526521.66946  -5018114.21161
  23159029.027    -6113638.913 4  -4700899.96321
  23733043.6914   -3102289.59144  -2099741.87661
 92  5 25 18 51 59.9960000  0  6G18G 2G19G11G16G15
  22647393.3874   10935538.72845   8520285.53161
  19678149.6844  -20393995.10248 -15891412.92563
  20418410.668    -2910961.084 6  -2268285.28923
  22668147.8484   -6491059.15346  -4990481.15361
  23163049.340    -6092500.652 4  -4684428.71721
  23714343.824    -3200570.198 4  -2176324.03021
 92  5 25 18 52 29.9960000  0  6G18G 2G19G11G16G15
  22661535.738    11009851.195 5   8578191.14821
  19668005.8094  -20447303.12048 -15932951.62263
  20420704.574    -2898914.857 6  -2258898.65923
  22674974.3014   -6455183.35846  -4962526.07661
  23167105.574    -6071196.615 4  -4667828.32421
  23695673.426    -3298678.064 4  -2252771.58921
 92  5 25 18 52 59.9960000  0  6G18G 2G19G11G16G15
  22675687.262    11084218.870 5   8636139.80821
  19657904.809   -20500385.184 8 -15974314.24423
  20423037.668    -2886633.382 7  -2249328.71623
  22681882.1994   -6418884.73346  -4934241.51661
  23171193.5664   -6049703.06544  -4651080.26761
  23677039.5824   -3396589.35844  -2329065.98061
 92  5 25 18 53 29.9960000  0  6G18G 2G19G11G16G15
  22689847.5984   11158632.35245   8694124.13861
  19647843.7234  -20553253.30548 -16015510.15963
  20425421.551    -2874107.149 7  -2239568.05223
  22688868.2074   -6382171.06346  -4905633.53961
  23175325.606    -6027994.855 4  -4634164.95421
  23658443.348    -3494310.725 4  -2405212.38321
 92  5 25 18 53 59.9960000  0  6G18G 2G19G11G16G15
  22704021.371    11233108.271 5   8752157.12121
  19637827.426   -20605893.418 8 -16056528.40723
  20427853.652    -2861314.214 7  -2229599.57323
  22695932.988    -6345035.794 6  -4876697.05221
  23179505.418    -6006042.816 4  -4617059.62021
  23639886.316    -3591829.437 4  -2481200.84721
 92  5 25 18 54 29.9950000  0  6G18G 2G19G11G16G15
  22718206.3274   11307652.31045   8810243.19161
  19627856.265   -20658288.616 8 -16097355.80024
  20430348.483    -2848235.136 6  -2219408.13322
  22703082.4994   -6307477.92746  -4847431.26061
  23183732.0154   -5983840.94544  -4599759.63761
  23621370.819    -3689133.344 4  -2557021.91421
 92  5 25 18 54 59.9950000  0  6G18G 2G19G11G16G15
  22732404.991    11382264.135 5   8868382.07121
  19617933.7264  -20710435.20248 -16137989.48063
  20432887.819    -2834875.760 6  -2208998.27122
  22710307.741    -6269497.214 6  -4817835.99621
  23188003.585    -5961384.849 4  -4582261.55621
  23602895.265    -3786219.903 4  -2632673.65721
 92  5 25 18 55 29.9950000  0  6G18G 2G19G11G16G15
  22746616.0464   11456948.16645   8926577.22561
  19608061.312   -20762311.278 8 -16178412.37523
  20435479.468    -2821255.995 6  -2198385.49922
  22717617.2264   -6231091.36546  -4787909.44961
  23192323.733    -5938676.414 4  -4564566.80921
  23584464.7334   -3883081.86444  -2708150.34461
 92  5 25 18 55 59.9950000  0  6G18G 2G19G11G16G15
  22760842.9994   11531705.96745   8984829.85361
  19598243.054   -20813907.725 8 -16218617.37423
  20438117.523    -2807392.279 6  -2187582.65022
  22725005.194    -6192267.361 6  -4757657.07721
  23196690.812    -5915744.443 4  -4546697.93021
  23566074.5464   -3979724.84644  -2783456.45161
 92  5 25 18 56 29.9950000  0  6G18G 2G19G11G16G15
  22775080.226    11606523.903 5   9043129.35321
  19588473.4994  -20865247.54748 -16258622.40763
  20440801.116    -2793296.964 6  -2176599.33422
  22732473.366    -6153028.329 6  -4727081.29421
  23201090.796    -5892604.882 4  -4528667.27821
  23547720.319    -4076159.102 4  -2858599.87121
 92  5 25 18 56 59.9950000  0  6G18G 2G19G11G16G15
  22789330.9684   11681409.44945   9101481.50261
  19578750.2654  -20916347.52248 -16298440.54963
  20443524.351    -2778970.737 6  -2165436.08422
  22740019.476    -6113369.061 6  -4696178.06221
  23205535.452    -5869258.048 4  -4510475.08921
  23529409.030    -4172389.021 5  -2933584.08221
 92  5 25 18 57 29.9950000  0  6G18G 2G19G11G16G15
  22803596.288    11756372.336 5   9159893.95621
  19569068.6084  -20967220.14248 -16338081.53063
  20446297.468    -2764407.179 6  -2154087.89922
  22747645.632    -6073291.578 6  -4664948.94221
  23210016.991    -5845699.986 4  -4492118.35021
  23511135.101    -4268427.782 5  -3008419.38121
 92  5 25 18 57 59.9950000  0  6G18G 2G19G11G16G15
  22817872.765    11831397.164 5   9218354.65121
  19559426.8664  -21017888.97748 -16377563.71763
  20449114.999    -2749595.104 6  -2142546.06622
  22755349.765    -6032806.631 6  -4633402.33021
  23214536.132    -5821946.163 3  -4473609.04621
  23492893.929    -4364285.490 5  -3083113.55421
 92  5 25 18 58 29.9950000  0  6G18G 2G19G11G16G15
  22832161.1324   11906480.15345   9276860.65061
  19549820.2884  -21068370.77648 -16416900.16763
  20451983.671    -2734524.130 6  -2130802.49722
  22763133.030    -5991921.306 6  -4601543.73021
  23219095.655    -5797997.527 4  -4454947.94221
  23474688.2964   -4459954.22045  -3157660.47961
 92  5 25 18 58 59.9950000  0  6G18G 2G19G11G16G15
  22846460.3354   11981632.32445   9335420.58461
  19540255.0074  -21118635.32648 -16456067.33263
  20454904.312    -2719175.833 6  -2118842.83522
  22770987.968    -5950629.187 6  -4569368.14221
  23223692.819    -5773839.762 4  -4436123.88221
  23456523.1944   -4555410.82545  -3232042.12861
 92  5 25 18 59 29.9950000  0  6G18G 2G19G11G16G15
  22860770.8194   12056830.28745   9394016.17861
  19530736.0934  -21168659.20848 -16495046.96664
  20457876.960    -2703551.992 6  -2106668.46322
  22778923.1484   -5908932.74446  -4536877.51761
  23228326.468    -5749480.407 4  -4417142.76921
  23438402.577    -4650633.149 5  -3306241.21521
 92  5 25 18 59 59.9950000  0  6G18G 2G19G11G16G15
  22875083.7884   12132043.56845   9452623.71161
  19521261.3514  -21218448.73148 -16533843.98063
  20460899.046    -2687673.342 6  -2094295.53222
  22786930.194    -5866852.110 6  -4504087.51421
  23232998.054    -5724956.769 4  -4398033.58521
  23420327.382    -4745622.092 5  -3380258.45421
 92  5 25 19  0 29.9950000  0  6G18G 2G19G11G16G15
  22889403.2264   12207288.66345   9511256.02461
  19511835.3194  -21267984.15048 -16572442.98763
  20463967.976    -2671541.884 6  -2081725.61922
  22795012.429    -5824381.493 6  -4470993.62421
  23237693.6944   -5700259.08544  -4378788.83461
  23402299.7804   -4840352.81045  -3454074.49261
 92  5 25 19  0 59.9950000  0  6G18G 2G19G11G16G15
  22903724.999    12282552.359 5   9569902.83821
  19502459.601   -21317253.379 8 -16610834.57123
  20467086.523    -2655172.702 6  -2068970.46522
  22803167.210    -5781525.984 6  -4437599.80721
  23242425.030    -5675404.342 3  -4359421.66021
  23384320.9054   -4934834.57245  -3527696.52361
 92  5 25 19  1 29.9950000  0  6G18G 2G19G11G16G15
  22918052.4444   12357841.00845   9628569.08561
  19493132.7264  -21366265.73348 -16649025.99063
  20470245.421    -2638570.261 6  -2056033.55522
  22811396.0464   -5738292.21346  -4403911.25761
  23247182.9914   -5650406.28244  -4339942.80361
  23366388.0854   -5029073.71245  -3601129.48861
 92  5 25 19  1 59.9950000  0  6G18G 2G19G11G16G15
  22932387.265    12433176.099 5   9687271.53221
  19483852.9294  -21415031.94448 -16687025.61463
  20473447.374    -2621726.015 6  -2042908.22022
  22819693.187    -5694684.827 6  -4369931.57921
  23251965.3194   -5625255.88243  -4320345.28861
  23348498.6244   -5123082.79345  -3674383.19861
 92  5 25 19  2 29.9950000  0  6G18G 2G19G11G16G15
  22946728.757    12508537.637 5   9745994.55421
  19474616.7734  -21463568.66448 -16724846.41963
  20476699.523    -2604649.136 6  -2029601.61222
  22828059.249    -5650718.461 6  -4335672.17221
  23256785.780    -5599941.964 4  -4300620.31421
  23330649.405    -5216878.423 5  -3747470.61121
 92  5 25 19  2 59.9950000  0  6G18G 2G19G11G16G15
  22961077.093    12583927.951 5   9804740.00221
  19465425.6084  -21511869.17548 -16762483.17563
  20479996.257    -2587322.277 6  -2016100.21322
  22836496.148    -5606381.162 6  -4301123.73121
  23261641.179    -5574446.179 4  -4280753.65721
  23312844.187    -5310451.891 5  -3820384.90621
 92  5 25 19  3 29.9950000  0  6G18G 2G19G11G16G15
  22975427.0854   12659343.49844   9863505.12361
  19456275.6944  -21559952.07148 -16799950.35963
  20483341.819    -2569739.015 6  -2002399.02422
  22845004.624    -5561677.794 6  -4266290.03321
  23266527.6874   -5548756.97644  -4260736.28061
  23295080.226    -5403794.701 5  -3893119.47721
 92  5 25 19  3 59.9950000  0  6G18G 2G19G11G16G15
  22989776.6164   12734755.40044   9922267.37161
  19447163.9444  -21607831.39648 -16837258.90963
  20486735.273    -2551914.356 6  -1988509.73122
  22853578.9444   -5516621.64746  -4231181.44661
  23271449.335    -5522885.254 4  -4240576.68721
  23277358.7024   -5496916.36245  -3965681.71161
 92  5 25 19  4 29.9950000  0  6G18G 2G19G11G16G15
  23004121.3584   12810135.38744   9981004.74961
  19438090.8124  -21655512.53548 -16874413.02663
  20490172.5544   -2533855.82246  -1974438.20862
  22862217.5304   -5471221.98646  -4195805.19061
  23276402.4994   -5496853.42043  -4220292.31561
  23259681.0234   -5589814.36445  -4038069.67261
 92  5 25 19  4 59.9950000  0  6G18G 2G19G11G16G15
  23018464.351    12885497.015 4  10039727.83721
  19429055.6944  -21702994.75248 -16911412.14463
  20493653.4524   -2515565.97646  -1960186.43262
  22870921.726    -5425482.955 6  -4160164.48621
  23281378.6244   -5470696.28743  -4199910.31861
  23242044.0234   -5682491.52645  -4110285.51561
 92  5 25 19  5 29.9950000  0  6G18G 2G19G11G16G15
  23032800.9134   12960839.31944  10098435.87561
  19420055.5934  -21750289.45448 -16948265.13963
  20497173.7334   -2497049.90946  -1945758.38962
  22879687.3744   -5379415.52846  -4124267.90061
  23286376.8584   -5444438.28943  -4179449.72361
  23224452.663    -5774952.785 5  -4182333.14221
 92  5 25 19  5 59.9950000  0  6G18G 2G19G11G16G15
  23047135.7024   13036168.09345  10157133.35661
  19411094.8194  -21797378.54948 -16984957.92163
  20500742.304    -2478300.488 6  -1931148.50322
  22888519.179    -5333005.009 6  -4088103.96121
  23291396.8824   -5418070.79044  -4158903.82161
  23206903.1014   -5867175.49645  -4254194.88061
 92  5 25 19  6 29.9950000  0  6G18G 2G19G11G16G15
  23061466.304    13111484.988 5  10215821.57321
  19402171.3664  -21844271.59648 -17021497.94463
  20504349.3584   -2459335.91046  -1916370.96562
  22897415.0304   -5286264.55745  -4051682.94061
  23296431.304    -5391603.472 4  -4138280.09621
  23189397.210    -5959154.941 5  -4325867.09021
 92  5 25 19  6 59.9950000  0  6G18G 2G19G11G16G15
  23075800.671    13186806.581 5  10274513.46421
  19393284.1634  -21890976.39848 -17057891.27864
  20507999.991    -2440169.492 6  -1901436.13422
  22906369.241    -5239199.599 5  -4015009.06021
  23301488.3904   -5365035.99943  -4117578.35561
  23171940.8194   -6050888.88545  -4397347.99461
 92  5 25 19  7 29.9950000  0  6G18G 2G19G11G16G15
  23090130.171    13262104.478 5  10333186.85321
  19384431.546   -21937495.343 8 -17094139.78324
  20511683.187    -2420812.830 6  -1886353.07322
  22915386.1714   -5191815.83745  -3978086.77061
  23306565.9914   -5338351.63143  -4096785.55361
  23154535.202    -6142371.219 5  -4468632.81721
 92  5 25 19  7 59.9950000  0  6G18G 2G19G11G16G15
  23104450.265    13337367.723 5  10391833.28621
  19375616.4214  -21983817.28448 -17130234.78763
  20515401.507    -2401269.430 6  -1871124.49722
  22924464.280    -5144118.162 5  -3940919.85721
  23311667.476    -5311540.908 3  -4075894.26221
  23137172.9134   -6233603.74045  -4539722.98861
 92  5 25 19  8 29.9950000  0  6G18G 2G19G11G16G15
  23118770.601    13412610.886 5  10450464.04221
  19366841.2574  -22029931.29148 -17166167.76863
  20519159.6944   -2381524.78446  -1855739.11462
  22933600.2334   -5096108.25245  -3903509.65361
  23316792.507    -5284608.732 3  -4054908.33021
  23119858.241    -6324591.678 5  -4610622.59921
 92  5 25 19  8 59.9950000  0  6G18G 2G19G11G16G15
  23133078.9374   13487803.93945  10509055.75761
  19358104.3824  -22075843.93448 -17201943.83263
  20522957.757    -2361566.907 6  -1840187.57222
  22942793.2264   -5047796.21545  -3865864.01761
  23321938.9604   -5257576.70344  -4033844.62161
  23102587.1944   -6415344.40245  -4681338.91561
 92  5 25 19  9 29.9950000  0  6G18G 2G19G11G16G15
  23147375.796    13562937.703 5  10567601.26321
  19349407.0854  -22121550.77748 -17237559.55963
  20526797.444    -2341377.872 6  -1824455.90622
  22952044.5464   -4999181.77245  -3827982.75461
  23327098.937    -5230446.288 3  -4012704.21121
  23085364.4834   -6505857.19245  -4751868.29261
 92  5 25 19  9 59.9950000  0  6G18G 2G19G11G16G15
  23161669.4444   13638036.81645  10626119.74561
  19340748.2574  -22167052.84548 -17273015.70263
  20530687.749    -2320942.973 6  -1808532.65622
  22961353.3824   -4950263.14945  -3789864.44761
  23332281.593    -5203226.197 3  -3991493.95121
  23068188.312    -6596119.615 5  -4822202.57121
 92  5 25 19 10 29.9950000  0  6G18G 2G19G11G16G15
  23175953.358    13713103.622 5  10684613.09021
  19332127.3514  -22212355.11748 -17308316.16563
  20534620.1634   -2300267.45346  -1792421.91462
  22970721.0854   -4901041.60945  -3751510.11461
  23337476.5074   -5175930.42344  -3970224.72361
  23051061.0304   -6686123.37645  -4892335.28561
 92  5 25 19 10 59.9950000  0  6G18G 2G19G11G16G15
  23190230.6484   13788118.08245  10743065.58561
  19323542.1944  -22257470.04748 -17343470.63563
  20538596.382    -2279375.037 6  -1776142.15922
  22980141.1794   -4851529.52245  -3712929.40261
  23342682.062    -5148564.439 4  -3948900.76721
  23033978.640    -6775878.637 5  -4962274.37521
 92  5 25 19 11 29.9950000  0  6G18G 2G19G11G16G15
  23204496.733    13863096.465 4  10801490.01921
  19314993.5234  -22302394.02248 -17378476.31663
  20542612.382    -2258268.747 6  -1759695.74922
  22989620.1944   -4801722.94745  -3674119.20761
  23347907.0774   -5121105.32644  -3927504.26261
  23016946.8044   -6865383.80445  -5032018.55761
 92  5 25 19 11 59.9950000  0  6G18G 2G19G11G16G15
  23218755.343    13938019.586 4  10859871.33721
  19306479.8274  -22347134.53448 -17413339.04163
  20546667.210    -2236961.492 6  -1743092.74222
  22999151.9374   -4751631.30545  -3635086.88861
  23353150.343    -5093561.367 4  -3906041.64621
  22999960.5934   -6954647.23145  -5101574.37361
 92  5 25 19 12 29.9950000  0  6G18G 2G19G11G16G15
  23232998.257    14012872.976 4  10918198.32321
  19298000.2494  -22391693.35348 -17448060.18363
  20550761.468    -2215448.333 6  -1726329.29122
  23008738.655    -4701257.472 5  -3595834.68821
  23358407.733    -5065929.999 3  -3884510.91321
  22983022.0234   -7043661.46445  -5170936.02561
 92  5 25 19 12 59.9950000  0  7G18G 2G19G11G16G15G13
  23247233.929    14087667.508 4  10976479.46221
  19289558.1084  -22436059.66348 -17482631.31863
  20554898.780    -2193697.403 6  -1709380.55322
  23018379.030    -4650592.485 5  -3556355.58421
  23363680.9524   -5038203.49843  -3862906.03361
  22966133.429    -7132410.397 5  -5240090.94721
  23518837.1164         -0.98853
 92  5 25 19 13 29.9950000  0  7G18G 2G19G11G16G15G13
  23261449.4604   14162384.17944  11034699.90761
  19281146.6484  -22480260.30648 -17517073.36863
  20559085.671    -2171716.743 6  -1692252.80622
  23028071.843    -4599658.004 5  -3516666.51721
  23368971.913    -5010417.086 4  -3841254.46321
  22949296.866    -7220892.482 5  -5309037.92621
  23488632.0854    -158733.77843
 92  5 25 19 13 59.9950000  0  7G18G 2G19G11G16G15G13
  23275658.132    14237036.477 4  11092870.21121
  19272768.4214  -22524286.06148 -17551379.14063
  20563312.413    -2149500.173 6  -1674941.23122
  23037816.3274   -4548443.92545  -3476759.55361
  23374269.437    -4982581.730 3  -3819564.78021
  22932513.4684   -7309086.40645  -5377760.38561
  23458410.1164    -317551.26743
 92  5 25 19 14 29.9950000  0  7G18G 2G19G11G16G15G13
  23289852.1554   14311627.70744  11150992.89861
  19264422.9834  -22568144.60648 -17585554.62963
  20567579.023    -2127066.373 6  -1657460.38822
  23047615.054    -4496959.305 5  -3436641.80721
  23379572.7884   -4954710.07943  -3797846.80461
  22915785.819    -7396998.900 5  -5446263.53121
  23428171.0304    -476456.35343
 92  5 25 19 14 59.9950000  0  7G18G 2G19G11G16G15G13
  23304034.562    14386160.652 4  11209070.17821
  19256109.1404  -22611835.64948 -17619599.58863
  20571889.7964   -2104424.99546  -1639817.77562
  23057464.405    -4445199.659 5  -3396309.73421
  23384882.765    -4926798.401 3  -3776097.66421
  22899106.593    -7484633.015 5  -5514549.77021
  23397915.3984    -635439.28143
 92  5 25 19 15 29.9940000  0  7G18G 2G19G11G16G15G13
  23318204.1904   14460625.06244  11267094.03761
  19247823.1504  -22655376.17248 -17653527.26163
  20576232.8854   -2081601.78446  -1622033.47562
  23067362.6974   -4393174.58245  -3355770.83661
  23390204.963    -4898837.513 3  -3754310.15021
  22882484.7754   -7571989.34445  -5582619.55861
  23367648.1974    -794496.43943
 92  5 25 19 15 59.9940000  0  7G18G 2G19G11G16G15G13
  23332361.7834   14535013.57444  11325058.78661
  19239564.7524  -22698772.81048 -17687342.81063
  20580609.072    -2058605.575 6  -1604114.37922
  23077313.166    -4340889.352 5  -3315029.22421
  23395536.557    -4870816.981 3  -3732476.19921
  22865909.4864   -7659090.87245  -5650490.78361
  23337364.0964    -953641.54543
 92  5 25 19 16 29.9940000  0  7G18G 2G19G11G16G15G13
  23346498.518    14609302.464 4  11382945.87521
  19231334.2834  -22742026.07148 -17721046.64663
  20585018.940    -2035436.055 6  -1586060.25322
  23087310.713    -4288358.285 5  -3274096.05221
  23400878.986    -4842740.007 3  -3710598.25721
  22849381.697    -7745936.311 5  -5718162.47321
  23307063.9324   -1112875.64343
 92  5 25 19 16 59.9940000  0  7G18G 2G19G11G16G15G13
  23360615.393    14683485.702 4  11440750.64621
  19223132.4324  -22785126.86248 -17754631.67463
  20589464.752    -2012072.480 6  -1567854.92122
  23097353.0804   -4235578.95345  -3232969.42561
  23406234.5024   -4814596.79743  -3688668.66761
  22832910.8774   -7832503.85945  -5785617.60961
  23276746.8224   -1272190.64143
 92  5 25 19 17 29.9940000  0  7G18G 2G19G11G16G15G13
  23374714.4244   14757579.81444  11498485.97461
  19214963.9554  -22828055.07148 -17788082.22263
  20593950.6354   -1988499.85546  -1549486.69662
  23107448.8614   -4182545.55045  -3191644.81361
  23411605.4944   -4786383.08243  -3666684.16261
  22816493.768    -7918777.223 5  -5852843.51121
  23246415.150    -1431574.814 3
 92  5 25 19 17 59.9940000  0  7G18G 2G19G11G16G15G13
  23388792.697    14831562.324 4  11556134.31821
  19206826.9474  -22870811.31748 -17821398.77363
  20598472.299    -1964725.189 6  -1530961.02922
  23117585.3384   -4129273.01045  -3150133.86661
  23416979.471    -4758131.695 3  -3644670.27621
  22800128.596    -8004770.087 5  -5919850.85121
  23216071.229    -1591037.556 3        -0.04031
 92  5 25 19 18 29.9940000  0  7G18G 2G19G11G16G15G13
  23402853.533    14905444.583 4  11613704.56321
  19198724.9004  -22913388.91948 -17854576.11463
  20603035.400    -1940747.961 6  -1512277.52222
  23127767.2054   -4075757.80845  -3108433.81461
  23422365.3614   -4729845.95343  -3622629.69261
  22783820.4554   -8090472.64345  -5986631.96261
  23185713.1274   -1750569.49643   -124310.34261
 92  5 25 19 18 59.9940000  0  7G18G 2G19G11G16G15G13
  23416894.3224   14979225.41444  11671195.77461
  19190654.2134  -22955801.07748 -17887624.54963
  20607635.682    -1916570.662 6  -1493438.11422
  23137994.6504   -4022009.24045  -3066551.94061
  23427750.5024   -4701540.05843  -3600573.37861
  22767562.7914   -8175904.79945  -6053202.37061
  23155338.025    -1910173.445 3
 92  5 25 19 19 29.9940000  0  7G18G 2G19G11G16G15G13
  23430914.9084   15052913.75844  11728614.90161
  19182615.4944  -22998045.78548 -17920542.49463
  20612279.346    -1892186.839 6  -1474437.78722
  23148266.783    -3968025.903 5  -3024487.11421
  23433138.0884   -4673226.36244
  22751354.8384   -8261075.86045  -6119569.32261
  23124954.854    -2069842.125 3
 92  5 25 19 19 59.9940000  0  7G18G 2G19G11G16G15G13
  23444918.900    15126492.589 4  11785948.72021
  19174605.3074  -23040138.52848 -17953342.03463
  20616957.9164   -1867598.64046  -1455278.20962
  23158583.8224   -3913818.30445  -2982247.53861
  23438527.682    -4644910.680 3
  22735197.143    -8345986.429 5  -6185733.29521
  23094557.5964   -2229580.54342
 92  5 25 19 20 29.9940000  0  7G18G 2G19G11G16G15G13
  23458900.354    15199973.513 4  11843206.22221
  19166625.2364  -23082075.52748 -17986020.20763
  20621675.6504   -1842797.74246  -1435952.90062
  23168940.5184   -3859386.14745  -2939832.97561
  23443920.057    -4616584.661 4        -0.49031
  22719091.4634   -8430619.13145  -6251680.74161
  23064150.799    -2389382.312 3
 92  5 25 19 20 59.9940000  0  7G18G 2G19G11G16G15G13
  23472867.8154   15273365.52244  11900394.44361
  19158676.9794  -23123843.55948 -18018566.72363
  20626440.3154   -1817760.61246  -1416443.51262
  23179345.0804   -3804719.49545  -2897235.71161
  23449311.8154   -4588245.51543     22081.75461
  22703045.291    -8514954.603 5  -6317396.56821
  23033730.893    -2549232.281 3        -0.31931
 92  5 25 19 21 29.9940000  0  7G18G 2G19G11G16G15G13
  23486812.916    15346652.077 4  11957500.47821
  19150757.1664  -23165461.25948 -18050996.09463
  20631245.5654   -1792518.06446  -1396774.05562
  23189789.486    -3749835.216 5  -2854468.86321
  23454705.072    -4559900.493 4     44168.58821
  22687052.682    -8598986.161 5  -6382875.58321
  23003301.877    -2709141.135 3
 92  5 25 19 21 59.9940000  0  7G18G 2G19G11G16G15G13
  23500741.2754   15419842.10944  12014531.28361
  19142868.9554  -23206914.14348 -18083297.04063
  20636087.2684   -1767067.39846  -1376942.43761
  23200275.9864   -3694722.67445  -2811524.15961
  23460104.8154   -4531527.20043     66277.41861
  22671126.1434   -8682685.71145  -6448095.89561
  22972862.643    -2869091.763 3        -0.40331
 92  5 25 19 22 29.9940000  0  7G18G 2G19G11G16G15G13
  23514650.752    15492927.026 4  12071480.22421
  19135012.5494  -23248200.49948 -18115468.21963
  20640966.2524   -1741426.10946  -1356962.28662
  23210806.525    -3639398.724 5  -2768414.67121
  23465504.900    -4503145.784 3     88392.61221
  22655256.1354   -8766073.68645  -6513073.42761
  22942415.8154   -3029095.09543
 92  5 25 19 22 59.9940000  0  7G18G 2G19G11G16G15G13
  23528537.6504   15565907.68443
  19127189.3854  -23289311.73348 -18147502.94163
  20645882.8774   -1715586.66946  -1336827.72661
  23221373.8694   -3583854.82545  -2725133.82761
  23470910.4004   -4474742.84343    110524.57161
  22639447.2364   -8849153.39345  -6577810.74461
  22911959.8074         -0.96953
 92  5 25 19 23 29.9940000  0  7G18G 2G19G11G16G15G13
  23542405.291    15638777.487 3
  19119399.9324  -23330246.06348 -18179399.80963
  20650836.6504   -1689555.31746  -1316543.62661
  23231985.455    -3528091.842 5  -2681682.25521
  23476320.1504   -4446317.15743    132674.24561
  22623699.650    -8931916.889 5  -6642301.68221
  22881497.2294    -160076.52044
 92  5 25 19 23 59.9940000  0  7G18G 2G19G11G16G15G13
  23556247.330    15711523.864 3
  19111645.2604  -23370997.62448 -18211154.25864
  20655828.7834   -1663322.69346  -1296102.68962
  23242637.377    -3472119.628 5  -2638067.64821
  23481730.346    -4417889.022 3    154825.85821
  22608006.791    -9014377.455 5  -6706556.56521
  22851030.5104    -320189.84744
 92  5 25 19 24 29.9940000  0  7G18G 2G19G11G16G15G13
  23570065.7754   15784135.84143        -0.36771
  19103921.1744  -23411584.31248 -18242780.23864
  20660858.4404   -1636883.92646  -1275501.11861
  23253325.775    -3415946.815 5  -2594296.74521
  23487135.3224   -4389477.62943    176964.38161
  22592371.002    -9096542.556 5  -6770581.22321
  22820553.2604    -480342.88444        -0.32971
 92  5 25 19 24 59.9940000  0  7G18G 2G19G11G16G15G13
  23583857.0334   15856610.02543
  19096227.2134  -23452019.60348 -18274288.25064
  20665934.1354   -1610224.40146  -1254727.53662
  23264055.8154   -3359565.40745  -2550363.27861
  23492541.3304   -4361081.33343    199091.20461
  22576797.229    -9178386.136 5  -6834355.32921
  22790072.2054    -640521.83844   -124814.86261
 92  5 25 19 25 29.9940000  0  7G18G 2G19G11G16G15G13
  23597623.1744   15928946.80743
  19088560.5104  -23492306.36948 -18305680.52764
  20671045.7524   -1583348.99146  -1233785.73562
  23274823.588    -3302983.256 5  -2506273.40621
  23497936.900    -4332721.804 3    221189.34421
  22561285.0184   -9259896.14345  -6897869.51961
  22759592.150     -800728.516 4
 92  5 25 19 25 59.9940000  0  7G18G 2G19G11G16G15G13
  23611364.5494   16001152.11043        -0.42171
  19080921.2054  -23532452.43748 -18336963.17664
  20676204.5254   -1556257.64646  -1212675.66361
  23285628.205    -3246202.614 5  -2462028.87121
  23503327.979    -4304395.025 3    243261.95821
  22545837.0494   -9341071.55145  -6961122.97661
  22729095.588     -960959.285 4
 92  5 25 19 26 29.9940000  0  7G18G 2G19G11G16G15G13
  23625080.385    16073225.254 3     56160.02921
  19073305.8854  -23572469.11048 -18368144.99764
  20681398.4084   -1528962.47846  -1191406.77461
  23296471.7444   -3189222.15545  -2417628.62661
  23508710.924    -4276096.142 3    265312.80821
  22530454.0804   -9421911.91045  -7024115.36461
  22698599.744    -1121207.409 4
 92  5 25 19 26 59.9940000  0  7G18G 2G19G11G16G15G13
  23638770.580    16145169.516 3    112220.13421
  19065720.0254  -23612334.01248 -18399208.55764
  20686625.7054   -1501477.63546  -1169990.08861
  23307353.400    -3132042.641 5  -2373073.27821
  23514096.8694   -4247814.20243    287350.49461
  22515134.4164   -9502419.45345  -7086848.44461
  22668103.197    -1281467.321 4
 92  5 25 19 27 29.9940000  0  7G18G 2G19G11G16G15G13
  23652439.283    16216998.493 3    168190.37921
  19058164.1504  -23652036.59448 -18430145.62864
  20691891.7364   -1473811.11546  -1148431.83561
  23318272.065    -3074665.847 5  -2328364.22921
  23519473.322    -4219540.121 3
  22499874.5724   -9582600.64545  -7149327.22361
  22637607.510    -1441734.616 4
 92  5 25 19 27 59.9940000  0  7G18G 2G19G11G16G15G13
  23666084.986    16288709.446 3
  19050639.8464  -23691584.05248 -18460961.81664
  20697191.1904   -1445966.16946  -1126734.54561
  23329226.5334   -3017097.78345  -2283506.08061
  23524854.104    -4191265.960 3
  22484679.0494   -9662459.69545  -7211554.99661
  22607107.1584   -1602009.47244        -0.26871
 92  5 25 19 28 29.9940000  0  7G18G 2G19G11G16G15G13
  23679711.268    16360311.356 3
  19043148.2134  -23730952.01648 -18491638.13664
  20702528.8154   -1417919.31246
  23340219.018    -2959329.495 5  -2238491.93921
  23530238.7134   -4162981.06043
  22469547.916    -9741982.131 5  -7273520.45121
  22576608.1584   -1762277.11144   -124883.94161
 92  5 25 19 28 59.9940000  0  5G 2G19G11G15G13
  19035689.0254  -23770149.93048 -18522181.95764
  20707906.0574   -1389656.90746  -1082857.34161
  23351246.994    -2901373.315 5  -2193331.38221
  22454480.1584   -9821157.68045  -7335215.63361
  22546109.3384   -1922543.93643   -249766.94261
 92  5 25 19 29 29.9940000  0  5G 2G19G11G15G13
  19028257.9864  -23809196.81148 -18552608.08464
  20713329.1194   -1361167.03846  -1060657.50861
  23362310.150    -2843231.729 5  -2148026.38121
  22439481.877    -9899970.374 5  -7396628.04721
  22515613.1584   -2082806.46344   -374646.65161
 92  5 25 19 29 59.9940000  0  5G 2G19G11G15G13
  19020855.9164  -23848095.42548 -18582918.70063
  20718796.0494   -1332442.80046  -1038275.06461
  23373411.018    -2784905.555 5  -2102577.55221
  22424557.229    -9978411.738 5  -7457751.12721
  22485117.3384   -2243059.01044   -499518.57761
 92  5 25 19 30 29.9940000  0  5G 2G19G11G15G13
  19013483.3774  -23886840.04448 -18613109.30964
  20724305.0654   -1303481.51046  -1015707.90461
  23384544.9864   -2726392.13444  -2056982.94161
  22409699.5104  -10056478.21445  -7518582.07961
  22454627.463    -2403293.018 4   -624375.96321
 92  5 25 19 30 59.9940000  0  5G 2G19G11G15G13
  19006139.0414  -23925433.95748 -18643182.48864
  20729853.9324   -1274314.54446   -992980.46861
  23395717.0024   -2667695.67145  -2011245.39061
  22394917.9084  -10134161.89045  -7579114.76161
  22424139.1044   -2563507.37144   -749218.14961
 92  5 25 19 31 29.9940000  0  5G 2G19G11G15G13
  18998823.1194  -23963877.84148 -18673138.75864
  20735435.0724   -1244979.65246   -970122.19461
  23406915.7994   -2608834.36845  -1965379.63461
  22380200.486   -10211496.910 5  -7639375.76021
  22393652.2754   -2723713.69544
 92  5 25 19 31 59.9940000  0  5G 2G19G11G15G13
  18991541.3304  -24002145.14748 -18702957.43363
  20741057.9554   -1215459.51146   -947119.56361
  23418150.6824   -2549800.12745  -1919379.10361
  22365550.9714  -10288479.94045  -7699362.47461
  22363170.143    -2883897.895 4        -0.19231
 92  5 25 19 32 29.9940000  0  5G 2G19G11G15G13
  18984295.6354  -24040222.42448 -18732628.03164
  20746709.377    -1185757.302 6   -923975.06921
  23429418.0494   -2490594.31145  -1873244.63361
  22350970.158   -10365102.269 5  -7759068.14121
  22332693.143    -3044056.012 5   -124798.51521
 92  5 25 19 32 59.9940000  0  5G 2G19G11G15G13
  18977086.7364  -24078104.53748 -18762146.55064
  20752395.119    -1155864.094 6   -900681.74621
  23440716.8384   -2431216.39645  -1826976.29161
  22336461.018   -10441356.423 5  -7818486.90921
  22302220.252    -3204181.046 5   -249571.10121
 92  5 25 19 33 29.9940000  0  5G 2G19G11G15G13
  18969913.1664  -24115806.05848 -18791524.35564
  20758128.783    -1125744.834 6   -877212.27521
  23452049.072    -2371669.099 5  -1780575.92821
  22322018.604   -10517250.363 5  -7877624.99121
  22271757.1904   -3364269.38945   -374315.03761
 92  5 25 19 33 59.9940000  0  5G 2G19G11G15G13
  18962768.8854  -24153346.49848 -18820776.64164
  20763905.9554   -1095396.77846   -853564.52461
  23463409.252    -2311961.981 5  -1734051.03721
  22307648.2524  -10592768.65945  -7936470.36161
  22241300.244    -3524324.741 5   -499033.32621
 92  5 25 19 34 29.9940000  0  5G 2G19G11G15G13
  18955652.1904  -24190747.05048 -18849919.92864
  20769717.104    -1064839.931 6   -829754.08121
  23474799.900    -2252103.123 5  -1687407.85321
  22293346.604   -10667909.986 5  -7995021.99321
  22210846.7134   -3684349.39545   -623727.63261
 92  5 25 19 34 59.9940000  0  5G 2G19G11G15G13
  18948557.7604  -24228026.45948 -18878968.80964
  20775574.002    -1034065.069 6   -805773.75721
  23486217.6664   -2192096.72045  -1640649.77361
  22279118.0964  -10742694.28245  -8053295.42861
  22180404.8854   -3844341.16145   -748396.36661
 92  5 25 19 35 29.9940000  0  5G 2G19G11G15G13
  18941488.0254  -24265177.44948 -18907917.62964
  20781471.752    -1003067.275 6   -781619.72221
  23497666.854    -2131939.819 5  -1593774.33421
  22264955.4714  -10817116.79645  -8111286.95261
  22149965.2294   -4004291.17045   -873032.56061
 92  5 25 19 35 59.9930000  0  5G 2G19G11G15G13
  18934447.7324  -24302177.62548 -18936748.92764
  20787409.521     -971873.342 6   -757312.84321
  23509142.2944   -2071633.14445  -1546782.17361
  22250867.177   -10891158.477 5  -8168981.72321
  22119538.2864   -4164187.54545   -997626.94761
 92  5 25 19 36 29.9930000  0  5G 2G19G11G15G13
  18927434.4824  -24339030.31848 -18965465.30464
  20793381.114     -940483.749 6   -732853.51221
  23520646.317    -2011181.206 5  -1499676.85821
  22236843.3024  -10964842.58245  -8226397.85561
  22089117.716    -4324042.620 5  -1122189.15121
 92  5 25 19 36 59.9930000  0  5G 2G19G11G15G13
  18920448.2164  -24375744.23448 -18994073.54864
  20799391.763     -908905.626 6   -708247.26621
  23532173.794    -1950605.368 5  -1452474.97821
  22222888.7944  -11038175.14645  -8283540.06461
  22058706.5444   -4483865.01145  -1246725.90161
 92  5 25 19 37 29.9930000  0  4G 2G19G15G13
  18913494.4894  -24412285.38148 -19022547.17064
  20805435.927     -877134.249 6   -683490.44021
  22209009.9424  -11111108.69645  -8340371.35561
  22028301.864    -4643633.392 5  -1371220.55321
 92  5 25 19 37 59.9930000  0  4G 2G19G15G13
  18906570.1774  -24448672.06048 -19050900.42964
  20811520.216     -845164.832 6   -658579.30021
  22195208.396   -11183643.252 5  -8396891.74921
  21997910.0674   -4803347.13445  -1495672.62961
 92  5 25 19 38 29.9930000  0  4G 2G19G15G13
  18899671.0444  -24484928.22548 -19079151.98364
  20817646.130     -812989.305 6   -633507.54921
  22181476.942   -11255802.711 5  -8453119.86321
  21967526.1464   -4963010.49945  -1620085.44061
 92  5 25 19 38 59.9930000  0  4G 2G19G15G13
  18892796.2714  -24521053.68648 -19107301.68564
  20823806.466     -780613.375 6   -608279.64121
  22167820.310   -11327567.680 5  -8509040.56521
  21937155.2084   -5122614.51145  -1744452.02961
 92  5 25 19 39 29.9930000  0  4G 2G19G15G13
  18885946.2004  -24557052.42548 -19135352.64064
  20830000.677     -748047.166 6   -582903.47021
  22154234.989   -11398953.999 5  -8564666.22721
  21906793.536    -5282160.280 5  -1868773.18221
 92  5 25 19 39 59.9930000  0  4G 2G19G15G13
  18879120.8104  -24592920.30148 -19163301.63264
  20836240.817     -715270.440 6   -557363.26321
  22140725.8644  -11469952.16045  -8619989.40461
  21876447.4744   -5441631.15945  -1993036.01661
 92  5 25 19 40 29.9930000  0  4G 2G19G15G13
  18872323.1464  -24628644.36548 -19191138.56264
  20842512.177     -682307.351 6   -531677.84021
  22127289.005   -11540556.476 5  -8675005.72121
  21846112.7004   -5601032.95445  -2117245.02461
 92  5 25 19 40 59.9930000  0  4G 2G19G15G13
  18865553.1074  -24664218.73948 -19218858.84964
  20848819.724     -649159.795 6   -505848.68021
  22113931.482   -11610757.064 6  -8729707.43621
  21815794.708    -5760362.980 5  -2241398.09121
 92  5 25 19 41 29.9930000  0  4G 2G19G15G13
  18858812.1074  -24699642.44148 -19246461.73564
  20855166.513     -615813.089 6   -479864.32821
  22100648.724   -11680546.258 5  -8784088.58221
  21785489.1144   -5919612.10845  -2365488.13261
 92  5 25 19 41 59.9930000  0  4G 2G19G15G13
  18852099.3334  -24734921.09748 -19273951.59164
  20861549.739     -582270.158 6   -453727.07721
  22087446.9354  -11749918.47645  -8838144.80661
  21755204.2394   -6078778.19945  -2489513.45061
 92  5 25 19 42 29.9930000  0  4G 2G19G15G13
  18845412.5134  -24770060.18248 -19301332.69364
  20867966.333     -548550.274 6   -427451.94121
  22074324.396   -11818886.756 5  -8891886.27721
  21724927.505    -6237866.503 5  -2613478.14921
 92  5 25 19 42 59.9930000  0  4G 2G19G15G13
  18838749.0834  -24805073.37348 -19328615.70164
  20874418.411     -514641.096 6   -401029.30321
  22061275.4584  -11887462.45145  -8945321.84261
  21694669.778    -6396872.626 5  -2737378.81021
 92  5 25 19 43 29.9930000  0  4G 2G19G15G13
  18832114.0994  -24839941.87648 -19355785.97264
  20880910.333     -480525.545 6   -374445.85321
  22048305.458   -11955619.128 5  -8998430.91621
  21664431.6464   -6555780.14245  -2861202.63861
 92  5 25 19 43 59.9930000  0  4G 2G19G15G13
  18825509.7394  -24874648.05848 -19382829.75464
  20887439.185     -446207.154 6   -347704.34921
  22035413.5914  -12023362.96045  -9051218.27661
  21634210.8574   -6714587.43945  -2984948.35861
 92  5 25 19 44 29.9930000  0  4G 2G19G15G13
  18818934.8334  -24909199.42848 -19409752.90464
  20894011.294     -411690.169 6   -320808.10021
  22022598.638   -12090702.035 5  -9103690.24921
  21604008.263    -6873301.683 5  -3108621.57921
 92  5 25 19 44 59.9930000  0  4G 2G19G15G13
  18812388.6694  -24943597.59148 -19436556.66764
  20900620.755     -376958.982 6   -293744.92621
  22009865.2084  -12157623.87345  -9155837.12761
  21573823.982    -7031917.387 5  -3232218.01921
 92  5 25 19 45 29.9930000  0  4G 2G19G15G13
  18805871.6854  -24977847.76448 -19463245.11464
  20907263.614     -342034.561 6   -266531.20721
  21997211.0754  -12224125.26746  -9207656.37461
  21543658.825    -7190436.942 5  -3355739.51721
 92  5 25 19 45 59.9930000  0  4G 2G19G15G13
  18799381.7324  -25011952.01148 -19489819.85964
  20913947.513     -306919.217 6   -239168.70221
  21984630.4504  -12290223.23646  -9259161.25961
  21513512.622    -7348854.705 5  -3479181.73021
 92  5 25 19 46 29.9930000  0  4G 2G19G15G13
  18792915.5134  -25045931.78348 -19516297.61464
  20920667.060     -271609.057 6   -211654.39621
  21972131.575   -12355915.429 6  -9310349.95021
  21483386.122    -7507170.811 5  -3602544.69321
 92  5 25 19 46 59.9930000  0  4G 2G19G15G13
  18786472.5994  -25079789.75048 -19542680.46064
  20927421.317     -236108.401 6   -183991.64621
  21959705.7784  -12421206.35946  -9361225.98161
  21453279.1144   -7665385.00845  -3725828.28861
 92  5 25 19 47 29.9930000  0  4G 2G19G15G13
  18780054.6384  -25113513.45148 -19568958.67864
  20934214.622     -200408.673 6   -156173.79021
  21947359.286   -12486089.663 6  -9411784.36021
  21423194.1774   -7823479.91245  -3849018.90761
 92  5 25 19 47 59.9930000  0  4G 2G19G15G13
  18773662.8174  -25147103.24248 -19595132.54464
  20941045.3964    -164508.35946   -128199.62661
  21935087.5674  -12550575.40845  -9462032.98461
  21393130.091    -7981464.107 5  -3972123.22721
 92  5 25 19 48 29.9930000  0  4G 2G19G15G13
  18767296.5604  -25180560.73348 -19621203.33464
  20947912.8964    -128426.03246   -100083.63761
  21922896.5524  -12614643.60045  -9511956.20561
  21363088.8804   -8139335.92845  -4095140.03261
 92  5 25 19 48 59.9930000  0  4G 2G19G15G13
  18760956.9504  -25213874.67848 -19647162.26664
  20954813.450      -92169.176 6    -71831.65121
  21910785.271   -12678290.201 6  -9561550.94621
  21333070.7394   -8297083.97445  -4218060.38861
 92  5 25 19 49 29.9930000  0  4G 2G19G15G13
  18754644.6464  -25247047.35548 -19673011.11664
  20961743.1924     -55746.30945    -43450.31361
  21898754.7084  -12741513.86746  -9610816.10561
  21303074.6534   -8454706.60845  -4340883.00861
 92  5 25 19 49 59.9930000  0  4G 2G19G15G13
  18748359.7164  -25280073.29648 -19698745.62863
  20968705.0444     -19164.78645    -14945.35761
  21886804.4744  -12804308.99845  -9659747.34961
  21273103.583    -8612203.929 5  -4463607.98121
 92  5 25 19 50 29.9930000  0  4G 2G19G15G13
  18742098.7554  -25312975.15448 -19724383.44764
  20975690.7634      17554.71245     13667.11861
  21874933.130   -12866686.432 5  -9708353.10121
  21243156.036    -8769582.620 5  -4586240.52421
 92  5 25 19 50 59.9930000  0  4G 2G19G15G13
  18735864.3414  -25345738.88048 -19749913.62664
  20982715.8104      54446.42045     42413.79161
  21863142.646   -12928638.443 5  -9756627.36721
  21213233.997    -8926825.304 5  -4708767.10821
 92  5 25 19 51 29.9930000  0  4G 2G19G15G13
  18729656.4034  -25378359.25448 -19775332.11063
  20989770.9114      91522.58145     71304.18361
  21851440.9504  -12990143.11946  -9804553.03661
  21183336.536    -9083928.943 5  -4831185.31521
 92  5 25 19 51 59.9930000  0  4G 2G19G15G13
  18723475.1074  -25410843.95748 -19800644.88163
  20996856.5674     128784.57845    100339.38061
  21839825.6694  -13051184.54446  -9852117.75861
  21153470.2324   -9240883.45645  -4953487.34061
 92  5 25 19 52 29.9930000  0  4G 2G19G15G13
  18717314.6384  -25443216.74948 -19825870.44764
  21003988.2474     166240.17845    129525.43061
  21828297.5994  -13111769.51546  -9899326.79661
  21123629.8964   -9397691.73445  -5075675.40561
 92  5 25 19 52 59.9930000  0  4G 2G19G15G13
  18711175.0364  -25475480.51548 -19851011.04963
  21011155.505      203906.072 5    158875.34621
  21816855.7164  -13171890.72346  -9946174.46761
  21093818.208    -9554352.555 5  -5197748.59221
 92  5 25 19 53 29.9930000  0  4G 2G19G15G13
  18705057.8494  -25507628.84948 -19876061.70264
  21018363.5364     241788.03545    188393.63261
  21805506.067   -13231534.326 6  -9992649.94921
  21064038.7394   -9710846.80745  -5319691.97261
 92  5 25 19 53 59.9930000  0  4G 2G19G15G13
  18698959.7714  -25539676.17748 -19901033.65863
  21025611.1304     279874.95445    218071.61761
  21794240.997   -13290731.484 5 -10038777.56321
  21034286.974    -9867186.282 5  -5441514.75021
 92  5 25 19 54 29.9930000  0  4G 2G19G15G13
  18692887.1854  -25571584.56448 -19925897.34163
  21032906.8334     318201.17145    247936.07061
  21783063.4824  -13349474.09946 -10084550.97261
  21004570.5604  -10023352.91345  -5563202.84161
 92  5 25 19 54 59.9920000  0  4G 2G19G15G13
  18686843.4304  -25603344.35848 -19950645.24264
  21040238.8914     356736.94345    277963.82561
  21771971.961   -13407758.030 6 -10129966.97921
  20974886.3674  -10179343.88645  -5684754.04961
 92  5 25 19 55 29.9920000  0  4G 2G19G15G13
  18680828.4694  -25634955.07348 -19975276.97063
  21047604.6174     395449.07445    308128.98461
  21760962.281   -13465612.480 6 -10175048.32521
  20945232.063   -10335179.551 5  -5806184.24821
 92  5 25 19 55 59.9920000  0  4G 2G19G15G13
  18674844.9694  -25666398.38548 -19999778.25364
  21055006.6414     434347.68845    338439.45861
  21750037.430   -13523024.537 6 -10219784.95221
  20915609.563   -10490840.776 5  -5927478.53321
 92  5 25 19 56 29.9920000  0  4G 2G19G15G13
  18668890.0784  -25697691.28548 -20024162.33664
  21062437.1254     473400.91345    368870.42261
  21739194.961   -13579993.955 6 -10264176.66221
  20886021.2194  -10646334.18146  -6048642.03261
 92  5 25 19 56 59.9920000  0  4G 2G19G15G13
  18662963.7344  -25728832.36148 -20048428.11963
  21069900.1644     512597.30145    399412.92861
  21728442.7584  -13636506.52546 -10308212.38461
  20856465.5864  -10801643.91746  -6169662.42461
 92  5 25 19 57 29.9920000  0  4G 2G19G15G13
  18657064.3444  -25759835.85348 -20072586.69064
  21077387.695      551942.907 5    430071.70821
  21717772.531   -13692576.467 6 -10351903.21421
  20826945.555   -10956775.612 6  -6290544.07821
 92  5 25 19 57 59.9920000  0  4G 2G19G15G13
  18651186.8204  -25790723.52548 -20096655.00864
  21084902.5004     591445.94245    460853.15961
  21707188.000   -13748193.467 6 -10395241.09721
  20797457.149   -11111734.818 6  -6411291.31121
 92  5 25 19 58 29.9920000  0  4G 2G19G15G13
  18645335.9694  -25821467.84548 -20120611.62963
  21092453.9064     631128.36045    491774.38761
  21696698.063   -13803324.278 6 -10438200.12821
  20768007.4144  -11266497.21746  -6531885.20661
 92  5 25 19 58 59.9920000  0  4G 2G19G15G13
  18639512.4844  -25852072.62748 -20144459.50763
  21100042.6644     671001.75645    522844.43461
  21686296.758   -13857982.748 5 -10480791.11821
  20738591.547   -11421072.695 6  -6652333.44521
 92  5 25 19 59 29.9920000  0  4G 2G19G15G13
  18633714.2584  -25882542.33848 -20168202.15063
  21107671.2194     711092.03045    554083.48261
  21675987.4454  -13912161.29945 -10523008.14061
  20709213.633   -11575457.239 6  -6772632.90421
 92  5 25 19 59 59.9920000  0  4G 2G19G15G13
  18627940.7894  -25912880.94548 -20191842.62963
  21115337.5314     751386.25945    585481.44961
  21665767.2504  -13965872.19546 -10564860.75961
  20679869.2034  -11729658.94346  -6892789.89961
 92  5 25 20  0 29.9920000  0  4G 2G19G15G13
  18622194.2424  -25943077.10048 -20215372.11063
  21123044.3594     791886.44945    617039.89661
  21655635.1644  -14019110.79546 -10606345.34961
  20650563.0634  -11883661.81346  -7012791.96861
 92  5 25 20  0 59.9920000  0  4G 2G19G15G13
  18616471.0314  -25973154.18648 -20238808.81563
  21130790.914      832584.030 5    648752.14621
  21645590.047   -14071896.702 5 -10647477.18321
  20621295.0634  -12037470.74846  -7132642.91161
 92  5 25 20  1 29.9920000  0  4G 2G19G15G13
  18610767.4454  -26003128.69848 -20262165.59563
  21138568.094      873456.101 5    680600.36721
  21635627.3594  -14124242.03045 -10688265.73461
  20592061.250   -12191089.096 6  -7252345.34321
 92  5 25 20  1 59.9920000  0  4G 2G19G15G13
  18605086.7744  -26032980.58148 -20285426.82064
  21146376.3594     914493.11145    712577.10861
  21625753.906   -14176135.529 6 -10728702.19821
  20562870.328   -12344493.477 6  -7371881.05521
 92  5 25 20  2 29.9920000  0  4G 2G19G15G13
  18599426.0164  -26062729.81048 -20308608.05263
  21154213.688      955679.691 5    744670.38921
  21615962.352   -14227581.994 6 -10768790.31121
  20533717.4064  -12497687.32046  -7491252.70761
 92  5 25 20  2 59.9920000  0  4G 2G19G15G13
  18593788.1254  -26092355.42748 -20331692.96464
  21162080.789      997028.321 5    776889.94821
  21606263.7114  -14278554.30746 -10808508.94061
  20504609.8834  -12650649.23646  -7610443.63961
 92  5 25 20  3 29.9920000  0  4G 2G19G15G13
  18588173.0314  -26121861.75448 -20354684.92263
  21169978.758     1038515.804 5    809217.70021
  21596653.8364  -14329053.39745 -10847858.86761
  20475544.492   -12803387.676 6  -7729460.43921
 92  5 25 20  3 59.9920000  0  4G 2G19G15G13
  18582580.8834  -26151250.22148 -20377585.04364
  21177900.984     1080138.430 5    841650.77021
  21587134.8054  -14379076.39146 -10886837.80461
  20446521.2274  -12955906.77746  -7848306.33261
 92  5 25 20  4 29.9920000  0  4G 2G19G15G13
  18577015.9614  -26180494.52148 -20400372.82864
  21185850.844     1121927.707 5    874213.67721
  21577711.9144  -14428596.11046 -10925424.57661
  20417541.9304  -13108192.84846  -7966970.63561
 92  5 25 20  4 59.9920000  0  4G 2G19G15G13
  18571478.7114  -26209590.72848 -20423045.20863
  21193835.695     1163882.780 5    906905.78121
  21568382.5244  -14477618.67445 -10963623.97361
  20388606.891   -13260251.322 6  -8085457.59921
 92  5 25 20  5 29.9920000  0  4G 2G19G15G13
  18565975.2034  -26238515.36848 -20445583.90463
  21201857.578     1206043.885 5    939758.43721
  21559147.9614  -14526140.81745 -11001433.44061
  20359717.992   -13412059.758 6  -8203749.73621
 92  5 25 20  5 59.9920000  0  4G 2G19G15G13
  18560500.2504  -26267283.62448 -20468000.74463
  21209919.1954    1248409.97345    972770.80461
  21550010.7664  -14574175.50246 -11038863.06261
  20330875.7894  -13563629.43846  -8321855.81461
 92  5 25 20  6 29.9920000  0  4G 2G19G15G13
  18555051.8364  -26295912.96248 -20490309.33163
  21218020.461     1290974.532 5   1005937.83921
  21540957.6494  -14621736.33746 -11075923.45061
  20302076.195   -13714964.140 6  -8439778.79621
 92  5 25 20  6 59.9920000  0  4G 2G19G15G13
  18549628.6564  -26324414.37948 -20512518.24263
  21226158.4224    1333735.32545   1039257.76361
  21531997.1094  -14668826.05546 -11112616.71961
  20273324.766   -13866057.011 6  -8557513.37221
 92  5 25 20  7 29.9920000  0  4G 2G19G15G13
  18544227.3364  -26352798.35048 -20534635.63363
  21234332.156     1376680.670 5   1072721.50921
  21523129.297   -14715438.878 6 -11148938.41321
  20244618.4534  -14016910.50246  -8675061.39361
 92  5 25 20  7 59.9920000  0  4G 2G19G15G13
  18538849.3284  -26381057.43648 -20556655.71963
  21242531.156     1419788.021 5   1106311.48121
  21514351.1494  -14761556.37245 -11184874.12461
  20215958.383   -14167521.370 6  -8792420.35721
 92  5 25 20  8 29.9920000  0  4G 2G19G15G13
  18533497.4454  -26409181.78848 -20578570.81464
  21250765.2034    1463052.11345   1140023.58861
  21505671.7034  -14807173.21545 -11220419.72161
  20187343.8594  -14317887.90146  -8909588.92661
 92  5 25 20  8 59.9920000  0  4G 2G19G15G13
  18528175.8444  -26437147.24748 -20600362.09664
  21259029.1884    1506482.76245   1173865.48661
  21497088.8054  -14852272.76245 -11255562.21961
  20158779.2584  -14467997.01846  -9026556.93361
 92  5 25 20  9 29.9920000  0  4G 2G19G15G13
  18522887.164   -26464941.270 8 -20622019.79424
  21267331.8594    1550086.12145   1207841.95861
  21488606.875   -14896849.614 5 -11290297.43121
  20130265.180   -14617838.536 6  -9143316.40821
 92  5 25 20  9 59.9920000  0  4G 2G19G15G13
  18517626.5554  -26492585.97448 -20643561.13364
  21275657.758     1593845.529 5   1241940.01321
  21480218.0944  -14940934.89845 -11324649.60361
  20101800.4384  -14767423.27946  -9259875.79361
 92  5 25 20 10 29.9920000  0  4G 2G19G15G13
  18512389.5704  -26520108.10048 -20665006.94964
  21284013.4614    1637769.15045   1276166.05161
  21471916.7274  -14984544.48945 -11358631.10161
  20073383.586   -14916749.367 6  -9376233.63521
 92  5 25 20 10 59.9920000  0  4G 2G19G15G13
  18507173.4924  -26547521.42548 -20686367.98863
  21292404.4694    1681854.48845   1310518.08761
  21463704.0004  -15027697.57445 -11392256.89361
  20045018.641   -15065812.028 6  -9492386.22821
 92  5 25 20 11 29.9920000  0  4G 2G19G15G13
  18501974.9614  -26574839.05048 -20707654.45664
  21300824.180     1726105.426 5   1344999.16921
  21455580.820   -15070387.842 5 -11425522.01921
  20016704.578   -15214600.621 6  -9608325.24621
 92  5 25 20 11 59.9920000  0  4G 2G19G15G13
  18496790.1564  -26602082.90248 -20728883.44163
  21309272.6724    1770504.54945   1379595.71661
  21447546.5944  -15112623.27045 -11458432.75261
  19988441.031   -15363128.325 6  -9724060.96221
 92  5 25 20 12 29.9920000  0  4G 2G19G15G13
  18491624.4304  -26629229.03548 -20750036.26964
  21317751.984     1815064.623 5   1414317.67721
  21439598.8054  -15154382.49545 -11490972.41361
  19960227.7344  -15511386.14546  -9839586.37861
 92  5 25 20 12 59.9910000  0  4G 2G19G15G13
  18486477.9094  -26656271.01648 -20771107.94463
  21326259.878     1859769.800 5   1449152.70121
  21431747.4724  -15195654.25845 -11523132.22061
  19932065.417   -15659375.106 6  -9954902.30721
 92  5 25 20 13 29.9910000  0  4G 2G19G15G13
  18481354.9564  -26683190.35748 -20792084.05764
  21334796.2454    1904632.83745   1484110.73861
  21423994.464   -15236395.660 6 -11554878.75821
  19903959.4484  -15807083.58846 -10069999.68461
 92  5 25 20 13 59.9910000  0  4G 2G19G15G13
  18476260.6914  -26709969.01848 -20812950.55763
  21343360.5344    1949638.06345   1519179.58161
  21416339.7374  -15276608.89045 -11586213.73661
  19875903.980   -15954511.866 6 -10184878.71121
 92  5 25 20 14 29.9910000  0  4G 2G19G15G13
  18471191.5424  -26736604.85648 -20833705.76364
  21351950.1914    1994782.71645   1554357.04761
  21408788.4414  -15316302.44645 -11617143.77761
  19847901.964   -16101662.474 6 -10299541.39021
 92  5 25 20 14 59.9910000  0  4G 2G19G15G13
  18466150.2374  -26763097.17748 -20854349.13464
  21360568.1364    2040069.41445   1589645.19661
  21401331.417   -15355470.182 5 -11647664.06821
  19819954.878   -16248522.788 6 -10413977.85021
 92  5 25 20 15 29.9910000  0  4G 2G19G15G13
  18461135.7304  -26789449.11148 -20874883.11564
  21369211.261     2085489.537 5   1625037.31021
  21393974.1054  -15394134.81645 -11677792.34261
  19792060.878   -16395104.773 6 -10528197.42621
 92  5 25 20 15 59.9910000  0  4G 2G19G15G13
  18456150.9094  -26815645.43748 -20895295.84264
  21377888.5584    2131061.13144   1660547.44961
  21386714.3314  -15432308.25345 -11707537.86061
  19764220.1914  -16541399.20946 -10642192.95761
 92  5 25 20 16 29.9910000  0  4G 2G19G15G13
  18451193.3004  -26841696.78748 -20915595.59664
  21386592.386     2176799.017 4   1696187.14721
  21379540.0034  -15469998.49545 -11736906.86261
  19736440.5664  -16687398.16046 -10755958.22161
 92  5 25 20 16 59.9910000  0  4G 2G19G15G13
  18446256.8474  -26867635.57348 -20935807.63864
  21395319.8704    2222678.34844   1731937.07361
  21372458.0344  -15507226.94645 -11765916.02061
  19708710.5194  -16833118.36146 -10869506.29661
 92  5 25 20 17 29.9910000  0  4G 2G19G15G13
  18441343.9484  -26893453.30348 -20955925.34964
  21404081.995     2268719.416 4   1767813.03521
  21365462.8394  -15543988.73145 -11794561.55461
  19681036.511   -16978543.214 6 -10982824.21621
 92  5 25 20 17 59.9910000  0  4G 2G19G15G13
  18436447.7534  -26919183.98948 -20975975.24063
  21412870.9174    2314906.12044   1803802.49061
  21358550.6914  -15580308.76445 -11822862.85861
  19653416.112   -17123684.629 6 -11095921.27821
 92  5 25 20 18 29.9910000  0  4G 2G19G15G13
  18431570.4094  -26944818.27148 -20995950.01564
  21421690.6674    2361248.17944   1839912.97461
  21351723.6124  -15616164.31345 -11850802.23161
  19625853.3554  -17268525.90746 -11208784.47361
 92  5 25 20 18 59.9910000  0  4G 2G19G15G13
  18426708.941   -26970362.030 8 -21015854.26523
  21430537.7144    2407737.99944   1876138.61461
  21344995.0264  -15651546.58745 -11878372.82461
  19598348.987   -17413069.809 6 -11321415.95121
 92  5 25 20 19 29.9910000  0  4G 2G19G15G13
  18421870.1674  -26995791.87548 -21035669.74463
  21439415.3474    2454381.23444   1912483.77161
  21338352.456   -15686445.806 5 -11905567.03121
  19570902.1514  -17557302.20346 -11433804.69561
 92  5 25 20 19 59.9910000  0  4G 2G19G15G13
  18417053.8394  -27021098.51148 -21055389.21263
  21448317.2764    2501168.70244   1948941.32861
  21331808.206   -15720839.788 5 -11932367.55821
  19543515.9874  -17701216.43246 -11545945.51761
 92  5 25 20 20 29.9910000  0  4G 2G19G15G13
  18412261.5424  -27046286.35948 -21075016.11763
  21457244.144     2548084.798 4   1985499.12421
  21325358.8554  -15754718.04645 -11958766.18861
  19516187.1674  -17844823.85946 -11657847.27261
 92  5 25 20 20 59.9910000  0  4G 2G19G15G13
  18407489.8624  -27071355.95248 -21094550.87863
  21466196.9414    2595130.00345   2022157.50561
  21319013.745   -15788081.315 5 -11984763.53121
  19488919.8084  -17988119.67446 -11769506.22361
 92  5 25 20 21 29.9910000  0  4G 2G19G15G13
  18402743.5424  -27096301.93248 -21113989.32263
  21475169.714     2642288.911 5   2058904.47521
  21312757.3004  -15820937.98845 -12010366.12361
  19461710.784   -18131106.288 6 -11880924.24421
 92  5 25 20 21 59.9910000  0  4G 2G19G15G13
  18398021.253   -27121117.250 8 -21133325.95323
  21484171.948     2689568.575 4   2095745.56921
  21306604.503   -15853282.965 5 -12035570.01721
  19434561.3864  -18273776.71746 -11992095.86761
 92  5 25 20 22 29.9910000  0  4G 2G19G15G13
  18393319.3084  -27145828.41048 -21152581.42264
  21493186.0424    2736950.52845   2132666.36161
  21300539.3004  -15885154.97745 -12060405.36661
  19407468.3474  -18416149.54046 -12103035.59961
 92  5 25 20 22 59.9910000  0  4G 2G19G15G13
  18388640.3084  -27170414.19748 -21171739.19963
  21502223.3234    2784448.27045   2169677.35861
  21294566.2224  -15916543.19245 -12084863.71961
  19380437.8864  -18558196.00246 -12213721.02961
 92  5 25 20 23 29.9910000  0  4G 2G19G15G13
  18383983.808   -27194886.280 8 -21190808.37424
  21511280.870     2832041.414 4   2206762.71521
  21288678.1514  -15947465.74145 -12108959.22961
  19353466.3004  -18699932.32646 -12324164.78961
 92  5 25 20 23 59.9910000  0  4G 2G19G15G13
  18379351.448   -27219230.752 8 -21209778.11124
  21520363.862     2879765.386 4   2243950.00221
  21282886.0504  -15977903.90045 -12132677.27661
  19326558.5734  -18841334.05746 -12434347.83561
 92  5 25 20 24 29.9910000  0  4G 2G19G15G13
  18374739.816   -27243461.210 8 -21228659.00724
  21529469.722     2927620.219 4   2281239.26521
  21277191.6594  -16007857.53446 -12156017.78561
  19299713.964   -18982403.088 6 -12544271.64021
 92  5 25 20 24 59.9910000  0  4G 2G19G15G13
  18370154.792   -27267561.840 8 -21247438.73724
  21538602.706     2975611.272 4   2318634.67221
  21271579.3164  -16037326.09446 -12178980.29861
  19272933.3234  -19123133.64546 -12653931.69861
 92  5 25 20 25 29.9910000  0  4G 2G19G15G13
  18365593.3554  -27291529.67748 -21266114.99063
  21547760.9644    3023751.25544   2356146.13461
  21266067.972   -16066299.151 5 -12201556.72821
  19246218.5344  -19263522.77446 -12763325.70061
 92  5 25 20 25 59.9910000  0  4G 2G19G15G13
  18361052.5114  -27315391.53348 -21284708.65964
  21556948.917     3072028.247 4   2393764.33521
  21260649.550   -16094777.664 5 -12223747.77921
  19219566.0194  -19403577.98346 -12872459.51261
 92  5 25 20 26 29.9910000  0  4G 2G19G15G13
  18356535.058   -27339131.809 8 -21303207.60023
  21566162.331     3120442.389 4   2431489.41921
  21255325.581   -16122731.056 5 -12245529.66621
  19192981.8164  -19543276.90246 -12981315.69561
 92  5 25 20 26 59.9910000  0  4G 2G19G15G13
  18352039.308   -27362752.694 8 -21321613.50523
  21575401.5424    3168985.47644   2469314.96661
  21250113.7144  -16150154.53545 -12266898.62461
  19166465.9484  -19682621.47246 -13089895.76661
 92  5 25 20 27 29.9910000  0  4G 2G19G15G13
  18347564.9334  -27386266.99048 -21339936.35463
  21584662.9014    3217662.19244   2507244.63761
  21244997.9014  -16177026.68546 -12287837.97261
  19140019.4804  -19821601.57046 -13198191.82761
 92  5 25 20 27 59.9910000  0  4G 2G19G15G13
  18343109.1674  -27409682.41948 -21358182.15564
  21593946.8624    3266460.02344   2545268.68761
  21239985.4564  -16203376.23245 -12308370.10761
  19113640.237   -19960225.420 6 -13306210.28321
 92  5 25 20 28 29.9910000  0  4G 2G19G15G13
  18338675.1364  -27432988.77548 -21376342.96664
  21603259.230     3315375.161 3   2583384.15021
  21235064.519   -16229224.761 5 -12328511.84321
  19087327.6754  -20098497.10346 -13413954.32861
 92  5 25 20 28 59.9910000  0  4G 2G19G15G13
  18334260.6514  -27456183.52848 -21394416.80763
  21612592.2064    3364424.84043   2621604.44361
  21230239.3624  -16254593.71845 -12348279.87861
  19061082.3554  -20236414.81046 -13521422.54761
 92  5 25 20 29 29.9910000  0  4G 2G19G15G13
  18329868.6514  -27479265.57448 -21412402.83063
  21621949.448     3413602.061 3   2659924.11821
  21225495.8554  -16279497.20545 -12367685.22761
  19034904.7224  -20373976.29846 -13628613.20561
 92  5 25 20 29 59.9910000  0  4G 2G19G15G13
  18325500.7614  -27502220.19548 -21430289.55763
  21631332.1754    3462900.47643   2698338.24261
  21220844.534   -16303938.947 5 -12386730.76721
  19008795.5664  -20511180.44646 -13735525.40961
 92  5 25 20 30 29.9900000  0  4G 2G19G15G13
  18321154.0534  -27525059.07848 -21448086.10163
  21640731.232     3512301.029 3   2736831.95321
  21216287.357   -16327912.526 5 -12405411.50121
  18982755.1784  -20648028.91846 -13842160.47461
 92  5 25 20 30 59.9900000  0  4G 2G19G15G13
  18316830.1004  -27547785.88748 -21465795.32263
  21650152.412     3561799.158 3   2775401.68621
  21211810.951   -16351398.300 5 -12423712.12921
  18956780.4044  -20784521.69646 -13948518.36961
 92  5 25 20 31 29.9900000  0  4G 2G19G15G13
  18312528.2094  -27570388.23748
  21659589.342     3611386.771 3   2814041.12821
  21207442.412   -16374375.031 5
  18930876.0614  -20920648.44146 -14054591.04561
 92  5 25 20 31 59.9900000  0  4G 2G19G15G13
  18308251.8344  -27592860.77348 -21500918.64563
  21669044.990     3661067.784 3   2852753.37821
  21203169.928   -16396843.397 5 -12459123.98121
  18905042.3734  -21056410.03446 -14160379.18561
 92  5 25 20 32 29.9900000  0  4G 2G19G15G13
  18304000.2094  -27615206.39448 -21518330.83463
  21678518.904     3710848.434 3   2891543.26021
  21198985.3574  -16418799.60745 -12476232.75561
  18879278.529   -21191796.517 6 -14265875.03121
 92  5 25 20 32 59.9900000  0  4G 2G19G15G13
  18299772.6704  -27637417.00448 -21535637.81163
  21688008.709     3760734.992 3   2930415.67721
  21194910.6394  -16440246.21645 -12492944.43161
  18853586.998   -21326806.425 6 -14371077.44921
 92  5 25 20 33 29.9900000  0  4G 2G19G15G13
  18295573.9754  -27659485.49448 -21552834.04863
  21697524.686     3810741.572 3   2969381.61621
  21190916.764   -16461205.451 5 -12509276.33521
  18827967.381   -21461437.553 6 -14475984.71321
 92  5 25 20 33 59.9900000  0  4G 2G19G15G13
  18291398.3184  -27681429.09748 -21569932.97263
  21707060.725     3860863.392 3   3008437.33221
  21187020.2874  -16481682.12645 -12525232.22661
  18802420.279   -21595683.615 6 -14580591.92821
 92  5 25 20 34 29.9900000  0  4G 2G19G15G13
  18287242.2174  -27703267.74148 -21586950.11163
  21716624.350     3911095.410 3   3047578.92621
  21183219.654   -16501681.439 5 -12540816.14621
  18776947.584   -21729544.227 6 -14684898.79121
 92  5 25 20 34 59.9900000  0  4G 2G19G15G13
  18283107.7794  -27724997.96248 -21603882.76763
  21726204.6544    3961441.99543   3086809.79361
  21179501.959   -16521207.156 5 -12556031.04221
  18751548.482   -21863020.612 7 -14788906.26121
 92  5 25 20 35 29.9900000  0  4G 2G19G15G13
  18278987.2484  -27746646.98848 -21620752.14663
  21735798.865     4011873.579 3   3126106.91721
  21175876.967   -16540264.847 5 -12570881.24721
  18726220.795   -21996121.478 7 -14892621.11921
 92  5 25 20 35 59.9900000  0  4G 2G19G15G13
  18274886.5294  -27768198.42948 -21637545.49664
  21745416.1234    4062403.29043   3165480.47661
  21172350.803   -16558806.175 5 -12585329.08321
  18700968.279   -22128823.973 7 -14996025.56221
 92  5 25 20 36 29.9900000  0  4G 2G19G15G13
  18270807.9044  -27789630.50148 -21654245.82864
  21755051.029     4113036.297 3   3204934.51421
  21168920.178   -16576830.811 5 -12599374.29521
  18675790.404   -22261132.266 6 -15099122.83221
 92  5 25 20 36 59.9900000  0  4G 2G19G15G13
  18266756.5614  -27810924.51048 -21670838.57663
  21764704.8034    4163766.42243   3244464.26161
  21165582.8654  -16594337.17245 -12613015.66461
  18650689.186   -22393041.530 6 -15201909.17221
 92  5 25 20 37 29.9900000  0  4G 2G19G15G13
  18262730.9514  -27832080.13148 -21687323.49763
  21774373.967     4214584.687 3   3284062.66321
  21162351.2014  -16611334.84745 -12626260.65261
  18625662.256   -22524554.646 6 -15304386.82221
 92  5 25 20 37 59.9900000  0  4G 2G19G15G13
  18258730.7874  -27853098.45348 -21703701.42964
  21784064.881     4265499.774 3   3323736.50621
  21159209.7564  -16627846.37745 -12639126.82961
  18600711.584   -22655675.038 7 -15406558.46121
 92  5 25 20 38 29.9900000  0  4G 2G19G15G13
  18254757.9044  -27873978.61648 -21719971.70163
  21793769.389     4316500.732 3   3363477.27521
  21156152.5684  -16643902.58845 -12651638.22161
  18575836.240   -22786396.600 7 -15508419.31921
 92  5 25 20 38 59.9900000  0  4G 2G19G15G13
  18250803.201   -27894758.989 8 -21736164.22323
  21803486.467     4367560.413 3   3403263.83121
  21153179.1704  -16659523.11145 -12663810.10561
  18551033.748   -22916732.742 7 -15609979.85321
 92  5 25 20 39 29.9900000  0  4G 2G19G15G13
  18246869.350   -27915431.174 8 -21752272.44123
  21813217.4824    4418703.51343   3443115.32561
  21150296.482   -16674683.981 5 -12675623.82621
  18526309.865   -23046660.471 7 -15711222.14221
 92  5 25 20 39 59.9900000  0  4G 2G19G15G13
  18242952.553   -27936012.269 8 -21768309.67923
  21822966.3184    4469929.88043   3483031.75161
  21147502.709   -16689383.444 5 -12687078.01121
  18501661.881   -23176178.629 7 -15812145.28321
 92  5 25 20 40 29.9900000  0  4G 2G19G15G13
  18239058.920   -27956475.710 8 -21784255.24523
  21832728.998     4521252.641 3   3523023.28521
  21144798.482   -16703593.142 5 -12698150.54521
  18477096.561   -23305274.212 7 -15912739.14521
 92  5 25 20 40 59.9900000  0  4G 2G19G15G13
  18235190.053   -27976809.291 8 -21800099.62323
  21842525.1234    4572694.00543   3563107.21761
  21142186.2014  -16717284.09845 -12708818.86761
  18452611.897   -23433941.477 7 -16012999.25921
 92  5 25 20 41 29.9900000  0  4G 2G19G15G13
  18231343.857   -27997018.436 8 -21815847.03623
  21852333.5294    4624244.49543   3603276.19561
  21139684.7324  -16730470.87345 -12719094.30861
  18428207.201   -23562187.643 7 -16112931.24421
 92  5 25 20 41 59.9900000  0  4G 2G19G15G13
  18227522.1234  -28017100.84648 -21831495.69363
  21862159.225     4675894.262 3   3643522.51621
  21137269.990   -16743153.730 5 -12728977.10921
  18403882.709   -23690012.635 7 -16212535.04221
 92  5 25 20 42 29.9900000  0  4G 2G19G15G13
  18223726.1314  -28037048.17248 -21847039.08363
  21872008.389     4727631.018 3   3683836.62521
  21134951.357   -16755332.623 5 -12738467.19321
  18379639.193   -23817411.769 7 -16311807.01521
 92  5 25 20 42 59.9900000  0  4G 2G19G15G13
  18219952.1154  -28056881.33448 -21862493.51463
  21881867.1704    4779448.03443   3724213.25661
  21132726.545   -16767021.817 5 -12747575.69621
  18355478.4204  -23944380.30847 -16410743.45561
 92  5 25 20 43 29.9900000  0  4G 2G19G15G13
  18216198.9044  -28076604.19348 -21877861.99263
  21891743.8184    4831351.20942   3764657.04761
  21130590.365   -16778228.365 5 -12756308.10621
  18331400.4594  -24070910.99947 -16509338.71861
 92  5 25 20 43 59.9900000  0  4G 2G19G15G13
  18212469.8814  -28096204.14148 -21893134.70263
  21901634.2014    4883343.86842   3805170.54561
  21128548.5614  -16788956.26445 -12764667.54161
  18307405.0924  -24197005.33547 -16607593.96461
 92  5 25 20 44 29.9900000  0  4G 2G19G15G13
  18208764.717   -28115675.480 8 -21908307.19623
  21911554.9284    4935439.42242   3845764.22261
  21126597.7564  -16799209.56445 -12772657.15161
  18283493.0844  -24322661.46547 -16705507.74961
 92  5 25 20 44 59.9900000  0  4G 2G19G15G13
  18205086.014   -28135005.503 8 -21923369.57723
  21921490.4984    4987660.47242   3886455.68261
  21124739.459   -16808978.200 5 -12780269.10821
  18259666.6234  -24447872.33147 -16803074.58161
 92  5 25 20 45 29.9900000  0  4G 2G19G15G13
  18201436.045   -28154182.604 8 -21938312.79823
  21931448.0294    5039994.75042   3927235.36161
  21122980.818   -16818254.307 5 -12787497.27621
  18235922.4754  -24572644.96247 -16900299.92861
 92  5 25 20 45 59.9900000  0  4G 2G19G15G13
  18197816.842   -28173202.695 8 -21953133.67923
  21941425.5224    5092427.56742   3968091.85261
  21121308.428   -16827017.293 5 -12794325.62021
  18212264.561   -24696971.912 7 -16997177.99721
 92  5 25 20 46 29.9900000  0  3G 2G15G13
  18194225.225   -28192079.068 8 -21967842.56523
  21119740.334   -16835246.186 5 -12800737.76321
  18188692.459   -24820843.860 7 -17093701.51421
 92  5 25 20 46 59.9900000  0  3G 2G15G13
  18190657.561   -28210825.180 8 -21982449.94423
  21118278.904   -16842946.221 5 -12806737.82021
  18165206.3114  -24944265.71947 -17189874.31361
 92  5 25 20 47 29.9890000  0  3G 2G15G13
  18187114.899   -28229445.758 8 -21996959.51223
  21116912.2044  -16850124.23645 -12812331.10861
  18141806.3454  -25067231.70547 -17285691.88661
 92  5 25 20 47 59.9890000  0  4G 2G19G15G13
  18183592.954   -28247951.073 8 -22011379.25723
  21981476.931          -0.04512
  21115643.454   -16856801.600 5 -12817534.28721
  18118491.321   -25189750.040 7 -17381160.63621
 92  5 25 20 48 29.9890000  0  4G 2G19G15G13
  18180096.8924  -28266323.01048 -22025695.06863
  21991525.009       52781.202 2        -0.13931
  21114463.493   -16862997.911 5 -12822362.62521
  18095264.7744  -25311808.33547 -17476270.92261
 92  5 25 20 48 59.9890000  0  4G 2G19G15G13
  18176630.446   -28284538.169 8 -22039888.72423
  22001587.540      105654.150 2     41199.28321
  21113372.954   -16868727.303 5 -12826827.14321
  18072128.0954  -25433396.49347 -17571014.85761
 92  5 25 20 49 29.9890000  0  4G 2G19G15G13
  18173191.860   -28302609.414 8 -22053970.23923
  22011658.8144     158598.28442     82454.18861
  21112365.321   -16874010.502 5 -12830943.96621
  18049077.4154  -25554526.32747 -17665401.66161
 92  5 25 20 49 59.9890000  0  4G 2G19G15G13
  18169779.149   -28320542.635 8 -22067944.19823
  22021749.079      211623.588 2    123772.32021
  21111446.2354  -16878847.13845 -12834712.83861
  18026113.884   -25675195.720 7 -17759429.67921
 92  5 25 20 50 29.9890000  0  4G 2G19G15G13
  18166394.306   -28338332.597 8 -22081806.52923
  22031855.329      264734.945 2    165157.50421
  21110613.907   -16883215.789 5 -12838117.03921
  18003240.2514  -25795397.87347 -17853093.62061
 92  5 25 20 50 59.9890000  0  4G 2G19G15G13
  18163038.360   -28355969.571 8 -22095549.65023
  22041981.595      317939.928 2    206615.63921
  21109877.1184  -16887085.45645 -12841132.43961
  17980459.5874  -25915113.83447 -17946378.71261
 92  5 25 20 51 29.9890000  0  4G 2G19G15G13
  18159703.814   -28373492.331 8 -22109203.77923
  22052120.6574     371224.75042    248135.98761
  21109233.0644  -16890471.45245 -12843770.96461
  17957765.6494  -26034369.17447 -18039304.86861
 92  5 25 20 51 59.9890000  0  4G 2G19G15G13
  18156393.446   -28390888.103 8 -22122758.95723
  22062276.5404     424605.56542    289731.15861
  21108687.4234  -16893356.04545 -12846018.78161
  17935161.8214  -26153153.71047 -18131864.17761
 92  5 25 20 52 29.9890000  0  4G 2G19G15G13
  18153108.399   -28408152.325 8 -22136211.63223
  22072450.282      478057.072 2    331381.33521
  21108226.8924  -16895755.73645 -12847888.74561
  17912645.3454  -26271475.32547 -18224062.76661
 92  5 25 20 52 59.9890000  0  4G 2G19G15G13
  18149848.251   -28425284.871 8 -22149561.69723
  22082638.228      531596.550 2    373100.12421
  21107859.415   -16897676.576 5 -12849385.59921
  17890221.0564  -26389318.78447 -18315888.76961
 92  5 25 20 53 29.9890000  0  4G 2G19G15G13
  18146610.774   -28442296.274 8 -22162817.36223
  22092840.6034     585196.01442
  21107586.314   -16899133.012 5 -12850520.57121
  17867884.1894  -26506696.62547 -18407351.94661
 92  5 25 20 53 59.9890000  0  4G 2G19G15G13
  18143401.173   -28459163.473 8 -22175960.65923
  22103047.931      638840.134 2
  21107400.603   -16900121.670 5 -12851291.04221
  17845638.7674  -26623597.56347 -18498443.51561
 92  5 25 20 54 29.9890000  0  4G 2G19G15G13
  18140218.134   -28475890.709 8 -22188994.89123
  22113261.4704     692525.99542        -0.21571
  21107295.7284  -16900652.46045 -12851704.73561
  17823484.8764  -26740019.25347 -18589161.64961
 92  5 25 20 54 59.9890000  0  3G 2G15G13
  18137059.907   -28492486.350 8 -22201926.58823
  21107284.9394  -16900721.94845
  17801420.7594  -26855965.25747 -18679509.10661
 92  5 25 20 55 29.9890000  0  3G 2G15G13
  18133932.821   -28508918.708 8 -22214731.04623
  21107362.267   -16900314.026 5
  17779448.6814  -26971429.95347 -18769481.52961
 92  5 25 20 55 59.9890000  0  3G 2G15G13
  18130836.454   -28525191.431 8 -22227411.11623
  21107529.1494  -16899432.04645 -12850754.03861
  17757566.9314  -27086415.12747 -18859080.29361
 92  5 25 20 56 29.9890000  0  3G 2G15G13
  18127770.782   -28541304.915 8 -22239967.10923
  21107788.3214  -16898061.78245 -12849686.36961
  17735780.2124  -27200906.33847 -18948294.15961
 92  5 25 20 56 59.9890000  0  3G 2G15G13
  18124731.860   -28557272.646 8 -22252409.52823
  21108141.892   -16896221.407 5 -12848252.41021
  17714085.2594  -27314916.45147 -19037133.14261
 92  5 25 20 57 29.9890000  0  3G 2G15G13
  18121720.142   -28573097.539 8 -22264740.64923
  21108580.314   -16893914.136 5 -12846454.60021
  17692482.1344  -27428439.02247 -19125592.22561
 92  5 25 20 57 59.9890000  0  3G 2G15G13
  18118730.579   -28588807.431 8 -22276982.15323
  21109108.017   -16891150.642 5 -12844301.29621
  17670972.3994  -27541474.18347 -19213671.50661
 92  5 25 20 58 29.9890000  0  3G 2G15G13
  18115764.564   -28604395.570 8 -22289128.78523
  21109718.9394  -16887936.44745 -12841796.79561
  17649557.7514  -27654008.44947 -19301360.48661
 92  5 25 20 58 59.9890000  0  3G 2G15G13
  18112819.243   -28619873.142 8 -22301189.26023
  21110413.931   -16884275.132 5 -12838943.90921
  17628237.2674  -27766050.45747 -19388665.89061
 92  5 25 20 59 29.9890000  0  3G 2G15G13
  18109897.220   -28635228.203 8 -22313154.26723
  21111197.142   -16880156.148 5 -12835734.40421
  17607011.9624  -27877588.50447 -19475578.59861
 92  5 25 20 59 59.9890000  0  3G 2G15G13
  18106997.220   -28650466.574 8 -22325028.34423
  21112071.1104  -16875582.44845 -12832170.55561
  17585881.8214  -27988629.13447 -19562103.70061
 92  5 25 21  0 29.9890000  0  3G 2G15G13
  18104126.501   -28665553.790 8 -22336784.64223
  21113032.7984  -16870522.09545 -12828227.49761
  17564850.0014  -28099150.75347 -19648224.38162
 92  5 25 21  0 59.9890000  0  3G 2G15G13
  18101281.564   -28680503.326 8 -22348433.66323
  21114084.8994  -16864981.93145 -12823910.58361
  17543913.3994  -28209172.22647 -19733955.33762
 92  5 25 21  1 29.9890000  0  3G 2G15G13
  18098467.017   -28695292.783 8 -22359957.94623
  21115229.0794  -16858969.04645 -12819225.31261
  17523072.9464  -28318689.73247 -19819293.59161
 92  5 25 21  1 59.9890000  0  3G 2G15G13
  18095685.493   -28709913.084 8 -22371350.41523
  21116467.048   -16852467.815 5 -12814159.51121
  17502329.6424  -28427693.97547 -19904231.90261
 92  5 25 21  2 29.9890000  0  4G12G 2G15G13
  21736118.0174    -142519.10943
  18092934.165   -28724371.605 8 -22382616.81923
  21117791.9394  -16845507.40745 -12808735.88361
  17481681.8924  -28536198.01447 -19988780.43961
 92  5 25 21  2 59.9890000  0  4G12G 2G15G13
  21708978.7204    -285146.02243
  18090212.478   -28738674.278 8 -22393761.79023
  21119199.243   -16838111.658 5 -12802973.01821
  17461128.8144  -28644206.27547 -20072942.65762
 92  5 25 21  3 29.9880000  0  4G12G 2G15G13
  21681820.332     -427860.823 3        -0.29431
  18087520.699   -28752816.521 8 -22404781.75223
  21120691.9104  -16830273.32345 -12796865.31061
  17440674.1214  -28751699.62347 -20156703.64762
 92  5 25 21  3 59.9880000  0  4G12G 2G15G13
  21654645.527     -570658.124 3   -111270.83421
  18084860.356   -28766801.252 8 -22415678.97323
  21122269.5594  -16821982.96445 -12790405.36061
  17420316.2544  -28858671.18647 -20240058.05462
 92  5 25 21  4 29.9880000  0  4G12G 2G15G13
  21627457.488     -713547.767 3   -222613.27621
  18082225.527   -28780644.131 8 -22426465.66223
  21123928.9734  -16813266.42445 -12783613.33161
  17400058.6134  -28965131.72647 -20323014.26662
 92  5 25 21  4 59.9880000  0  4G12G 2G15G13
  21600244.418     -856534.335 3   -334031.29921
  18079616.645   -28794358.234 8 -22437152.00923
  21125669.7934  -16804118.20445 -12776484.93161
  17379896.3484  -29071086.23147 -20405576.15562
 92  5 25 21  5 29.9880000  0  4G12G 2G15G13
  21573024.168     -999587.844 3   -445501.48721
  18077037.762   -28807907.560 8 -22447709.96223
  21127500.535   -16794497.396 5 -12768988.26621
  17359835.317   -29176504.622 7 -20487720.29922
 92  5 25 21  5 59.9880000  0  4G12G 2G15G13
  21545785.496    -1142713.676 3   -557027.99921
  18074493.809   -28821280.919 8 -22458130.79323
  21129419.1994  -16784409.79645 -12761127.87261
  17339875.1994  -29281392.91747 -20569451.38362
 92  5 25 21  6 29.9880000  0  4G12G 2G15G13
  21518534.926    -1285929.886 3   -668624.95421
  18071979.574   -28834490.747 8 -22468424.19923
  21131423.8874  -16773871.95845 -12752916.64461
  17320013.1844  -29385769.65647 -20650783.85762
 92  5 25 21  6 59.9880000  0  4G12G 2G15G13
  21491265.395    -1429228.156 3   -780285.81121
  18069498.996   -28847528.292 8 -22478583.35523
  21133517.317   -16762876.215 5 -12744348.60321
  17300249.895   -29489626.692 7 -20731711.36422
 92  5 25 21  7 29.9880000  0  4G12G 2G15G13
  21463979.246    -1572614.176 3   -892015.06821
  18067051.324   -28860391.516 8 -22488606.67223
  21135693.6844  -16751433.80545 -12735432.51361
  17280584.137   -29592970.639 7 -20812239.06121
 92  5 25 21  7 59.9880000  0  4G12G 2G15G13
  21436678.2464   -1716074.02443  -1003801.88561
  18064635.059   -28873082.031 8 -22498495.41723
  21137958.692   -16739538.428 5 -12726163.45821
  17261019.426   -29695787.258 7 -20892355.85421
 92  5 25 21  8 29.9880000  0  4G12G 2G15G13
  21409367.3484   -1859613.28043  -1115650.53261
  18062247.207   -28885632.026 8 -22508274.66223
  21140303.8714  -16727203.29445 -12716551.75061
  17241553.1214  -29798082.72647 -20972066.55762
 92  5 25 21  8 59.9880000  0  4G12G 2G15G13
  21382032.481    -2003244.606 3  -1227570.93521
  18059882.145   -28898063.911 8 -22517961.87023
  21142732.988   -16714446.268 5 -12706611.28521
  17222183.3324  -29899870.66347 -21051381.78162
 92  5 25 21  9 29.9880000  0  4G12G 2G15G13
  21354684.309    -2146956.155 3  -1339553.88121
  18057539.863   -28910370.030 8 -22527551.08023
  21145243.660   -16701262.954 5 -12696338.66021
  17202913.020   -30001139.669 7 -21130292.64722
 92  5 25 21  9 59.9880000  0  4G12G 2G15G13
  21327322.574    -2290754.909 3  -1451604.72221
  18055218.395   -28922574.303 8 -22537060.92823
  21147826.363   -16687677.750 5 -12685752.88121
  17183738.1684  -30101896.99047 -21208804.79562
 92  5 25 21 10 29.9880000  0  4G12G 2G15G13
  21299943.496    -2434625.109 3  -1563711.29521
  18052918.121   -28934655.593 8 -22546474.94423
  21150488.918   -16673679.198 5 -12674844.99921
  17164666.035   -30202127.926 7 -21286906.77322
 92  5 25 21 10 59.9880000  0  4G12G 2G15G13
  21272549.2704   -2578580.22843  -1675883.98561
  18050644.762   -28946603.462 8 -22555785.00523
  21153229.762   -16659279.750 5 -12663624.68321
  17145689.910   -30301846.474 7 -21364609.48922
 92  5 25 21 11 29.9880000  0  4G12G 2G15G13
  21245142.043    -2722606.359 3  -1788112.07421
  18048399.801   -28958405.942 8 -22564981.77323
  21156047.723   -16644476.625 5 -12652089.83621
  17126814.106   -30401039.320 7 -21441902.56322
 92  5 25 21 11 59.9880000  0  4G12G 2G15G13
  21217721.043    -2866701.791 3  -1900394.12121
  18046181.731   -28970059.699 8 -22574062.65723
  21158941.715   -16629271.115 5 -12640241.49021
  17108039.231   -30499705.719 7 -21518785.42722
 92  5 25 21 12 29.9880000  0  4G12G 2G15G13
  21190289.184    -3010858.323 3  -2012723.80221
  18043996.762   -28981536.656 8 -22583005.77423
  21161918.8874  -16613633.65345 -12628056.56161
  17089364.137   -30597838.196 7 -21595252.24722
 92  5 25 21 12 59.9880000  0  4G12G 2G15G13
  21162842.192    -3155091.477 3  -2125113.16821
  18041844.692   -28992854.900 8 -22591825.21922
  21164969.8484  -16597588.87545 -12615554.20261
  17070788.684   -30695452.934 7 -21671315.63721
 92  5 25 21 13 29.9880000  0  4G12G 2G15G13
  21135387.551    -3299379.633 3  -2237545.41121
  18039721.059   -29004006.329 8 -22600514.67322
  21168104.2704  -16581118.10645 -12602719.89061
  17052316.184   -30792529.231 7 -21746959.45921
 92  5 25 21 13 59.9880000  0  4G12G 2G15G13
  21107916.4814   -3443719.61643  -2350018.02161
  18037633.574   -29014982.019 8 -22609067.19222
  21171323.4344  -16564205.74045 -12589541.48561
  17033945.465   -30889064.770 7 -21822181.91222
 92  5 25 21 14 29.9880000  0  4G12G 2G15G13
  21080441.582    -3588119.540 4  -2462537.36721
  18035574.981   -29025796.413 8 -22617494.02822
  21174621.113   -16546876.789 4 -12576038.48321
  17015676.777   -30985068.780 7 -21896990.18922
 92  5 25 21 14 59.9880000  0  4G12G 2G15G13
  21052952.988    -3732572.110 4  -2575097.69921
  18033545.418   -29036467.149 8 -22625808.91923
  21177995.715   -16529159.028 5 -12562232.51521
  16997510.277   -31080534.970 7 -21971379.38022
 92  5 25 21 15 29.9880000  0  4G12G 2G15G13
  21025454.192    -3877077.706 4  -2687699.36221
  18031541.262   -29046998.980 8 -22634015.57622
  21181439.809   -16511051.191 5 -12548122.58221
  16979445.840   -31175464.179 7 -22045350.15822
 92  5 25 21 15 59.9880000  0  4G12G 2G15G13
  20997946.1604   -4021624.76944  -2800333.33361
  18029565.965   -29057372.804 8 -22642099.10622
  21184959.356   -16492545.612 5 -12533702.71521
  16961484.856   -31269846.346 7 -22118894.66722
 92  5 25 21 16 29.9880000  0  4G12G 2G15G13
  20970434.129    -4166214.971 4  -2913000.92821
  18027622.223   -29067591.859 8 -22650062.03822
  21188557.4344  -16473641.78244 -12518972.53561
  16943628.027   -31363684.417 7 -22192015.20422
 92  5 25 21 16 59.9880000  0  4G12G 2G15G13
  20942910.8714   -4310847.24844  -3025701.30861
  18025710.192   -29077639.282 8 -22657891.23222
  21192237.6454  -16454308.66044 -12503907.82961
  16925875.277   -31456978.046 7 -22264711.49621
 92  5 25 21 17 29.9880000  0  4G12G 2G15G13
  20915377.9734   -4455526.05544  -3138437.94461
  18023833.067   -29087501.191 8 -22665575.86622
  21195998.3324  -16434526.57244 -12488493.28861
  16908224.715   -31549732.847 7 -22336987.92622
 92  5 25 21 17 59.9880000  0  4G12G 2G15G13
  20887841.6844   -4600241.85444  -3251203.42661
  18021994.793   -29097165.668 8 -22673106.65522
  21199855.3324  -16414286.76844 -12472722.09961
  16890677.512   -31641940.429 7 -22408837.95422
 92  5 25 21 18 29.9880000  0  4G12G 2G15G13
  20860298.0274   -4744984.08545  -3363989.47561
  18020194.910   -29106624.740 8 -22680477.40022
  21203788.9814  -16393597.53344 -12456600.67861
  16873236.879   -31733591.384 7 -22480254.24822
 92  5 25 21 18 59.9880000  0  4G12G 2G15G13
  20832748.0594   -4889760.94845  -3476802.51861
  18018430.535   -29115897.889 7 -22687703.27122
  21207804.3244  -16372499.88345 -12440160.98561
  16855901.481   -31824695.393 8 -22551244.34422
 92  5 25 21 19 29.9870000  0  4G12G 2G15G13
  20805193.624    -5034554.940 5  -3589628.93321
  18016697.812   -29124996.125 7 -22694792.84622
  21211893.444   -16351010.196 5 -12423415.79921
  16838671.093   -31915238.152 7 -22621797.10122
 92  5 25 21 19 59.9870000  0  4G12G 2G15G13
  20777636.2104   -5179366.17345  -3702468.74561
  18014999.218   -29133924.230 7 -22701749.85122
  21216052.9994  -16329137.10745 -12406371.92461
  16821548.538   -32005216.942 7 -22691910.40522
 92  5 25 21 20 29.9870000  0  4G12G 2G15G13
  20750075.4214   -5324200.32045  -3815326.44061
  18013330.054   -29142697.448 8 -22708586.17322
  21220287.7804  -16306899.06745 -12389043.60061
  16804531.499   -32094640.760 7 -22761591.26422
 92  5 25 21 20 59.9870000  0  4G12G 2G15G13
  20722512.905    -5469049.294 5  -3928195.68321
  18011689.687   -29151320.036 7 -22715305.11422
  21224593.124   -16284276.229 5 -12371415.47021
  16787621.546   -32183503.135 7 -22830834.63622
 92  5 25 21 21 29.9870000  0  4G12G 2G15G13
  20694943.3594   -5613918.58145  -4041080.74761
  18010078.546   -29159787.828 7 -22721903.43422
  21228973.702   -16261253.068 5 -12353475.34121
  16770816.749   -32271810.890 7 -22899645.83622
 92  5 25 21 21 59.9870000  0  5G12G 2G24G15G13
  20667372.4604   -5758807.83445  -4153981.38161
  18008498.359   -29168089.915 7 -22728372.64022
  21539139.3044         -0.78154
  21233431.8664  -16237826.89845 -12335221.21861
  16754118.007   -32359565.421 7 -22968025.95422
 92  5 25 21 22 29.9870000  0  5G12G 2G24G15G13
  20639797.2414   -5903718.11645  -4266898.38861
  18006949.366   -29176227.386 7 -22734713.56822
  21509543.9524    -155512.88644
  21237968.1324  -16213989.71145 -12316646.82861
  16737523.562   -32446768.840 7 -23035976.63422
 92  5 25 21 22 59.9870000  0  5G12G 2G24G15G13
  20612218.280    -6048635.626 5  -4379821.03521
  18005436.835   -29184178.120 7 -22740908.98222
  21479933.171     -311125.380 4
  21242586.163   -16189723.410 5 -12297738.05121
  16721036.155   -32533409.479 7 -23103488.78322
 92  5 25 21 23 29.9870000  0  5G12G 2G24G15G13
  20584640.554    -6193559.841 5  -4492748.91021
  18003960.163   -29191936.456 7 -22746954.47322
  21450300.1324    -466841.42244        -0.19871
  21247282.726   -16165033.088 5 -12278498.88521
  16704656.124   -32619487.812 8 -23170562.77822
 92  5 25 21 23 59.9870000  0  5G12G 2G24G15G13
  20557060.1014   -6338500.05545  -4605689.25961
  18002516.359   -29199523.635 7 -22752866.59822
  21420644.827     -622679.705 4   -121432.27221
  21252058.8434  -16139939.71744 -12258945.63661
  16688381.171   -32705014.880 8 -23237207.21222
 92  5 25 21 24 29.9870000  0  5G12G 2G24G15G13
  20529477.4444   -6483452.89945  -4718639.43461
  18001106.632   -29206933.887 7 -22758640.86422
  21390965.210     -778638.125 4   -242957.97021
  21256909.6794  -16114445.57244 -12239080.11061
  16672210.952   -32789988.984 8 -23303420.76822
 92  5 25 21 24 59.9870000  0  5G12G 2G24G15G13
  20501892.148    -6628407.545 5  -4831591.01021
  17999732.109   -29214153.953 7 -22764266.93322
  21361269.788     -934695.075 4   -364560.43821
  21261838.390   -16088554.452 5 -12218905.28221
  16656148.124   -32874401.164 8 -23369196.46222
 92  5 25 21 25 29.9870000  0  5G12G 2G24G15G13
  20474309.5464   -6773355.51945  -4944537.37961
  17998394.546   -29221186.340 7 -22769746.75822
  21331558.749    -1090828.200 4   -486222.28121
  21266839.280   -16062267.099 5 -12198421.67421
  16640192.999   -32958244.625 8 -23434528.99922
 92  5 25 21 25 59.9870000  0  5G12G 2G24G15G13
  20446726.640    -6918307.038 5  -5057486.51821
  17997090.530   -29228038.987 7 -22775086.52622
  21301830.530    -1247049.656 4   -607952.95521
  21271914.0854  -16035601.50245 -12177643.30961
  16624343.890   -33041530.947 8 -23499427.40422
 92  5 25 21 26 29.9870000  0  5G12G 2G24G15G13
  20419138.4054   -7063274.60345  -5170448.16061
  17995821.046   -29234707.055 7 -22780282.47222
  21272083.155    -1403369.956 4   -729760.57921
  21277057.109   -16008581.618 5 -12156588.89321
  16608598.749   -33124274.531 8 -23563902.89622
 92  5 25 21 26 59.9870000  0  5G12G 2G24G15G13
  20391550.874    -7208258.749 5  -5283422.71521
  17994585.843   -29241199.246 7 -22785341.36822
  21242316.3274   -1559801.64845   -851655.06061
  21282264.718   -15981216.493 5 -12135265.46521
  16592955.5304  -33206477.73248 -23627957.30862
 92  5 25 21 27 29.9870000  0  5G12G 2G24G15G13
  20363962.976    -7353240.471 5  -5396395.39321
  17993386.812   -29247504.061 7 -22790254.26022
  21212527.687    -1716338.078 5   -973631.16821
  21287539.7884  -15953495.47944 -12113664.72361
  16577417.929   -33288123.899 8 -23691577.66822
 92  5 25 21 27 59.9870000  0  5G12G 2G24G15G13
  20336371.0854   -7498227.27145  -5509372.03561
  17992221.944   -29253625.990 7 -22795024.63822
  21182713.780    -1873000.170 4  -1095705.19321
  21292877.6944  -15925434.57544 -12091799.11161
  16561986.3904  -33369221.78048 -23754770.79962
 92  5 25 21 28 29.9870000  0  5G12G 2G24G15G13
  20308782.0154   -7643207.02445  -5622343.19161
  17991092.163   -29259558.880 7 -22799647.70322
  21152881.491    -2029771.914 4  -1217864.63721
  21298282.5934  -15897028.49544 -12069664.56161
  16546659.898   -33449761.565 8 -23817529.04822
 92  5 25 21 28 59.9870000  0  4G12G 2G24G13
  20281192.952    -7788185.466 5  -5735313.31821
  17989993.968   -29265333.613 7 -22804147.53622
  21123028.9134   -2186653.76844  -1340109.85461
  16531438.265   -33529750.921 8 -23879858.38622
 92  5 25 21 29 29.9870000  0  4G12G 2G24G13
  20253608.2184   -7933147.65545  -5848270.78761
  17988927.819   -29270937.462 7 -22808514.21722
  21093159.5154   -2343613.69844  -1462415.92661
  16516324.413   -33609177.126 8 -23941748.90622
 92  5 25 21 29 59.9870000  0  4G12G 2G24G13
  20226024.694    -8078101.980 5  -5961222.12321
  17987893.187   -29276370.926 7 -22812748.12222
  21063276.187    -2500651.571 4  -1584782.72021
  16501315.4994  -33688050.29948 -24003208.50762
 92  5 25 21 30 29.9870000  0  4G12G 2G24G13
  20198440.1404   -8223052.77845  -6074170.70861
  17986890.007   -29281641.999 7 -22816855.49622
  21033378.6634   -2657766.09244  -1707209.24561
  16486409.702   -33766377.316 8 -24064242.51522
 92  5 25 21 30 59.9870000  0  4G12G 2G24G13
  20170861.3514   -8367985.65845  -6187105.34461
  17985921.609   -29286735.332 7 -22820824.36422
  21003467.1324   -2814944.45144  -1829685.53861
  16471611.562   -33844145.400 8 -24124840.99622
 92  5 25 21 31 29.9870000  0  4G12G 2G24G13
  20143284.1484   -8512904.16645  -6300028.77761
  17984987.187   -29291642.580 7 -22824648.23222
  20973545.8594   -2972196.47244  -1952219.17661
  16456918.2104  -33921360.51848 -24185008.59962
 92  5 25 21 31 59.9870000  0  4G12G 2G24G13
  20115712.0304   -8657799.24945  -6412933.94561
  17984090.452   -29296357.512 7 -22828322.24522
  20943603.616    -3129518.101 4  -2074807.03921
  16442330.4834  -33998015.40048 -24244739.65562
 92  5 25 21 32 29.9870000  0  4G12G 2G24G13
  20088144.2494   -8802662.97745  -6525814.70261
  17983229.765   -29300881.627 7 -22831847.56722
  20913657.952    -3286899.407 4  -2197441.40321
  16427851.819   -34074104.429 8 -24304029.78922
 92  5 25 21 32 59.9870000  0  4G12G 2G24G13
  20060589.0154   -8947474.57645  -6638654.83861
  17982407.343   -29305200.791 7 -22835213.18322
  20883700.476    -3444312.225 4  -2320100.34621
  16413483.7334  -34149609.34448 -24362864.76462
 92  5 25 21 33 29.9870000  0  4G12G 2G24G13
  20033039.132    -9092243.138 5  -6751461.41621
  17981621.976   -29309323.943 7 -22838426.07022
  20853735.898    -3601770.158 4  -2442794.38821
  16399224.2884  -34224541.26448 -24421253.25962
 92  5 25 21 33 59.9870000  0  4G12G 2G24G13
  20005497.4684   -9236977.31345  -6864241.23061
  17980873.757   -29313261.671 7 -22841494.47222
  20823763.3434   -3759280.13845  -2565529.02661
  16385071.9134  -34298911.44648 -24479204.02662
 92  5 25 21 34 29.9870000  0  4G12G 2G24G13
  19977962.523    -9381676.284 5  -6976993.60821
  17980159.976   -29317012.435 7 -22844417.18522
  20793778.765    -3916848.868 5  -2688309.43021
  16371026.577   -34372721.404 8 -24536718.25422
 92  5 25 21 34 59.9870000  0  4G12G 2G24G13
  19950435.749    -9526327.738 5  -7089708.95321
  17979484.976   -29320559.990 7 -22847181.55722
  20763784.390    -4074472.437 5  -2811132.57621
  16357089.1014  -34445960.72548 -24593787.83962
 92  5 25 21 35 29.9860000  0  4G12G 2G24G13
  19922918.908    -9670928.614 5  -7202384.89721
  17978848.276   -29323906.507 7 -22849789.27622
  20733779.3774   -4232148.51045  -2933996.67061
  16343260.3544  -34518631.76548 -24650414.60662
 92  5 25 21 35 59.9860000  0  4G12G 2G24G13
  19895412.8544   -9815474.71345  -7315018.14961
  17978251.276   -29327042.937 7 -22852233.29422
  20703768.8854   -4389852.46245  -3056882.46361
  16329541.5804  -34590728.20648 -24706593.63262
 92  5 25 21 36 29.9860000  0  4G12G 2G24G13
  19867915.3774   -9959971.17145  -7427612.72461
  17977692.080   -29329983.582 7 -22854524.75022
  20673752.3934   -4547585.08545  -3179790.60661
  16315929.401   -34662259.753 8 -24762332.47522
 92  5 25 21 36 59.9860000  0  4G12G 2G24G13
  19840428.190   -10104414.219 5  -7540165.69221
  17977168.221   -29332730.300 7 -22856665.09622
  20643733.791    -4705335.157 5  -3302712.39121
  16302424.4634  -34733225.08848 -24817630.12162
 92  5 25 21 37 29.9860000  0  4G12G 2G24G13
  19812951.7294  -10248808.16145  -7652680.37161
  17976679.8074  -29335298.26147 -22858666.15962
  20613710.8934   -4863099.23445  -3425645.07061
  16289027.0414  -34803631.25748 -24872492.05262
 92  5 25 21 37 59.9860000  0  4G12G 2G24G13
  19785485.2764  -10393145.52045  -7765150.97961
  17976228.299   -29337675.377 7 -22860518.50822
  20583685.9324   -5020879.02645  -3548589.96561
  16275736.690   -34873473.322 8 -24926914.41922
 92  5 25 21 38 29.9860000  0  4G12G 2G24G13
  19758031.0574  -10537417.42645  -7877570.57661
  17975811.7604  -29339862.63547 -22862222.92062
  20553656.3774   -5178683.77445  -3671554.35161
  16262554.7054  -34942744.73448 -24980892.12162
 92  5 25 21 38 59.9860000  0  4G12G 2G24G13
  19730587.6974  -10681635.61445  -7989948.33061
  17975430.799   -29341867.205 7 -22863784.97522
  20523622.666    -5336520.545 5  -3794543.68321
  16249478.6664  -35011459.85748 -25034436.35662
 92  5 25 21 39 29.9860000  0  4G12G 2G24G13
  19703152.8074  -10825803.11345  -8102286.56961
  17975085.033   -29343680.955 7 -22865198.33122
  20493582.7134   -5494386.68045  -3917555.92761
  16236507.6114  -35079624.24248 -25087551.43962
 92  5 25 21 39 59.9860000  0  4G12G 2G24G13
  19675730.4324  -10969908.83445  -8214576.68261
  17974778.9864  -29345286.33947 -22866449.33662
  20463538.885    -5652265.504 5  -4040578.05621
  16223642.4474  -35147230.10048 -25140231.30962
 92  5 25 21 40 29.9860000  0  4G12G 2G24G13
  19648320.7684  -11113950.41145  -8326816.79561
  17974513.580   -29346692.407 7 -22867545.02422
  20433493.580    -5810147.038 5  -4163602.26921
  16210883.5264  -35214277.84748 -25192476.28662
 92  5 25 21 40 59.9860000  0  4G12G 2G24G13
  19620924.0494  -11257919.93145  -8439000.77961
  17974287.0264  -29347881.98347 -22868472.02362
  20403452.1044   -5968017.24345  -4286617.68561
  16198231.8304  -35280762.19748 -25244282.25762
 92  5 25 21 41 29.9860000  0  4G12G 2G24G13
  19593540.0104  -11401825.61545  -8551135.01161
  17974097.033   -29348874.460 7 -22869245.43022
  20373409.6274   -6125891.24945  -4409636.05661
  16185686.2914  -35346694.52848 -25295658.07962
 92  5 25 21 41 59.9860000  0  4G12G 2G24G13
  19566166.6824  -11545668.16545  -8663220.04561
  17973941.151   -29349684.446 7 -22869876.63322
  20343362.424    -6283790.128 5  -4532673.80321
  16173243.9244  -35412077.80248 -25346606.07362
 92  5 25 21 42 29.9860000  0  4G12G 2G24G13
  19538809.4164  -11689437.18145  -8775247.77961
  17973826.315   -29350296.762 7 -22870353.80822
  20313308.0964   -6441718.41045  -4655734.48261
  16160907.0264  -35476904.86448 -25397120.65662
 92  5 25 21 42 59.9860000  0  4G12G 2G24G13
  19511462.815   -11833135.000 5  -8887220.05221
  17973749.6514  -29350699.39647
  20283250.236    -6599681.144 5  -4778821.98021
  16148676.3544  -35541181.04148 -25447205.97362
 92  5 25 21 43 29.9860000  0  4G12G 2G24G13
  19484133.6514  -11976753.66945  -8999130.63561
  17973712.6194  -29350898.91147
  20253183.744    -6757673.912 5  -4901932.88721
  16136550.4404  -35604901.44048 -25496858.21962
 92  5 25 21 43 59.9860000  0  4G12G 2G24G13
  19456819.486   -12120294.903 5  -9110980.89021
  17973713.2914  -29350896.12547
  20223112.5264   -6915694.97845  -5025065.87061
  16124529.3384  -35668070.83848 -25546081.11262
 92  5 25 21 44 29.9860000  0  4G12G 2G24G13
  19429520.658   -12263754.310 6  -9222767.37221
  17973751.5184  -29350686.19347
  20193044.455    -7073706.595 5  -5148191.50321
  16112613.8774  -35730687.48148 -25594873.28862
 92  5 25 21 44 59.9860000  0  4G12G 2G24G13
  19402235.0024  -12407137.98946  -9334494.85561
  17973826.0494  -29350292.36247
  20162978.932    -7231698.379 5  -5271301.67721
  16100801.6194  -35792760.57248 -25643241.91762
 92  5 25 21 45 29.9860000  0  4G12G 2G24G13
  19374963.651   -12550445.032 6  -9446162.62121
  17973934.9554  -29349721.54947 -22869905.91662
  20132918.2054   -7389675.85845  -5394400.72061
  16089092.9404  -35854292.56548 -25691188.91762
 92  5 25 21 45 59.9860000  0  4G12G 2G24G13
  19347709.8854  -12693664.68146  -9557762.29261
  17974081.822   -29348949.704 7 -22869304.53222
  20102859.080    -7547630.314 5  -5517481.82321
  16077488.5654  -35915275.57648 -25738708.13262
 92  5 25 21 46 29.9860000  0  4G12G 2G24G13
  19320473.5654  -12836793.07646  -9669290.85561
  17974267.502   -29347971.233 7 -22868542.14122
  20072804.346    -7705567.929 5  -5640549.80621
  16065988.7684  -35975708.58448 -25785798.77762
 92  5 25 21 46 59.9860000  0  4G12G 2G24G13
  19293253.7604  -12979840.98546  -9780756.69861
  17974491.7134  -29346800.62947 -22867630.03662
  20042743.9554   -7863539.02945  -5763643.87061
  16054589.3934  -36035606.48348 -25832472.45862
 92  5 25 21 47 29.9860000  0  4G12G 2G24G13
  19266049.151   -13122795.534 6  -9892149.79521
  17974754.6194  -29345418.73447 -22866553.28662
  20012677.4324   -8021537.18945  -5886759.03561
  16043294.9554  -36094959.60248 -25878721.63561
 92  5 25 21 47 59.9860000  0  4G12G 2G24G13
  19238863.0024  -13265664.88046 -10003476.50461
  17975055.494   -29343844.135 7 -22865326.37822
  19982607.1354   -8179555.91345  -6009890.23061
  16032102.5334  -36153778.84748 -25924554.80962
 92  5 25 21 48 29.9860000  0  4G12G 2G24G13
  19211692.5104  -13408445.22646 -10114733.85961
  17975389.588   -29342091.361 7 -22863960.63722
  19952536.268    -8337577.786 5  -6133023.88121
  16021011.1114  -36212063.48448 -25969971.40262
 92  5 25 21 48 59.9860000  0  4G12G 2G24G13
  19184540.901   -13551124.641 6 -10225912.56721
  17975756.1744  -29340160.15547 -22862455.86062
  19922471.2294   -8495568.56745  -6256133.30561
  16010023.3544  -36269805.28948 -26014965.00662
 92  5 25 21 49 29.9860000  0  4G12G 2G24G13
  19157405.893   -13693717.409 6 -10337023.76921
  17976157.0804  -29338059.51847 -22860819.06162
  19892415.6514   -8653507.87045  -6379202.61661
  15999135.2134  -36327021.44248 -26059549.01162
 92  5 25 21 49 59.9860000  0  4G12G 2G24G13
  19130289.8304  -13836220.22046 -10448064.85761
  17976586.6974  -29335796.40347 -22859055.65462
  19862371.346    -8811387.470 5  -6502225.42121
  15988347.9244  -36383712.14548 -26103723.57862
 92  5 25 21 50 29.9860000  0  4G12G 2G24G13
  19103187.6274  -13978637.38946 -10559039.21461
  17977047.2684  -29333371.79647 -22857166.41361
  19832338.5654   -8969211.12745  -6625204.62061
  15977657.5724  -36439885.36148 -26147494.90362
 92  5 25 21 50 59.9850000  0  4G12G 2G24G13
  19076104.458   -14120958.152 6 -10669938.44521
  17977545.6534  -29330759.03447 -22855130.56261
  19802317.786    -9126972.205 5  -6748135.04021
  15967067.9274  -36495536.56248 -26190859.45962
 92  5 25 21 51 29.9850000  0  4G12G 2G24G13
  19049037.6934  -14263194.73246 -10780772.09361
  17978077.3414  -29327959.72147 -22852949.34562
  19772303.607    -9284696.524 5  -6871036.82621
  15956575.6774  -36550675.43548 -26233824.80462
 92  5 25 21 51 59.9850000  0  4G12G 2G24G13
  19021989.9744  -14405342.23246 -10891536.32261
  17978644.3414  -29324982.69147 -22850629.65061
  19742293.3964   -9442400.99345  -6993923.12261
  15946180.0444  -36605303.76448 -26276392.31862
 92  5 25 21 52 29.9850000  0  4G12G 2G24G13
  18994959.2164  -14547386.49446 -11002220.10461
  17979248.4584  -29321805.67047 -22848154.11462
  19712286.7394   -9600084.78445  -7116793.32261
  15935883.0754  -36659411.12348 -26318553.88362
 92  5 25 21 52 59.9850000  0  4G12G 2G24G13
  18967948.3024  -14689323.29646 -11112820.14861
  17979892.1384  -29318426.12147 -22845520.76361
  19682282.919    -9757757.421 5  -7239654.81321
  15925686.7324  -36712996.91248 -26360309.04062
 92  5 25 21 53 29.9850000  0  4G12G 2G24G13
  18940956.9434  -14831163.20246 -11223344.69661
  17980569.0524  -29314872.71847 -22842751.95161
  19652276.271    -9915440.495 5  -7362524.44021
  15915586.1774  -36766075.18948 -26401668.72362
 92  5 25 21 53 59.9850000  0  4G12G 2G24G13
  18913987.1694  -14972893.03846 -11333783.47361
  17981280.9354  -29311129.39547 -22839835.14061
  19622269.6934  -10073121.91345  -7485392.79361
  15905584.0524  -36818636.03648 -26442625.21961
 92  5 25 21 54 29.9850000  0  4G12G 2G24G13
  18887038.544   -15114500.854 6 -11444127.18221
  17982033.2474  -29307179.40347 -22836757.29161
  19592269.778   -10230772.918 5  -7608237.44121
  15895682.0214  -36870671.32648 -26483172.19162
 92  5 25 21 54 59.9850000  0  4G12G 2G24G13
  18860113.5604  -15255989.16446 -11554377.76461
  17982821.8334  -29303028.79547 -22833523.11961
  19562276.4194  -10388388.08845  -7731054.19061
  15885879.0524  -36922187.08948 -26523314.33462
 92  5 25 21 55 29.9850000  0  4G12G 2G24G13
  18833214.5444  -15397352.08446 -11664530.63361
  17983650.7164  -29298678.14547 -22830133.07062
  19532294.6074  -10545945.38945  -7853825.84261
  15876174.8254  -36973181.43548 -26563050.18162
 92  5 25 21 55 59.9850000  0  4G12G 2G24G13
  18806341.013   -15538575.282 6 -11774574.63621
  17984519.1934  -29294114.73847 -22826577.24061
  19502327.6854  -10703422.49645  -7976534.99561
  15866572.0834  -37023643.67848 -26602371.39762
 92  5 25 21 56 29.9850000  0  4G12G 2G24G13
  18779493.169   -15679657.613 6 -11884508.87221
  17985425.4744  -29289348.56847 -22822863.41661
  19472375.8104  -10860821.03045  -8099182.95161
  15857070.4744  -37073576.42248 -26641280.01862
 92  5 25 21 56 59.9850000  0  4G12G 2G24G13
  18752675.521   -15820588.375 6 -11994324.99921
  17986371.7474  -29284378.27547 -22818990.53961
  19442439.724   -11018134.253 5  -8221764.42121
  15847670.9034  -37122972.71848 -26679770.62962
 92  5 25 21 57 29.9850000  0  4G12G 2G24G13
  18725886.3884  -15961364.01446 -12104020.24961
  17987356.6854  -29279205.28947 -22814959.72061
  19412521.630   -11175358.056 5  -8344276.20821
  15838372.6774  -37171832.87948 -26717843.47362
 92  5 25 21 57 59.9850000  0  4G12G 2G24G13
  18699128.2084  -16101977.85846 -12213589.42661
  17988381.8104  -29273815.83146 -22810760.21561
  19382621.9114  -11332485.58145  -8466712.98261
  15829177.8804  -37220154.12248 -26755496.38762
 92  5 25 21 58 29.9850000  0  4G12G 2G24G13
  18672397.661   -16242450.463 6 -12323048.54921
  17989444.9504  -29268225.51546 -22806404.19561
  19352735.7474  -11489529.81845  -8589084.85561
  15820080.2944  -37267960.51748 -26792748.12162
 92  5 25 21 58 59.9850000  0  4G12G 2G24G13
  18645695.9114  -16382772.53046 -12432390.35961
  17990551.3414  -29262417.25447 -22801878.34661
  19322870.6384  -11646468.68745  -8711374.62161
  15811081.6224  -37315246.94448 -26829594.68462
 92  5 25 21 59 29.9850000  0  4G12G 2G24G13
  18619024.2164  -16522931.23346 -12541604.88761
  17991699.7004  -29256378.49347 -22797172.89061
  19293027.5604  -11803295.80845  -8833577.32161
  15802184.1534  -37362004.63348 -26866029.24661
 92  5 25 21 59 59.9850000  0  4G12G 2G24G13
  18592383.700   -16662923.244 6 -12650689.52921
  17992894.068   -29250111.053 6 -22792289.24621
  19263204.8724  -11960019.66045  -8955699.54761
  15793387.2554  -37408234.22148 -26902052.29862
 92  5 25 22  0 29.9850000  0  4G12G 2G24G13
  18565777.193   -16802749.132 6 -12759644.72321
  17994127.7394  -29243621.25646 -22787232.33061
  19233396.3024  -12116661.43646  -9077757.81461
  15784689.7864  -37453939.67348 -26937666.93461
 92  5 25 22  0 59.9850000  0  4G12G 2G24G13
  18539201.1934  -16942408.51846 -12868470.16961
  17995405.1694  -29236911.03346 -22782003.64861
  19203600.818   -12273232.658 5  -9199761.10821
  15776090.9974  -37499124.98348 -26972876.26262
 92  5 25 22  1 29.9850000  0  4G12G 2G24G13
  18512657.286   -17081889.651 6 -12977156.72121
  17996723.2004  -29229982.57146 -22776604.92061
  19173819.7474  -12429736.59145  -9321711.98261
  15767593.1304  -37543782.60248 -27007674.40762
 92  5 25 22  1 59.9850000  0  4G12G 2G24G13
  18486149.247   -17221198.313 6 -13085708.87421
  17998082.8184  -29222840.89646 -22771040.05261
  19144052.2164  -12586164.11145  -9443603.31361
  15759193.1304  -37587922.45148 -27042069.10061
 92  5 25 22  2 29.9850000  0  4G12G 2G24G13
  18459675.888   -17360314.573 6 -13194111.11221
  17999484.599   -29215473.471 6 -22765299.27721
  19114306.583   -12742467.557 5  -9565397.96921
  15750895.7944  -37631527.75548 -27076047.25662
 92  5 25 22  2 59.9850000  0  4G12G 2G24G13
  18433239.724   -17499235.540 6 -13302361.16921
  18000928.7944  -29207890.08246 -22759390.22161
  19084591.6694  -12898621.01645  -9687075.74361
  15742699.4274  -37674600.30148 -27109610.27962
 92  5 25 22  3 29.9850000  0  4G12G 2G24G13
  18406839.661   -17637968.568 6 -13410464.77921
  18002409.0134  -29200105.80846 -22753324.63961
  19054905.4354  -13054623.66045  -9808636.01261
  15734602.2394  -37717151.56148 -27142767.10262
 92  5 25 22  3 59.9850000  0  4G12G 2G24G13
  18380476.5214  -17776506.01446 -13518415.98761
  18003930.669   -29192110.788 6 -22747094.82921
  19025250.435   -13210458.236 5  -9930065.32321
  15726604.7944  -37759178.59148 -27175515.43862
 92  5 25 22  4 29.9850000  0  4G12G 2G24G13
  18354149.732   -17914852.981 6 -13626218.76621
  18005491.6464  -29183908.18046 -22740703.27061
  18995624.443   -13366145.901 5 -10051380.17121
  15718705.1144  -37800690.50348 -27207862.38362
 92  5 25 22  4 59.9850000  0  4G12G 2G24G13
  18327861.911   -18053002.943 6 -13733868.03921
  18007095.9894  -29175475.25146 -22734132.23061
  18966021.489   -13521706.668 6 -10172596.14621
  15710904.2944  -37841684.48448 -27239805.74762
 92  5 25 22  5 29.9850000  0  4G12G 2G24G13
  18301608.497   -18190961.084 6 -13841367.84221
  18008746.1534  -29166806.21446 -22727377.20161
  18936441.263   -13677160.033 6 -10293728.43721
  15703200.2554  -37882170.32648 -27271353.15962
 92  5 25 22  5 59.9850000  0  4G12G 2G24G13
  18275392.693   -18328728.270 6 -13948718.83721
  18010440.6224  -29157902.14046 -22720439.03261
  18906877.591   -13832510.843 6 -10414780.82721
  15695591.4974  -37922152.93948 -27302508.44762
 92  5 25 22  6 29.9850000  0  4G12G 2G24G13
  18249214.1464  -18466296.17346 -14055914.54561
  18012181.7634  -29148752.34846 -22713309.40061
  18877336.5054  -13987756.42945 -10535751.22061
  15688080.0674  -37961627.86448 -27333268.13362
 92  5 25 22  6 59.9840000  0  4G12G 2G24G13
  18223075.0314  -18603658.70946 -14162950.22961
  18013966.3674  -29139370.44646 -22705998.89161
  18847816.8444  -14142875.95446 -10656623.38861
  15680664.2814  -38000596.80148 -27363633.54762
 92  5 25 22  7 29.9840000  0  4G12G 2G24G13
  18196973.9064  -18740819.13646 -14269828.42661
  18015793.1254  -29129769.28046 -22698517.53861
  18818327.0164  -14297851.11246 -10777383.06061
  15673344.4924  -38039061.27348 -27393605.86662
 92  5 25 22  7 59.9840000  0  4G12G 2G24G13
  18170914.610   -18877762.862 6 -14376537.77921
  18017662.0314  -29119948.72446 -22690865.23061
  18788866.3914  -14452662.07846 -10898014.79461
  15666122.5554  -38077013.85048 -27423179.31362
 92  5 25 22  8 29.9840000  0  4G12G 2G24G13
  18144895.8204  -19014491.64546 -14483079.63661
  18019573.5244  -29109906.74146 -22683040.39361
  18759438.7664  -14607306.46146 -11018516.71861
  15658996.6804  -38114460.45448 -27452358.49562
 92  5 25 22  8 59.9840000  0  4G12G 2G24G13
  18118919.016   -19150998.200 6 -14589448.34321
  18021526.7894  -29099642.93446 -22675042.69661
  18730043.1254  -14761781.46246 -11138886.66661
  15651967.5164  -38151398.66748 -27481141.52662
 92  5 25 22  9 29.9840000  0  4G12G 2G24G13
  18092983.047   -19287293.454 6 -14695652.38821
  18023519.6564  -29089168.57746 -22666880.93661
  18700673.8134  -14916114.71346 -11259146.16161
  15645032.3364  -38187843.49748 -27509540.09662
 92  5 25 22  9 59.9840000  0  4G12G 2G24G13
  18067085.094   -19423388.700 6 -14801700.58921
  18025553.7114  -29078489.72146 -22658559.82361
  18671327.2114  -15070328.02146 -11379312.19161
  15638188.1414  -38223810.62248 -27537566.43762
 92  5 25 22 10 29.9840000  0  4G12G 2G24G13
  18041227.719   -19559272.607 6 -14907584.11121
  18027625.516   -29067597.342 6 -22650072.32921
  18642007.352   -15224408.550 6 -11499374.76621
  15631436.0004  -38259293.01148 -27565215.05662
 92  5 25 22 10 59.9840000  0  4G12G 2G24G13
  18015409.125   -19694949.841 6 -15013306.58721
  18029735.344   -29056508.308 6 -22641431.60221
  18612712.0084  -15378358.84446 -11619335.85561
  15624773.8594  -38294300.04848 -27592493.27262
 92  5 25 22 11 29.9840000  0  4G12G 2G24G13
  17989631.492   -19830410.475 6 -15118860.28621
  18031885.3284  -29045207.93646 -22632626.20261
  18583444.7894  -15532159.22646 -11739180.12761
  15618204.1334  -38328826.37048 -27619396.90462
 92  5 25 22 11 59.9840000  0  4G12G 2G24G13
  17963898.141   -19965639.069 6 -15224233.18221
  18034081.1334  -29033672.51346 -22623637.64161
  18554209.5944  -15685785.07146 -11858888.40161
  15611727.9614  -38362861.00348 -27645917.39862
 92  5 25 22 12 29.9840000  0  4G12G 2G24G13
  17938208.805   -20100638.541 6 -15329427.53821
  18036319.008   -29021910.899 6 -22614472.83421
  18525008.6954  -15839241.69146 -11978464.81261
  15605343.6174  -38396411.22448 -27672060.43662
 92  5 25 22 12 59.9840000  0  4G12G 2G24G13
  17912561.430   -20235417.285 6 -15434449.90821
  18038599.1644  -29009933.14146 -22605139.60261
  18495837.375   -15992535.923 6 -12097914.68821
  15599048.4304  -38429489.83248 -27697835.98362
 92  5 25 22 13 29.9840000  0  4G12G 2G24G13
  17886958.125   -20369963.087 6 -15539290.75021
  18040921.969   -28997726.630 6 -22595628.11521
  18466702.250   -16145650.077 6 -12217224.25121
  15592845.1334  -38462089.49548 -27723238.32662
 92  5 25 22 13 59.9840000  0  4G12G 2G24G13
  17861399.375   -20504276.029 6 -15643950.14721
  18043286.1884  -28985301.42046 -22585946.21561
  18437597.867   -16298585.783 6 -12336394.75421
  15586731.5314  -38494214.73548 -27748270.98362
 92  5 25 22 14 29.9840000  0  4G12G 2G24G13
  17835883.774   -20638363.450 6 -15748433.81321
  18045688.3674  -28972674.98646 -22576107.51461
  18408529.2504  -16451345.93746 -12455428.47861
  15580706.7584  -38525877.07548 -27772942.94862
 92  5 25 22 14 59.9840000  0  4G12G 2G24G13
  17810413.102   -20772210.877 6 -15852730.47521
  18048133.6564  -28959834.22746 -22566101.81561
  18379495.453   -16603917.642 6 -12574315.35721
  15574771.3674  -38557067.39948 -27797247.10162
 92  5 25 22 15 29.9840000  0  4G12G 2G24G13
  17784987.805   -20905819.725 6 -15956841.22321
  18050617.227   -28946775.925 6 -22555926.60221
  18350494.563   -16756316.849 6 -12693067.82121
  15568924.7034  -38587791.74148 -27821188.15262
 92  5 25 22 15 59.9840000  0  4G12G 2G24G13
  17759611.610   -21039173.406 6 -16060753.13921
  18053147.750   -28933483.402 6 -22545568.89321
  18321525.203   -16908548.303 6 -12811689.56421
  15563169.2114  -38618037.36448 -27844756.17562
 92  5 25 22 16 29.9840000  0  4G12G 2G24G13
  17734281.258   -21172281.449 7 -16164473.65721
  18055718.008   -28919976.135 6 -22535043.84121
  18292584.094   -17060627.303 6 -12930192.51721
  15557501.6644  -38647818.67648 -27867962.39762
 92  5 25 22 16 59.9840000  0  4G12G 2G24G13
  17709001.242   -21305133.951 7 -16267995.04721
  18058329.4224  -28906250.09546 -22524348.31461
  18263674.313   -17212548.655 6 -13048572.63321
  15551923.9454  -38677130.99748 -27890803.17062
 92  5 25 22 17 29.9840000  0  4G12G 2G24G13
  17683768.172   -21437732.245 7 -16371318.35021
  18060981.695   -28892314.131 6 -22513489.21121
  18234799.711   -17364292.419 6 -13166814.35921
  15546434.5784  -38705979.76148 -27913282.73462
 92  5 25 22 17 59.9840000  0  4G12G 2G24G13
  17658585.953   -21570068.650 7 -16474437.58621
  18063672.4064  -28878177.09846 -22502473.43961
  18205962.594   -17515832.768 6 -13284897.59021
  15541033.7344  -38734362.11448 -27935398.86362
 92  5 25 22 18 29.9840000  0  4G12G 2G24G13
  17633450.742   -21702151.678 7 -16577359.38621
  18066398.016   -28863846.626 6 -22491306.93821
  18177166.266   -17667160.173 6 -13402814.89021
  15535718.1954  -38762291.08048 -27957161.70562
 92  5 25 22 18 59.9840000  0  4G12G 2G24G13
  17608366.219   -21833970.655 7 -16680075.43521
  18069167.313   -28849298.460 6 -22479970.79721
  18148413.016   -17818253.052 6 -13520549.44521
  15530491.2034  -38789761.00348 -27978566.84662
 92  5 25 22 19 29.9840000  0  4G12G 2G24G13
  17583330.906   -21965534.244 7 -16782592.47821
  18071976.336   -28834536.401 6 -22468467.98121
  18119703.188   -17969127.905 6 -13638114.10521
  15525348.8134  -38816785.41148 -27999624.83862
 92  5 25 22 19 59.9840000  0  4G12G 2G24G13
  17558344.438   -22096838.703 7 -16884907.60321
  18074828.781   -28819549.127 6 -22456789.68521
  18091030.391   -18119804.675 6 -13755524.42121
  15520290.7664  -38843365.14248 -28020336.32462
 92  5 25 22 20 29.9840000  0  4G12G 2G24G13
  17533408.227   -22227880.255 7 -16987017.86322
  18077724.758   -28804330.666 6 -22444931.24321
  18062395.485   -18270283.377 6 -13872780.40121
  15515317.0554  -38869500.97448 -28040701.92062
 92  5 25 22 20 59.9840000  0  4G12G 2G24G13
  17508523.133   -22358654.384 7 -17088919.74522
  18080662.914   -28788893.351 6 -22432902.27021
  18033797.7424  -18420565.54646 -13989883.25161
  15510428.1884  -38895193.46048 -28060722.05462
 92  5 25 22 21 29.9840000  0  4G12G 2G24G13
  17483687.414   -22489162.898 7 -17190614.65222
  18083640.047   -28773246.037 6 -22420709.66821
  18005232.906   -18570664.119 6 -14106843.04221
  15505622.1804  -38920449.51048 -28080402.10362
 92  5 25 22 21 59.9840000  0  4G12G 2G24G13
  17458903.086   -22619405.694 7 -17292102.50722
  18086656.9454  -28757395.30546 -22408358.56361
  17976707.5084  -18720565.33646 -14223649.04961
  15500898.1094  -38945273.46748 -28099745.46762
 92  5 25 22 22 29.9830000  0  4G12G 2G24G13
  17434171.831   -22749367.741 7 -17393371.60122
  18089714.081   -28741333.946 6 -22395843.31921
  17948224.8164  -18870246.14346 -14340283.31261
  15496257.8704  -38969658.46348 -28118746.76962
 92  5 25 22 22 59.9830000  0  4G12G 2G24G13
  17409491.128   -22879064.506 7 -17494433.98022
  18092809.776   -28725061.694 6 -22383163.74421
  17919779.0114  -19019733.11346 -14456766.53161
  15491698.8864  -38993617.81048 -28137416.40262
 92  5 25 22 23 29.9830000  0  4G12G 2G24G13
  17384861.605   -23008495.717 7 -17595289.43222
  18095947.112   -28708574.753 6 -22370316.87321
  17891369.1284  -19169027.73446 -14573099.86961
  15487218.9414  -39017159.78248 -28155760.80862
 92  5 25 22 23 59.9830000  0  4G12G 2G24G13
  17360283.987   -23137650.904 7 -17695929.79922
  18099126.5974  -28691865.74146 -22357296.97661
  17862997.7844  -19318118.83846 -14689274.62561
  15482819.4874  -39040278.94048 -28173775.74762
 92  5 25 22 24 29.9830000  0  4G12G 2G24G13
  17335757.761   -23266538.140 7 -17796361.37222
  18102345.1754  -28674948.80146 -22344115.05961
  17834660.0814  -19467031.48246 -14805310.32961
  15478498.0034  -39062988.17448 -28191471.26662
 92  5 25 22 24 59.9830000  0  4G12G 2G24G13
  17311282.456   -23395157.762 7 -17896584.41522
  18105601.425   -28657839.705 6 -22330783.39721
  17806358.0264  -19615763.12846 -14921205.00061
  15474253.8314  -39085292.68248 -28208851.41062
 92  5 25 22 25 29.9830000  0  4G12G 2G24G13
  17286858.120   -23523507.412 7 -17996597.09122
  18108892.776   -28640551.937 6 -22317312.51721
  17778093.9804  -19764290.80946 -15036940.72961
  15470085.5734  -39107194.81348 -28225918.01962
 92  5 25 22 25 59.9830000  0  4G12G 2G24G13
  17262485.589   -23651583.516 7 -18096396.60922
  18112215.706   -28623087.894 6 -22303704.27421
  17749870.5424  -19912602.11546 -15152507.86361
  15465994.3624  -39128695.80648 -28242672.04962
 92  5 25 22 26 29.9830000  0  4G12G 2G24G13
  17238167.003   -23779381.071 7 -18195979.08522
  18115571.112   -28605453.664 6 -22289963.42921
  17721692.0664  -20060685.23646 -15267897.18161
  15461979.2764  -39149796.15148 -28259113.89162
 92  5 25 22 26 59.9830000  0  4G12G 2G24G13
  17213901.526   -23906898.646 7 -18295343.39022
  18118961.6204  -28587632.10646 -22276076.60861
  17693558.3784  -20208521.28146 -15383093.97061
  15458039.4174  -39170498.86248 -28275245.88662
 92  5 25 22 27 29.9830000  0  4G12G 2G24G13
  17189689.964   -24034129.647 7 -18394484.39722
  18122392.6364  -28569609.63246 -22262033.23361
  17665473.3784  -20356114.28046 -15498101.37461
  15454175.9414  -39190802.44148 -28291066.86962
 92  5 25 22 27 59.9830000  0  4G12G 2G24G13
  17165534.003   -24161066.817 7 -18493396.44922
  18125862.3474  -28551374.56146 -22247824.20561
  17637431.003   -20503478.360 6 -15612930.40621
  15450388.5584  -39210704.18748 -28306574.73962
 92  5 25 22 28 29.9830000  0  4G12G 2G24G13
  17141433.855   -24287715.227 7 -18592083.49622
  18129371.4484  -28532930.16846 -22233452.06361
  17609428.5424  -20650629.31846 -15727593.36861
  15446675.6984  -39230214.69548 -28321777.74962
 92  5 25 22 28 59.9830000  0  4G12G 2G24G13
  17117388.800   -24414072.141 7 -18690543.40022
  18132922.6514  -28514276.80146 -22218917.09161
  17581466.1054  -20797570.35346 -15842092.74561
  15443037.3944  -39249336.11048 -28336677.56662
 92  5 25 22 29 29.9830000  0  4G12G 2G24G13
  17093401.347   -24540124.979 7 -18788766.36422
  18136508.120   -28495426.720 6 -22204228.82321
  17553545.9564  -20944295.01046 -15956423.52661
  15439474.6054  -39268060.80448 -28351268.25662
 92  5 25 22 29 59.9830000  0  4G12G 2G24G13
  17069474.214   -24665869.670 7 -18886749.21322
  18140135.0894  -28476369.95946 -22189379.51461
  17525669.4644  -21090782.12846 -16070569.20861
  15435986.5034  -39286389.46548 -28365550.34762
 92  5 25 22 30 29.9830000  0  4G12G 2G24G13
  17045601.737   -24791315.504 7 -18984499.18522
  18143798.3864  -28457118.32846 -22174378.36761
  17497840.9644  -21237029.36546 -16184527.97961
  15432571.2534  -39304335.88148 -28379534.58562
 92  5 25 22 30 59.9830000  0  4G12G 2G24G13
  17021788.1754  -24916459.42747 -19082013.91162
  18147498.1054  -28437677.95946 -22159230.14361
  17470059.1594  -21383023.11746 -16298289.22761
  15429228.8234  -39321901.94348 -28393222.44462
 92  5 25 22 31 29.9830000  0  4G12G 2G24G13
  16998032.948   -25041290.845 7 -19179285.12022
  18151238.6444  -28418029.82046 -22143920.02161
  17442326.417   -21528755.655 6 -16411846.93321
  15425958.5504  -39339082.62648 -28406610.00862
 92  5 25 22 31 59.9830000  0  4G12G 2G24G13
  16974339.6364  -25165802.44847 -19276307.12562
  18155018.2534  -28398161.76246 -22128438.54561
  17414643.5664  -21674227.10746 -16525201.19661
  15422763.6364  -39355875.29348 -28419695.21562
 92  5 25 22 32 29.9830000  0  4G12G 2G24G13
  16950706.2064  -25289995.64247 -19373081.01362
  18158835.6594  -28378097.56945 -22112804.22561
  17387005.659   -21819464.986 6 -16638373.45721
  15419641.1054  -39372286.89248 -28432483.48862
 92  5 25 22 32 59.9830000  0  4G12G 2G24G13
  16927131.847   -25413876.952 7 -19469611.87922
  18162691.1444  -28357839.88245 -22097019.13061
  17359411.550   -21964477.943 6 -16751370.45321
  15416587.7534  -39388328.89148 -28444983.76762
 92  5 25 22 33 29.9830000  0  4G12G 2G24G13
  16903619.441   -25537439.140 7 -19565894.08022
  18166583.1674  -28337382.23145 -22081078.22261
  17331859.628   -22109261.315 6 -16864188.55621
  15413606.0734  -39403999.13448 -28457194.35762
 92  5 25 22 33 59.9830000  0  4G12G 2G24G13
  16880166.378   -25660686.522 7 -19661930.97422
  18170511.9724  -28316740.03145 -22064993.51961
  17304353.691   -22253801.523 6 -16976817.18421
  15410693.4174  -39419306.53948 -28469122.22162
 92  5 25 22 34 29.9830000  0  4G12G 2G24G13
  16856776.362   -25783605.590 7 -19757712.03722
  18174477.9804  -28295902.36945 -22048756.50661
  17276902.0584  -22398062.33646 -17089228.10061
  15407850.9414  -39434242.46448 -28480760.61962
 92  5 25 22 34 59.9830000  0  4G12G 2G24G13
  16833449.214   -25906190.237 7 -19853232.51422
  18178482.5114  -28274862.74345 -22032362.12661
  17249508.300   -22542015.294 6 -17201399.13021
  15405080.6284  -39448806.20048 -28492109.00062
 92  5 25 22 35 29.9830000  0  4G12G 2G24G13
  16810182.230   -26028450.918 7 -19948500.54822
  18182516.9174  -28253655.80145 -22015837.36461
  17222173.003   -22685666.764 6 -17313335.23521
  15402376.3704  -39463012.87548 -28503179.15262
 92  5 25 22 35 59.9830000  0  4G12G 2G24G13
  16786982.808   -26150366.538 7 -20043499.70522
  18186588.6914  -28232262.88945 -21999167.68561
  17194896.073   -22829006.339 6 -17425028.30821
  15399743.261   -39476847.132 8 -28513959.11422
 92  5 25 22 36 29.9830000  0  4G12G 2G24G13
  16763849.011   -26271934.726 7 -20138228.13522
  18190695.4644  -28210676.91945 -21982347.57861
  17167675.714   -22972049.169 6 -17536490.15121
  15397181.2614  -39490311.33648 -28524450.72062
 92  5 25 22 36 59.9830000  0  4G12G 2G24G13
  16740782.605   -26393151.728 7 -20232682.91022
  18194840.8164  -28188899.97345 -21965378.66561
  17140509.026   -23114814.494 6 -17647735.75822
  15394690.4874  -39503406.45648 -28534654.72862
 92  5 25 22 37 29.9830000  0  4G12G 2G24G13
  16717785.034   -26514003.066 7 -20326852.75322
  18199025.8084  -28166902.08945 -21948237.58261
  17113394.901   -23257296.463 6 -17758760.57321
  15392269.1984  -39516123.47148 -28544564.10562
 92  5 25 22 37 59.9820000  0  4G12G 2G24G13
  16694856.639   -26634495.672 7 -20420743.06722
  18203255.350   -28144675.052 5 -21930917.95421
  17086332.178   -23399510.543 6 -17869576.64122
  15389919.2094  -39528477.27248 -28554190.46362
 92  5 25 22 38 29.9820000  0  4G12G 2G24G13
  16671998.858   -26754614.283 7 -20514341.95822
  18207532.9434  -28122194.55445 -21913400.82961
  17059325.568   -23541431.851 6 -17980164.56822
  15387640.6784  -39540450.48148 -28563520.25362
 92  5 25 22 38 59.9820000  0  4G12G 2G24G13
  16649209.592   -26874372.915 7 -20607660.34722
  18211855.4364  -28099487.51345 -21895707.15361
  17032373.647   -23683068.395 6 -18090530.60522
  15385430.0684  -39552066.47448 -28572571.69562
 92  5 25 22 39 29.9820000  0  4G12G 2G24G13
  16626489.9284  -26993762.52547 -20700691.18862
  18216222.0764  -28076543.31745 -21877828.69461
  17005477.772   -23824405.892 6 -18200663.61722
  15383288.6394  -39563320.43148 -28581341.03362
 92  5 25 22 39 59.9820000  0  4G12G 2G24G13
  16603842.7094  -27112776.91147 -20793429.64962
  18220629.2564  -28053380.48545 -21859779.86161
  16978639.022   -23965441.411 6 -18310561.31822
  15381215.9434  -39574211.62448 -28589827.69462
 92  5 25 22 40 29.9820000  0  4G12G 2G24G13
  16581265.631   -27231420.171 7 -20885878.91522
  18225075.318   -28030013.389 5 -21841571.87621
  16951856.920   -24106182.113 6 -18420229.29622
  15379210.928   -39584748.813 8 -28598038.51122
 92  5 25 22 40 59.9820000  0  4G12G 2G24G13
  16558760.3734  -27349686.34547 -20978034.35862
  18229562.459   -28006440.887 5 -21823203.84721
  16925129.193   -24246636.033 6 -18529673.80622
  15377273.0064  -39594931.53748 -28605973.12162
 92  5 25 22 41 29.9820000  0  4G12G 2G24G13
  16536328.459   -27467563.741 7 -21069886.85222
  18234089.967   -27982653.549 5 -21804668.40421
  16898457.967   -24386792.953 6 -18638886.89722
  15375404.147   -39604753.395 8 -28613626.54522
 92  5 25 22 41 59.9820000  0  4G12G 2G24G13
  16513972.811   -27585044.441 7 -21161430.22922
  18238658.850   -27958640.469 5 -21785957.05521
  16871848.264   -24526633.637 6 -18747853.56222
  15373604.3974  -39614211.10648 -28620996.20962
 92  5 25 22 42 29.9820000  0  4G12G 2G24G13
  16491693.623   -27702121.975 7 -21252659.45722
  18243273.006   -27934387.589 5 -21767058.84921
  16845301.084   -24666133.808 6 -18856554.90122
  15371873.7954  -39623303.53048 -28628081.23462
 92  5 25 22 42 59.9820000  0  4G12G 2G24G13
  16469490.7094  -27818798.88847 -21343576.50862
  18247932.545   -27909907.722 5 -21747983.77521
  16818823.881   -24805274.551 6 -18964976.16222
  15370211.998   -39632037.775 7 -28634887.16022
 92  5 25 22 43 29.9820000  0  4G12G 2G24G13
  16447365.8974  -27935066.77147 -21434174.83562
  18252633.1864  -27885202.10145 -21728732.78961
  16792418.865   -24944031.584 6 -19073098.42622
  15368618.342   -39640411.168 8 -28641411.90422
 92  5 25 22 43 59.9820000  0  4G12G 2G24G13
  16425318.3344  -28050928.28947 -21524456.51862
  18257376.326   -27860279.649 5 -21709312.85221
  16766087.662   -25082403.553 6 -19180920.64422
  15367092.3034  -39648430.77348 -28647660.96562
 92  5 25 22 44 29.9820000  0  4G12G 2G24G13
  16403348.154   -28166382.077 7 -21614420.48122
  18262157.5764  -27835150.12145 -21689731.54561
  16739827.147   -25220406.189 6 -19288455.07422
  15365633.0534  -39656100.01148 -28653637.01462
 92  5 25 22 44 59.9820000  0  4G12G 2G24G13
  16381455.701   -28281426.079 7 -21704065.13022
  18266977.170   -27809819.694 5 -21669993.69721
  16713631.873   -25358060.492 6 -19395718.06922
  15364239.6624  -39663421.99547 -28659342.47662
 92  5 25 22 45 29.9820000  0  4G12G 2G24G13
  16359643.483   -28396049.789 7 -21793382.27722
  18271839.514   -27784274.968 5 -21650088.86721
  16687500.654   -25495378.527 7 -19502719.03922
  15362913.193   -39670391.912 7 -28664773.60122
 92  5 25 22 45 59.9820000  0  4G12G 2G24G13
  16337911.412   -28510255.864 7 -21882374.00422
  18276741.7254  -27758511.48145 -21630013.57661
  16661430.787   -25632374.429 7 -19609468.99822
  15361652.8344  -39677016.69047 -28669935.78062
 92  5 25 22 46 29.9820000  0  4G12G 2G24G13
  16316254.6474  -28624056.86947 -21971050.08462
  18281683.451   -27732542.782 5 -21609778.37821
  16635419.756   -25769066.463 7 -19715982.17622
  15360454.5454  -39683313.90947 -28674842.72162
 92  5 25 22 46 59.9820000  0  4G12G 2G24G13
  16294679.8814  -28737434.91347 -22059396.59062
  18286667.170   -27706355.576 5 -21589372.90921
  16609469.506   -25905436.484 7 -19822244.43622
  15359321.272   -39689271.120 7 -28679484.72522
 92  5 25 22 47 29.9820000  0  4G12G 2G24G13
  16273184.4364  -28850395.07347 -22147417.47062
  18291693.8974  -27679943.71045 -21568792.39161
  16583580.545   -26041480.424 7 -19928252.61022
  15358250.0924  -39694898.18147 -28683869.46962
 92  5 25 22 47 59.9820000  0  4G12G 2G24G13
  16251770.873   -28962922.011 7 -22235100.77322
  18296766.889   -27653284.617 5 -21548019.22321
  16557758.436   -26177176.600 7 -20033989.80122
  15357244.2094  -39700184.35447 -28687988.58462
 92  5 25 22 48 29.9820000  0  4G12G 2G24G13
  16230440.483   -29075013.517 7 -22322444.78123
  18301886.131   -27626383.306 5 -21527057.31721
  16532003.147   -26312525.321 7 -20139456.24722
  15356303.147   -39705133.135 7 -28691844.80122
 92  5 25 22 48 59.9820000  0  4G12G 2G24G13
  16209190.9044  -29186684.35647 -22409461.00262
  18307047.287   -27599255.397 5 -21505918.84921
  16506311.615   -26447531.207 7 -20244655.54522
  15355421.7724  -39709763.93547 -28695453.23162
 92  5 25 22 49 29.9820000  0  4G12G 2G24G13
  16188024.9124  -29297908.00847 -22496128.76362
  18312257.170   -27571878.793 5 -21484586.59921
  16480694.803   -26582150.142 7 -20349553.32022
  15354604.5454  -39714055.21547 -28698797.10462
 92  5 25 22 49 59.9820000  0  4G12G 2G24G13
  16166941.6544  -29408706.28547 -22582465.06462
  18317504.0294  -27544299.77545 -21463096.61061
  16455148.154   -26716395.764 7 -20454160.20622
  15353848.311   -39718033.629 7 -28701897.18622
 92  5 25 22 50 29.9820000  0  4G12G 2G24G13
  16145937.6154  -29519078.74247 -22668469.56063
  18322786.6234  -27516543.10345 -21441468.20561
  16429674.311   -26850261.914 7 -20558471.39822
  15353148.6864  -39721703.51147 -28704756.85062
 92  5 25 22 50 59.9820000  0  4G12G 2G24G13
  16125020.3114  -29629003.05647 -22754124.85063
  18328109.951   -27488582.586 5 -21419680.94921
  16404278.318   -26983715.670 7 -20662461.24322
  15352512.5294  -39725047.48047 -28707362.55562
 92  5 25 22 51 29.9820000  0  4G12G 2G24G13
  16104186.0294  -29738487.97647 -22839437.75763
  18333467.858   -27460422.929 5 -21397738.53421
  16378956.717   -27116782.768 7 -20766149.80022
  15351936.0144  -39728079.60448 -28709725.26462
 92  5 25 22 51 59.9820000  0  4G12G 2G24G13
  16083432.1784  -29847546.08647 -22924418.08163
  18338862.1394  -27432071.85845 -21375646.95661
  16353704.092   -27249493.197 7 -20869560.43222
  15351416.0764  -39730817.69748 -28711858.86462
 92  5 25 22 52 29.9820000  0  4G12G 2G24G13
  16062760.4594  -29956178.29247 -23009066.53663
  18344298.4284  -27403504.24045 -21353386.63861
  16328515.389   -27381857.212 7 -20972701.13322
  15350948.5764  -39733267.22747 -28713767.60262
 92  5 25 22 52 59.9820000  0  4G12G 2G24G13
  16042170.7254  -30064378.90247 -23093378.68163
  18349781.873   -27374697.822 5 -21330940.25521
  16303394.318   -27513868.690 7 -21075567.12522
  15350538.4674  -39735426.58148 -28715450.23462
 92  5 25 22 53 29.9810000  0  4G12G 2G24G13
  16021666.5564  -30172128.53847 -23177339.41563
  18355310.993   -27345645.446 5 -21308302.21721
  16278342.931   -27645511.325 7 -21178145.71522
  15350183.3294  -39737285.89448 -28716899.06762
 92  5 25 22 53 59.9810000  0  4G12G 2G24G13
  16001245.6264  -30279441.34947 -23260959.76863
  18360880.501   -27316364.731 5 -21285486.24921
  16253362.243   -27776784.848 7 -21280436.68322
  15349885.3294  -39738856.78648 -28718123.15362
 92  5 25 22 54 29.9810000  0  4G12G 2G24G13
  15980909.1184  -30386307.89847 -23344232.38263
  18366495.821   -27286858.377 5 -21262494.45121
  16228453.923   -27907677.358 7 -21382430.76022
  15349640.1734  -39740138.06348 -28719121.56562
 92  5 25 22 54 59.9810000  0  4G12G 2G24G13
  15960658.3764  -30492727.47947 -23427156.70863
  18372147.1574  -27257165.17345 -21239357.06561
  16203617.790   -28038191.233 7 -21484129.80122
  15349451.0564  -39741133.96348 -28719897.60762
 92  5 25 22 55 29.9810000  0  4G12G 2G24G13
  15940493.4074  -30598697.13047 -23509730.44463
  18377831.978   -27227292.676 5 -21216079.99121
  16178853.8374  -28168328.57247 -21585535.43462
  15349316.2044  -39741846.76748 -28720453.05362
 92  5 25 22 55 59.9810000  0  4G12G 2G24G13
  15920409.9394  -30704235.89847 -23591968.42463
  18383545.735   -27197268.277 5 -21192684.53821
  16154158.696   -28298104.130 7 -21686659.16122
  15349230.1654  -39742299.89047 -28720806.15262
 92  5 25 22 56 29.9810000  0  4G12G 2G24G13
  15900412.5714  -30809323.51747 -23673854.86363
  18389291.0174  -27167082.00545 -21169162.93361
  16129534.6034  -28427504.88747 -21787490.83562
  15349194.8064  -39742478.10047
 92  5 25 22 56 59.9810000  0  4G12G 2G24G13
  15880499.8214  -30913962.66247 -23755391.83963
  18395065.9074  -27136738.87545 -21145519.13961
  16104981.321   -28556531.235 7 -21888030.76622
  15349215.4234  -39742388.80747
 92  5 25 22 57 29.9810000  0  4G12G 2G24G13
  15860672.853   -31018156.139 7 -23836581.54323
  18400873.071   -27106215.299 5 -21121734.70521
  16080500.4234  -28685178.38247 -21988275.21362
  15349279.5484  -39742039.66247
 92  5 25 22 57 59.9810000  0  4G12G 2G24G13
  15840929.7124  -31121908.56647 -23917427.56963
  18406715.3064  -27075520.19145 -21097816.64161
  16056090.345   -28813455.959 7 -22088231.68422
  15349395.1184  -39741439.88447 -28720136.08462
 92  5 25 22 58 29.9810000  0  4G12G 2G24G13
  15821272.4544  -31225206.88047 -23997919.74063
  18412590.876   -27044632.981 5 -21073748.87721
  16031751.782   -28941357.286 7 -22187894.97322
  15349556.9464  -39740581.06447 -28719466.88962
 92  5 25 22 58 59.9810000  0  4G12G 2G24G13
  15801702.439   -31328048.380 7 -24078055.95623
  18418509.1894  -27013542.14445 -21049522.43061
  16007484.2124  -29068879.85447 -22287263.12562
  15349770.2594  -39739465.29547 -28718597.47062
 92  5 25 22 59 29.9810000  0  4G12G 2G24G13
  15782221.087   -31430423.795 7 -24157828.97923
  18424462.665   -26982245.480 5 -21025135.61621
  15983292.9624  -29196006.91647 -22386323.09562
  15350031.6734  -39738088.06647 -28717524.31962
 92  5 25 22 59 59.9810000  0  4G12G 2G24G13
  15762827.4074  -31532335.76847 -24237240.88363
  18430456.095   -26950761.396 5 -21000602.74821
  15959175.5954  -29322746.89647 -22485081.44062
  15350341.9154  -39736456.98247 -28716253.36262
 92  5 25 23  0 29.9810000  0  4G12G 2G24G13
  15743525.3454  -31633768.13247 -24316279.07063
  18436484.587   -26919082.645 5 -20975918.20621
  15935133.275   -29449085.454 7 -22583526.98922
  15350702.5254  -39734560.27447 -28714775.42162
 92  5 25 23  0 59.9810000  0  4G12G 2G24G13
  15724312.2354  -31734735.31047 -24394954.77363
  18442547.032   -26887232.598 5 -20951100.15721
  15911165.1734  -29575040.53947 -22681673.73063
  15351110.6574  -39732417.43147 -28713105.68862
 92  5 25 23  1 29.9810000  0  4G12G 2G24G13
  15705187.1184  -31835236.72447 -24473267.54563
  18448638.2594  -26855215.33445 -20926151.82761
  15887269.6504  -29700612.23847 -22779521.72362
  15351565.3064  -39730032.33747 -28711247.18762
 92  5 25 23  1 59.9810000  0  4G12G 2G24G13
  15686153.5954  -31935261.07847 -24551208.58363
  18454764.212   -26823017.107 5 -20901062.49821
  15863447.329   -29825800.268 7 -22877070.75722
  15352065.9074  -39727398.42047 -28709194.80762
 92  5 25 23  2 29.9810000  0  4G12G 2G24G13
  15667210.0094  -32034810.67947 -24628779.67963
  18460927.5954  -26790635.03645 -20875829.91561
  15839697.3294  -29950601.42147 -22974318.32962
  15352612.587   -39724522.548 7 -28706953.89722
 92  5 25 23  2 59.9810000  0  4G12G 2G24G13
  15648358.0714  -32133876.96347 -24705974.16963
  18467129.626   -26758044.553 5 -20850434.93621
  15816028.3534  -30074989.78147 -23071244.24862
  15353207.173   -39721401.043 7 -28704521.58122
 92  5 25 23  3 29.9810000  0  4G12G 2G24G13
  15629599.8454  -32232454.47347 -24782787.79763
  18473373.4704  -26725232.30245 -20824867.16261
  15792436.243   -30198960.567 7 -23167844.78123
  15353848.0254  -39718032.88947 -28701897.06962
 92  5 25 23  3 59.9810000  0  4G12G 2G24G13
  15610934.4934  -32330540.36847 -24859218.35063
  18479661.8144  -26692189.26745 -20799119.55461
  15768925.6034  -30322514.57847 -23264120.55563
  15354535.610   -39714419.877 7 -28699081.76322
 92  5 25 23  4 29.9810000  0  4G12G 2G24G13
  15592362.1424  -32428137.46047 -24935268.01263
  18485992.360   -26658921.122 4 -20773196.52421
  15745493.1504  -30445650.98647 -23360070.92763
  15355268.212   -39710569.515 7 -28696081.50522
 92  5 25 23  4 59.9810000  0  4G12G 2G24G13
  15573884.1894  -32525240.74347 -25010932.88563
  18492363.3924  -26625436.57944 -20747104.90161
  15722139.9154  -30568370.92647 -23455696.78163
  15356046.900   -39706480.936 7 -28692895.62722
 92  5 25 23  5 29.9810000  0  4G12G 2G24G13
  15555497.4074  -32621863.15347 -25086223.05963
  18498767.9854  -26591777.17144 -20720876.99461
  15698861.0644  -30690700.74147 -23551018.64463
  15356866.228   -39702171.711 7 -28689537.81822
 92  5 25 23  5 59.9810000  0  4G12G 2G24G13
  15537204.5014  -32717992.53447 -25161129.05063
  18505204.9004  -26557955.55744 -20694522.72061
  15675662.7434  -30812609.57947 -23646012.47563
  15357730.204   -39697634.396 7 -28686002.27822
 92  5 25 23  6 29.9810000  0  4G12G 2G24G13
  15519005.1654  -32813629.74647 -25235651.53563
  18511668.142   -26523991.792 4 -20668057.68621
  15652544.0564  -30934097.48747 -23740678.30463
  15358635.837   -39692874.540 7 -28682293.33022
 92  5 25 23  6 59.9810000  0  4G12G 2G24G13
  15500897.7904  -32908783.79747 -25309797.53163
  18518154.165   -26489904.419 4 -20641496.35021
  15629503.4624  -31055177.97547 -23835026.66663
  15359580.900   -39687905.366 7 -28678421.27622
 92  5 25 23  7 29.9810000  0  4G12G 2G24G13
  15482885.5014  -33003438.08547 -25383554.10263
  18524672.650   -26455662.523 4 -20614814.59021
  15606544.0794  -31175829.43747 -23929040.71863
  15360568.595   -39682714.657 7 -28674376.59322
 92  5 25 23  7 59.9810000  0  4G12G 2G24G13
  15464967.5564  -33097598.27447 -25456925.66463
  18531218.782   -26421251.578 4 -20588001.09721
  15583663.5254  -31296066.69747 -24022732.02263
  15361596.892   -39677312.675 8 -28670167.28022
 92  5 25 23  8 29.9810000  0  4G12G 2G24G13
  15447146.9314  -33191249.79447 -25529900.86063
  18537807.3764  -26386647.01244 -20561036.73961
  15560863.3144  -31415889.68147 -24116100.51363
  15362667.6034  -39671689.25647 -28665785.41862
 92  5 25 23  8 59.9800000  0  4G12G 2G24G13
  15429421.1684  -33284398.62747 -25602484.35163
  18544426.598   -26351853.817 4 -20533925.36921
  15538141.3094  -31535289.26747 -24209139.08563
  15363777.090   -39665857.972 7 -28661241.58622
 92  5 25 23  9 29.9800000  0  4G12G 2G24G13
  15411792.5354  -33377036.59147 -25674669.76463
  18551086.0594  -26316858.96244 -20506656.87561
  15515503.5674  -31654249.49747 -24301835.30263
  15364928.059   -39659808.462 7 -28656527.71122
 92  5 25 23  9 59.9800000  0  4G12G 2G24G13
  15394261.6844  -33469160.72947 -25746454.80163
  18557777.1374  -26281694.74344 -20479256.42261
  15492950.6764  -31772769.75747 -24394188.68163
  15366120.082   -39653545.292 7 -28651647.34322
 92  5 25 23 10 29.9800000  0  4G12G 2G24G13
  15376830.5594  -33560762.22547 -25817832.58163
  18564500.8244  -26246362.32644 -20451724.87661
  15470483.3634  -31890836.97747 -24486189.04463
  15367353.7234  -39647064.16648 -28646597.13362
 92  5 25 23 10 59.9800000  0  4G12G 2G24G13
  15359499.0904  -33651839.26247 -25888801.69263
  18571260.660   -26210853.866 4 -20424056.15121
  15448100.5824  -32008454.74447 -24577839.18463
  15368628.0674  -39640367.74848 -28641379.16662
 92  5 25 23 11 29.9800000  0  4G12G 2G24G13
  15342269.4964  -33742383.73447 -25959355.81763
  18578052.012   -26175151.065 4 -20396236.02921
  15425801.5434  -32125634.83247 -24669148.27663
  15369943.699   -39633451.614 8 -28635989.99322
 92  5 25 23 11 59.9800000  0  4G12G 2G24G13
  15325138.6374  -33832402.05647 -26029499.95663
  18584885.754   -26139246.981 4 -20368259.03421
  15403583.5904  -32242397.00047 -24760131.71463
  15371299.7464  -39626327.14748 -28630438.47862
 92  5 25 23 12 29.9800000  0  4G12G 2G24G13
  15308109.4104  -33921894.22747 -26099234.10963
  18591759.324   -26103117.518 4 -20340106.46221
  15381445.6764  -32358730.34847 -24850781.00563
  15372694.363   -39618998.071 8 -28624727.52722
 92  5 25 23 12 59.9800000  0  4G12G 2G24G13
  15291181.3714  -34010850.32247 -26168550.53963
  18598680.4024  -26066760.96644 -20311776.91661
  15359393.7314  -32474613.10947 -24941079.19263
  15374129.0824  -39611459.02548 -28618852.96662
 92  5 25 23 13 29.9800000  0  4G12G 2G24G13
  15274357.6994  -34099262.13147 -26237442.84963
  18605638.3484  -26030190.87044 -20283280.96361
  15337430.9104  -32590025.37147 -25031010.75963
  15375604.4344  -39603705.43948 -28612811.22862
 92  5 25 23 13 59.9800000  0  4G12G 2G24G13
  15257632.9264  -34187148.91847 -26305926.05163
  18612630.473   -25993453.723 4 -20254654.83921
  15315557.4734  -32704973.17347 -25120580.41163
  15377116.574   -39595761.211 8 -28606620.94322
 92  5 25 23 14 29.9800000  0  4G12G 2G24G13
  15241013.3954  -34274484.60547 -26373979.82563
  18619650.0594  -25956544.07843 -20225894.26861
  15293780.3564  -32819411.42747 -25209753.01063
  15378668.465   -39587604.237 8 -28600264.88122
 92  5 25 23 14 59.9800000  0  4G12G 2G24G13
  15224498.5124  -34361270.17247 -26441604.93163
  18626709.0124  -25919475.73243 -20197010.10661
  15272097.7384  -32933354.15247 -25298539.47863
  15380260.1524  -39579239.60948 -28593747.01062
 92  5 25 23 15 29.9800000  0  4G12G 2G24G13
  15208088.3324  -34447506.70747 -26508802.22563
  18633792.942   -25882241.043 3 -20167996.31521
  15250507.3484  -33046812.32547 -25386948.37363
  15381890.2234  -39570673.13547 -28587071.85462
 92  5 25 23 15 59.9800000  0  4G12G 2G24G13
  15191784.1374  -34533188.16947 -26575566.99063
  18640911.8794  -25844825.38243 -20138841.51061
  15229010.3014  -33159782.32947 -25474976.88363
  15383559.1844  -39561902.45847 -28580237.58362
 92  5 25 23 16 29.9800000  0  4G12G 2G24G13
  15175587.3094  -34618303.08647 -26641890.29163
  18648078.699   -25807194.742 4 -20109519.19821
  15207603.7464  -33272266.67147 -25562626.95663
  15385268.7234  -39552919.69547 -28573238.05462
 92  5 25 23 16 59.9800000  0  4G12G 2G24G13
  15159499.5984  -34702843.76447 -26707766.13663
  18655281.3014  -25769331.55043 -20080015.67061
  15186289.5434  -33384278.47447 -25649908.81863
  15387018.5744  -39543721.45747 -28566070.61462
 92  5 25 23 17 29.9800000  0  4G12G 2G24G13
  15143520.1994  -34786813.10847 -26773196.78663
  18662528.942   -25731248.361 3 -20050340.71621
  15165065.3244  -33495812.31747 -25736818.24163
  15388808.8484  -39534314.42547 -28558740.48062
 92  5 25 23 17 59.9800000  0  4G12G 2G24G13
  15127650.7314  -34870208.70547 -26838180.36363
  18669818.3014  -25692951.46543 -20020499.23061
  15143931.5984  -33606870.35447 -25823356.90663
  15390638.348   -39524700.733 7 -28551249.31622
 92  5 25 23 18 29.9800000  0  4G12G 2G24G13
  15111890.9184  -34953027.53147 -26902714.50463
  18677140.699   -25654448.383 3 -19990497.06321
  15122885.4424  -33717462.74547 -25909532.73063
  15392506.926   -39514881.067 7 -28543597.65222
 92  5 25 23 18 59.9800000  0  4G12G 2G24G13
  15096238.4024  -35035284.71747 -26966811.00863
  18684497.1994  -25615785.14343 -19960370.12861
  15101929.4184  -33827591.72247 -25995347.45563
  15394412.129   -39504873.819 7 -28535799.81521
 92  5 25 23 19 29.9800000  0  4G12G 2G24G13
  15080690.4654  -35116987.78047 -27030475.72863
  18691885.2234  -25576972.59543 -19930126.83861
  15081059.3404  -33937260.58447 -26080803.65263
  15396349.5354  -39494691.10047 -28527865.25061
 92  5 25 23 19 59.9800000  0  4G12G 2G24G13
  15065252.3484  -35198113.24047 -27093690.36663
  18699307.777   -25537977.818 3 -19899741.60721
  15060282.8714  -34046447.93847 -26165884.64663
  15398323.942   -39484313.174 7 -28519778.57522
 92  5 25 23 20 29.9800000  0  4G12G 2G24G13
  15049926.7624  -35278650.25447 -27156446.47363
  18706767.348   -25498785.541 3 -19869202.44021
  15039600.5044  -34155131.65247 -26250573.19463
  15400337.4814  -39473732.98247 -28511534.29762
 92  5 25 23 20 59.9800000  0  4G12G 2G24G13
  15034713.4424  -35358597.39747 -27218742.94063
  18714264.1064  -25459380.09943 -19838497.21161
  15019017.2934  -34263298.51847 -26334859.00363
  15402388.520   -39462953.231 7 -28503134.51922
 92  5 25 23 21 29.9800000  0  4G12G 2G24G13
  15019610.7854  -35437964.08147 -27280587.10463
  18721805.582   -25419757.236 3 -19807622.54421
  14998530.2154  -34370959.47647 -26418750.60163
  15404475.152   -39451986.820 7 -28494589.29422
 92  5 25 23 21 59.9800000  0  4G12G 2G24G13
  15004618.5204  -35516748.40747 -27341977.48063
  18729384.457   -25379925.986 3 -19776585.43221
  14978141.0044  -34478106.53647 -26502241.75763
  15406597.957   -39440835.211 7 -28485899.75621
 92  5 25 23 22 29.9800000  0  4G12G 2G24G13
  14989736.4264  -35594951.09747 -27402914.63463
  18737001.004   -25339900.964 3 -19745397.37221
  14957846.6994  -34584750.27347 -26585340.71563
  15408754.676   -39429503.177 7 -28477069.62822
 92  5 25 23 22 59.9800000  0  4G12G 2G24G13
  14974965.2624  -35672571.84647 -27463398.32263
  18744649.418   -25299704.511 3 -19714075.70621
  14937649.6064  -34690889.81147 -26668046.79263
  15410944.981   -39417994.199 7 -28468101.62422
 92  5 25 23 23 29.9800000  0  4G12G 2G24G13
  14960308.4424  -35749600.69147 -27523420.79963
  18752329.981   -25259337.064 3 -19682620.80121
  14917547.4884  -34796522.79247 -26750358.14863
  15413169.473   -39406301.588 7 -28458990.52721
 92  5 25 23 23 59.9800000  0  4G12G 2G24G13
  14945759.8954  -35826050.35247 -27582991.95763
  18760042.762   -25218814.986 3 -19651045.43821
  14897538.9964  -34901669.41947 -26832290.52663
  15415426.317   -39394441.741 7 -28449749.11421
 92  5 25 23 24 29.9790000  0  4G12G 2G24G13
  14931324.3594  -35901907.06047 -27642101.07463
  18767786.1874  -25178123.95443 -19619338.46061
  14877625.2184  -35006319.35547 -26913835.87663
  15417715.991   -39382407.228 7 -28440371.60821
 92  5 25 23 24 59.9790000  0  4G12G 2G24G13
  14917003.1244  -35977170.39447 -27700747.82163
  18775563.312   -25137254.381 3 -19587492.31521
  14857805.7884  -35110467.90147 -26994990.53163
  15420039.405   -39370195.905 7 -28430856.32321
 92  5 25 23 25 29.9790000  0  4G12G 2G24G13
  14902795.6014  -36051831.22347 -27758925.08963
  18783377.2104  -25096190.28043 -19555494.56561
  14838083.4134  -35214109.78047 -27075750.37963
  15422397.741   -39357805.004 7 -28421201.10421
 92  5 25 23 25 59.9790000  0  4G12G 2G24G13
  14888702.1484  -36125894.31547 -27816636.58663
  18791229.7264  -25054936.79043 -19523349.27261
  14818459.7024  -35317234.51147 -27156107.26163
  15424788.155   -39345242.454 7 -28411412.14121
 92  5 25 23 26 29.9790000  0  4G12G 2G24G13
  14874719.8744  -36199369.64247 -27873890.08463
  18799115.148   -25013498.258 3 -19491059.77521
  14798933.5544  -35419845.34847 -27236063.70063
  15427208.585   -39332521.785 7 -28401499.95821
 92  5 25 23 26 59.9790000  0  4G12G 2G24G13
  14860852.4444  -36272243.42947 -27930674.85263
  18807037.312   -24971867.565 3 -19458620.50321
  14779507.8664  -35521925.40247 -27315606.54763
  15429662.569   -39319633.010 7 -28391456.78421
 92  5 25 23 27 29.9790000  0  4G12G 2G24G13
  14847102.4374  -36344502.08647 -27986980.30163
  18814998.062   -24930017.656 3 -19426010.43521
  14760186.038   -35623463.823 7 -27394727.34423
  15432148.499   -39306565.049 7 -28381273.98521
 92  5 25 23 27 59.9790000  0  5G12G 2G24G20G13
  14833467.0074  -36416153.98847 -28042812.95463
  18823005.0624  -24887957.04843 -19393236.21861
  14740961.4054  -35724480.44447 -27473441.54063
  19060369.4764         -0.60653
  15434667.398   -39293330.027 7 -28370961.01021
 92  5 25 23 28 29.9790000  0  5G12G 2G24G20G13
  14819949.9294  -36487187.15747 -28098163.47463
  18831047.155   -24845689.071 3 -19360300.37821
  14721838.7884  -35824974.63647 -27551748.65163
  19032414.374     -146899.748 3
  15437218.960   -39279919.766 7 -28360511.48921
 92  5 25 23 28 59.9790000  0  5G12G 2G24G20G13
  14806549.7494  -36557604.79447 -28153034.36763
  18839130.507   -24803227.025 2 -19327213.28621
  14702814.7104  -35924951.09447 -27629652.33063
  19004453.5624    -293831.81842        -0.09271
  15439803.288   -39266340.796 7 -28349930.50321
 92  5 25 23 29 29.9790000  0  5G12G 2G24G20G13
  14793268.3594  -36627397.84547 -28207418.56563
  18847250.390   -24760559.060 3 -19293965.79021
  14683889.804   -36024402.465 7 -27707146.85323
  18976489.7024    -440787.90443   -114511.23761
  15442420.327   -39252587.066 7 -28339213.34021
 92  5 25 23 29 59.9790000  0  5G12G 2G24G20G13
  14780105.3044  -36696573.97647 -28261322.04263
  18855402.0694  -24717718.28642 -19260583.61361
  14665064.616   -36123327.305 7 -27784231.09723
  18948519.999     -587775.713 3   -229047.13121
  15445068.335   -39238669.499 7 -28328368.51621
 92  5 25 23 30 29.9790000  0  5G12G 2G24G20G13
  14767061.2654  -36765119.48147 -28314734.12463
  18863589.2964  -24674690.20443 -19227055.50961
  14646345.0544  -36221698.97447 -27860884.29563
  18920545.3664    -734781.81643   -343597.27261
  15447750.6404  -39224577.30047 -28317387.60561
 92  5 25 23 30 59.9790000  0  4G12G24G20G13
  14754134.8984  -36833045.68447 -28367663.63263
  14627728.671   -36319529.818 7 -27937116.07123
  18892565.319     -881818.259 3   -458171.06721
  15450463.3744  -39210325.27047 -28306282.15561
 92  5 25 23 31 29.9790000  0  4G12G24G20G13
  14741328.2964  -36900354.59747 -28420112.13763
  14609213.765   -36416817.032 7 -28012924.24123
  18864578.499    -1028886.841 3   -572769.89921
  15453203.874   -39195918.464 7 -28295056.10321
 92  5 25 23 31 59.9790000  0  4G12G24G20G13
  14728636.2184  -36967038.61547 -28472073.70963
  14590807.015   -36513555.401 7 -28088304.74023
  18836588.859    -1175980.297 3   -687388.12221
  15455975.734   -39181352.586 7 -28283706.09721
 92  5 25 23 32 29.9790000  0  4G12G24G20G13
  14716066.1324  -37033099.48547 -28523549.70663
  14572500.116   -36609753.568 7 -28163264.30023
  18808593.4054   -1323099.97443   -802026.71561
  15458777.741   -39166632.184 7 -28272235.68221
 92  5 25 23 32 59.9790000  0  4G12G24G20G13
  14703614.9374  -37098530.09547 -28574534.59263
  14554298.6164  -36705404.61147 -28237797.53163
  18780590.851    -1470239.059 3   -916680.48521
  15461608.093   -39151753.491 7 -28260641.93021
 92  5 25 23 33 29.9790000  0  4G12G24G20G13
  14691283.1554  -37163332.02647 -28625029.59763
  14536200.609   -36800513.914 7 -28311908.62523
  18752588.3984   -1617398.94543  -1031350.39761
  15464469.265   -39136720.900 7 -28248928.24521
 92  5 25 23 33 59.9790000  0  4G12G24G20G13
  14679073.8044  -37227496.74747 -28675028.07563
  14518204.609   -36895081.205 7 -28385597.37123
  18724580.6874   -1764571.38343  -1146030.14961
  15467360.515   -39121528.913 7 -28237090.36621
 92  5 25 23 34 29.9790000  0  4G12G24G20G13
  14666983.0464  -37291034.32347 -28724537.87063
  14500310.444   -36989111.868 7 -28458867.97123
  18696567.7654   -1911766.21742  -1260727.31461
  15470279.210   -39106190.209 7 -28225138.16321
 92  5 25 23 34 59.9790000  0  4G12G24G20G13
  14655012.8124  -37353938.70547 -28773554.26163
  14482520.265   -37082598.365 7 -28531714.54423
  18668558.5934   -2058977.12243  -1375437.02061
  15473226.468   -39090702.177 7 -28213069.60321
 92  5 25 23 35 29.9790000  0  4G12G24G20G13
  14643163.3434  -37416204.52347 -28822073.07263
  14464835.538   -37175534.375 7 -28604132.16723
  18640543.9374   -2206198.49143  -1490154.90261
  15476203.476   -39075062.049 7 -28200882.52921
 92  5 25 23 35 59.9790000  0  4G12G24G20G13
  14631434.3664  -37477842.12047 -28870102.36263
  14447254.460   -37267923.262 7 -28676123.45923
  18612524.265    -2353440.612 3  -1604888.90421
  15479205.249   -39059283.018 7 -28188587.21421
 92  5 25 23 36 29.9790000  0  4G12G24G20G13
  14619825.8664  -37538845.61547 -28917637.54663
  14429777.601   -37359764.403 7 -28747687.93423
  18584503.7494   -2500697.45543  -1719634.44061
  15482235.226   -39043361.749 7 -28176181.06821
 92  5 25 23 36 59.9790000  0  4G12G24G20G13
  14608335.5234  -37599226.70047 -28964687.74063
  14412401.140   -37451078.916 7 -28818842.05323
  18556473.6404   -2647980.57443  -1834400.42361
  15485289.234   -39027313.124 7 -28163675.68821
 92  5 25 23 37 29.9790000  0  4G12G24G20G13
  14596963.2264  -37658989.21947 -29011255.92863
  14395125.241   -37541862.629 7 -28889582.56023
  18528440.640    -2795293.012 3  -1949189.24021
  15488366.069   -39011143.251 7 -28151075.82121
 92  5 25 23 37 59.9790000  0  4G12G24G20G13
  14585709.5694  -37718128.10947 -29057338.17863
  14377951.546   -37632112.742 7 -28959907.27623
  18500406.296    -2942629.798 3  -2063997.04521
  15491466.773   -38994850.392 7 -28138380.12121
 92  5 25 23 38 29.9790000  0  4G12G24G20G13
  14574576.5934  -37776629.31947 -29102923.53563
  14360882.007   -37721815.110 7 -29029805.17323
  18472364.327    -3089976.481 3  -2178812.57521
  15494593.062   -38978422.893 7 -28125579.50521
 92  5 25 23 38 59.9790000  0  4G12G24G20G13
  14563564.2574  -37834499.93547 -29148017.51263
  14343918.093   -37810961.414 7 -29099269.77723
  18444323.6634   -3237339.76643  -2293641.02661
  15497742.562   -38961870.069 7 -28112681.23221
 92  5 25 23 39 29.9790000  0  4G12G24G20G13
  14552673.6554  -37891735.27647 -29192616.47763
  14327060.843   -37899544.125 7 -29168295.21623
  18416278.5384   -3384714.22243  -2408478.14361
  15500916.648   -38945190.238 7 -28099683.99921
 92  5 25 23 39 59.9790000  0  4G12G24G20G13
  14541901.9054  -37948335.94747 -29236720.89463
  14310307.3904  -37987585.62047 -29236898.93063
  18388231.6874   -3532100.43043  -2523324.43161
  15504114.640   -38928386.189 7 -28086589.96921
 92  5 25 23 40 29.9780000  0  4G12G24G20G13
  14531254.5804  -38004291.55047 -29280322.66163
  14293658.276   -38075073.745 7 -29305071.44923
  18360182.338    -3679484.263 3  -2638168.88621
  15507336.940   -38911452.750 7 -28073395.12121
 92  5 25 23 40 59.9780000  0  4G12G24G20G13
  14520726.7994  -38059609.83247 -29323427.81363
  14277114.354   -38162016.646 7 -29372819.11923
  18332138.8614   -3826878.76643  -2753021.62161
  15510582.502   -38894395.174 7 -28060103.53821
 92  5 25 23 41 29.9780000  0  4G12G24G20G13
  14510323.2684  -38114283.83747 -29366030.92863
  14260671.838   -38248417.830 7 -29440144.66623
  18304088.5184   -3974273.46843  -2867874.52161
  15513852.854   -38877211.709 7 -28046713.87021
 92  5 25 23 41 59.9780000  0  4G12G24G20G13
  14500039.6354  -38168323.93547 -29408140.09363
  14244332.955   -38334282.938 7 -29507052.49223
  18276038.776    -4121678.233 3  -2982735.28421
  15517144.721   -38859914.817 7 -28033235.81421
 92  5 25 23 42 29.9780000  0  5G12G16G24G20G13
  14489875.7994  -38221736.13847 -29449759.99063
  18871728.5804         -0.57753
  14228098.455   -38419597.001 7 -29573530.93523
  18247986.729    -4269098.269 3  -3097607.94421
  15520455.486   -38842512.768 7 -28019675.81321
 92  5 25 23 42 59.9780000  0  5G12G16G24G20G13
  14479832.5964  -38274513.15047 -29490884.93063
  18845907.3384    -135690.26143
  14211968.627   -38504353.308 7 -29639574.75923
  18219931.0884   -4416525.70543  -3212486.38461
  15523788.252   -38825000.261 7 -28006029.74221
 92  5 25 23 43 29.9780000  0  5G12G16G24G20G13
  14469912.0024  -38326648.78247 -29531510.09463
  18820057.5654    -271533.49143
  14195946.986   -38588549.259 7 -29705181.94623
  18191875.6824   -4563953.59843  -3327365.13761
  15527142.479   -38807373.470 7 -27992294.61121
 92  5 25 23 43 59.9780000  0  5G12G16G24G20G13
  14460113.0184  -38378142.70147 -29571635.22863
  18794176.408     -407529.100 3        -0.33131
  14180030.861   -38672183.191 7 -29770351.19223
  18163819.791    -4711380.612 3  -3442243.25321
  15530518.455   -38789634.384 7 -27978471.98521
 92  5 25 23 44 29.9780000  0  5G12G16G24G20G13
  14450432.3384  -38429010.63647 -29611272.57663
  18768269.229     -543673.524 3   -106086.41721
  14164219.776   -38755275.850 7 -29835098.67323
  18135763.776    -4858821.660 4  -3557132.29721
  15533912.236   -38771801.258 7 -27964576.08221
 92  5 25 23 44 59.9780000  0  5G12G16G24G20G13
  14440876.1114  -38479231.72347 -29650405.89263
  18742339.7054    -679931.70443   -212261.10761
  14148511.885   -38837822.286 7 -29899420.52123
  18107711.8464   -5006255.44244  -3672015.66961
  15537327.463   -38753855.446 7 -27950592.36421
 92  5 25 23 45 29.9780000  0  5G12G16G24G20G13
  14431439.2054  -38528825.63347 -29689050.50063
  18716385.744     -816324.131 3   -318540.48521
  14132901.963   -38919848.873 7 -29963337.29423
  18079651.8774   -5153700.32244  -3786907.68061
  15540759.307   -38735818.478 7 -27936537.63521
 92  5 25 23 45 59.9780000  0  5G12G16G24G20G13
  14422122.0574  -38577785.60447 -29727201.12763
  18690408.4324    -952845.66343   -424920.36661
  14117394.361   -39001344.644 7 -30026840.44723
  18051591.6434   -5301148.60744  -3901802.33761
  15544209.221   -38717686.314 7 -27922408.71521
 92  5 25 23 46 29.9780000  0  5G12G16G24G20G13
  14412927.2604  -38626102.61447 -29764850.74463
  18664400.174    -1089505.360 3   -531407.94821
  14101990.729   -39082294.764 7 -30089918.41923
  18023536.3074   -5448590.50744  -4016692.05861
  15547679.260   -38699451.384 7 -27908199.72121
 92  5 25 23 46 59.9780000  0  5G12G16G24G20G13
  14403855.0264  -38673774.19347 -29801997.43163
  18638364.3854   -1226313.14843   -638010.92261
  14086692.635   -39162686.138 7 -30152560.99823
  17995479.7684   -5596022.77544  -4131574.25061
  15551169.104   -38681113.093 7 -27893910.18621
 92  5 25 23 47 29.9780000  0  5G12G16G24G20G13
  14394904.6274  -38720812.18047 -29838650.41463
  18612300.2914   -1363279.26643   -744737.27861
  14071500.455   -39242519.163 7 -30214768.50323
  17967424.2054   -5743456.08944  -4246457.27661
  15554675.955   -38662685.592 7 -27879551.13321
 92  5 25 23 47 59.9780000  0  5G12G16G24G20G13
  14386077.1514  -38767205.89547 -29874801.36463
  18586213.3934   -1500377.42843   -851566.51261
  14056418.229   -39321776.412 7 -30276527.35523
  17939372.119    -5890878.595 4  -4361331.88621
  15558201.119   -38644160.202 7 -27865115.80121
 92  5 25 23 48 29.9780000  0  5G12G16G24G20G13
  14377367.0334  -38812971.04447 -29910462.52563
  18560100.385    -1637597.340 3   -958490.64921
  14041441.080   -39400484.131 7 -30337858.00323
  17911315.2764   -6038304.86044  -4476209.42561
  15561742.361   -38625553.974 7 -27850617.48021
 92  5 25 23 48 59.9780000  0  5G12G16G24G20G13
  14368778.1584  -38858108.73347 -29945634.75463
  18533966.526    -1774915.137 3  -1065491.02321
  14026564.705   -39478655.498 7 -30398770.71423
  17883261.635    -6185734.546 4  -4591089.59421
  15565297.119   -38606870.913 7 -27836059.29021
 92  5 25 23 49 29.9780000  0  5G12G16G24G20G13
  14360307.5654  -38902617.46047 -29980316.88263
  18507822.502    -1912327.266 3  -1172564.91121
  14011790.736   -39556296.903 7 -30459270.46723
  17855206.5654   -6333165.43644  -4705970.71161
  15568867.299   -38588110.534 7 -27821440.85221
 92  5 25 23 49 59.9780000  0  5G12G16G24G20G13
  14351961.7294  -38946482.41647 -30014497.37263
  18481653.291    -2049827.431 3  -1279707.43621
  13997118.526   -39633395.013 7 -30519346.87723
  17827153.7834   -6480581.48444  -4820840.26561
  15572454.018   -38569259.829 7 -27806752.02721
 92  5 25 23 50 29.9780000  0  5G12G16G24G20G13
  14343733.1584  -38989717.40847 -30048186.98263
  18455463.4794   -2187449.23843  -1386944.73661
  13982549.080   -39709960.700 7 -30579008.40723
  17799101.705    -6627995.164 4  -4935707.99321
  15576055.369   -38550334.249 7 -27792004.85221
 92  5 25 23 50 59.9780000  0  5G12G16G24G20G13
  14335626.8224  -39032316.26847 -30081380.90163
  18429251.393    -2325206.029 3  -1494287.24821
  13968086.268   -39785966.439 7 -30638233.61823
  17771052.572    -6775398.789 4  -5050567.84121
  15579672.815   -38531329.506 7 -27777196.00121
 92  5 25 23 51 29.9780000  0  5G12G16G24G20G13
  14327642.7524  -39074279.04447 -30114079.17363
  18403009.854    -2463102.558 3  -1601738.64721
  13953730.346   -39861400.363 7 -30697013.25423
  17743003.3224   -6922791.35644  -5165419.09061
  15583304.096   -38512246.996 7 -27762326.55221
 92  5 25 23 51 59.9780000  0  5G12G16G24G20G13
  14319777.8384  -39115608.11647 -30146283.65063
  18376744.783    -2601127.103 3  -1709289.77721
  13939482.783   -39936270.324 7 -30755353.44223
  17714958.1744   -7070173.71644  -5280262.39561
  15586949.236   -38493090.806 7 -27747399.68821
 92  5 25 23 52 29.9780000  0  5G12G16G24G20G13
  14312035.3384  -39156293.07647 -30177986.22163
  18350458.229    -2739261.049 3  -1816926.14621
  13925344.815   -40010569.051 7 -30813248.51123
  17686914.799    -7217534.265 4  -5395088.70921
  15590610.104   -38473852.146 7 -27732408.56021
 92  5 25 23 52 59.9780000  0  5G12G16G24G20G13
  14304417.0964  -39196324.06747 -30209179.19963
  18324156.4164   -2877472.96343  -1924623.31261
  13911313.955   -40084304.594 7 -30870704.73323
  17658880.2294   -7364861.32744  -5509888.90661
  15594288.205   -38454523.029 7 -27717346.95721
 92  5 25 23 53 29.9780000  0  5G12G16G24G20G13
  14296920.6274  -39235717.77347 -30239875.60163
  18297837.8304   -3015772.28243  -2032388.50361
  13897381.385   -40157519.959 7 -30927755.62223
  17630847.111    -7512170.181 5  -5624674.92521
  15597979.8614  -38435121.38647 -27702228.84361
 92  5 25 23 53 59.9780000  0  5G12G16G24G20G13
  14289544.4404  -39274482.47847 -30270081.86763
  18271504.0494   -3154168.84343  -2140229.56461
  13883546.611   -40230223.441 7 -30984407.64123
  17602817.322    -7659467.906 4  -5739452.27621
  15601684.244   -38415657.302 7 -27687062.06721
 92  5 25 23 54 29.9780000  0  5G12G16G24G20G13
  14282287.1354  -39312621.89247 -30299800.89663
  18245143.276    -3292674.970 3  -2248155.97021
  13869809.861   -40302407.131 7 -31040654.62723
  17574789.471    -7806756.395 5  -5854222.42221
  15605398.9794  -38396135.73847 -27671850.51561
 92  5 25 23 54 59.9780000  0  5G12G16G24G20G13
  14275149.1904  -39350134.03947 -30329031.14463
  18218770.5414   -3431286.95543  -2356164.87961
  13856172.565   -40374070.263 7 -31096495.98723
  17546764.8154   -7954031.73745  -5968982.33961
  15609125.330   -38376556.154 7 -27656593.74121
 92  5 25 23 55 29.9780000  0  5G12G16G24G20G13
  14268131.7914  -39387011.16047 -30357766.56963
  18192372.0654   -3570005.55243  -2464256.84261
  13842641.151   -40445179.614 7 -31151905.82623
  17518743.0264   -8101285.06345  -6083725.07861
  15612863.4944  -38356911.91347 -27641286.58861
 92  5 25 23 55 59.9780000  0  5G12G16G24G20G13
  14261232.7604  -39423257.48947 -30386010.46463
  18165954.9864   -3708826.83643  -2572428.82361
  13829218.924   -40515718.671 7 -31206871.28123
  17490726.166    -8248518.667 5  -6198452.44421
  15616612.526   -38337208.370 7 -27625933.23021
 92  5 25 23 56 29.9770000  0  5G12G16G24G20G13
  14254456.1694  -39458874.53847 -30413764.01363
  18139519.5054   -3847734.36143  -2680667.98561
  13815900.044   -40585699.693 7 -31261401.90623
  17462712.872    -8395728.452 5  -6313161.28121
  15620373.1304  -38317450.36247 -27610537.43361
 92  5 25 23 56 59.9770000  0  5G12G16G24G20G13
  14247800.0444  -39493855.12647 -30441021.62363
  18113072.0914   -3986717.31243  -2788965.94261
  13802690.536   -40655121.718 7 -31315496.94723
  17434705.872    -8542913.135 5  -6427850.52821
  15624144.528   -38297628.340 7 -27595091.75521
 92  5 25 23 57 29.9770000  0  5G12G16G24G20G13
  14241264.1224  -39528196.49847 -30467781.13162
  18086613.208    -4125755.977 3  -2897307.30021
  13789588.247   -40723972.064 8 -31369146.52423
  17406701.497    -8690064.604 5  -6542513.92621
  15627929.568   -38277742.327 7 -27579596.21121
 92  5 25 23 57 59.9770000  0  5G12G16G24G20G13
  14234851.9744  -39561897.04947 -30494041.30563
  18060145.982    -4264845.382 3  -3005688.19121
  13776592.536   -40792265.950 7 -31422362.49623
  17378706.7634   -8837179.12245  -6657148.52461
  15631725.443   -38257792.200 7 -27564050.71221
 92  5 25 23 58 29.9770000  0  5G12G16G24G20G13
  14228559.2004  -39594959.45447 -30519804.21763
  18033665.4504   -4403994.13043  -3114115.33861
  13763702.544   -40860008.446 7 -31475148.81423
  17350718.693    -8984257.704 5  -6771755.11921
  15635532.841   -38237781.995 7 -27548458.39721
 92  5 25 23 58 59.9770000  0  5G12G16G24G20G13
  14222392.9504  -39627372.07147 -30545060.80563
  18007178.224    -4543202.079 3  -3222588.61521
  13750921.599   -40927165.471 7 -31527478.92223
  17322740.4744   -9131286.71045  -6886323.10261
  15639354.364   -38217701.065 7 -27532810.97621
 92  5 25 23 59 29.9770000  0  5G12G16G24G20G13
  14216345.2244  -39659146.20747 -30569819.87563
  17980671.5054   -4682490.94244  -3331124.95661
  13738252.325   -40993748.153 7 -31579361.48923
  17294767.7554   -9278275.50245  -7000859.73761
  15643186.4974  -38197561.41847 -27517117.80161
 92  5 25 23 59 59.9770000  0  5G12G16G24G20G13
  14210421.5134  -39690274.77147 -30594075.89963
  17954148.286    -4821862.936 4  -3439726.09721
  13725690.903   -41059756.633 7 -31630796.62723
  17266806.3574   -9425214.92145  -7115357.91961
  15647032.286   -38177356.944 7 -27501374.11021
 92  5 26  0  0 29.9770000  0  5G12G16G24G20G13
  14204622.6304  -39720755.83647 -30617827.38063
  17927612.1224   -4961305.46044  -3548382.20961
  13713239.849   -41125182.553 7 -31681777.82323
  17238853.302    -9572100.727 5  -7229814.32321
  15650889.864   -38157086.449 7 -27485578.97121
 92  5 26  0  0 59.9770000  0  5G12G16G24G20G13
  14198944.2244  -39750589.55347 -30641074.43563
  17901066.2244   -5100806.82544  -3657084.16461
  13700898.403   -41190041.367 7 -31732317.12023
  17210913.739    -9718931.327 5  -7344227.71621
  15654758.8414  -38136751.27047 -27469733.42961
 92  5 26  0  1 29.9770000  0  5G12G16G24G20G13
  14193389.8254  -39779778.12447 -30663818.78363
  17874510.7164   -5240349.83244  -3765818.55861
  13688659.341   -41254361.132 7 -31782436.37623
  17182984.0684   -9865706.92745  -7458598.23061
  15658639.841   -38116354.093 7 -27453839.57521
 92  5 26  0  1 59.9770000  0  5G12G16G24G20G13
  14187959.0524  -39808312.97447 -30686053.73563
  17847953.818    -5379907.249 4  -3874564.19621
  13676524.278   -41318130.877 8 -31832127.04923
  17155064.8964  -10012416.79045  -7572917.55061
  15662535.099   -38095887.633 7 -27437891.74921
 92  5 26  0  2 29.9770000  0  5G12G16G24G20G13
  14182653.9824  -39836195.12947 -30707780.09563
  17821394.1774   -5519470.85945  -3983314.68261
  13664493.450   -41381351.899 8 -31881390.14323
  17127160.7084  -10159059.46845  -7687184.49461
  15666442.099   -38075353.720 7 -27421891.35721
 92  5 26  0  2 59.9770000  0  5G12G16G24G20G13
  14177469.8574  -39863435.89947 -30729006.67563
  17794831.9664   -5659057.11845  -4092082.82261
  13652565.341   -41444038.314 8 -31930236.66323
  17099266.013   -10305644.133 5  -7801406.22221
  15670360.3414  -38054764.59047 -27405847.94961
 92  5 26  0  3 29.9770000  0  5G12G16G24G20G13
  14172410.5994  -39890022.13647 -30749723.23163
  17768266.083    -5798662.084 5  -4200865.55621
  13640743.060   -41506162.042 7 -31978644.72923
  17071385.6854  -10452155.39245  -7915570.77161
  15674291.3254  -38034107.35947 -27389751.46661
 92  5 26  0  3 59.9770000  0  5G12G16G24G20G13
  14167475.9504  -39915954.70247 -30769930.43363
  17741694.083    -5938299.052 5  -4309673.22621
  13629031.466   -41567705.716 8 -32026600.80223
  17043519.4034  -10598592.08445  -8029677.19761
  15678234.4354  -38013384.07247 -27373603.51561
 92  5 26  0  4 29.9770000  0  5G12G16G24G20G13
  14162664.6074  -39941244.21547 -30789636.55663
  17715112.255    -6077987.192 5  -4418520.75821
  13617427.286   -41628682.686 8 -32074115.28823
  17015666.325   -10744962.343 5  -8143731.86221
  15682189.5754  -37992605.75547 -27357412.68261
 92  5 26  0  4 59.9770000  0  5G12G16G24G20G13
  14157972.8964  -39965896.22047 -30808845.92263
  17688519.239    -6217732.506 5  -4527412.88221
  13605930.896   -41689094.246 8 -32121189.19623
  16987825.9974  -10891269.37945  -8257737.26961
  15686152.2244  -37971778.27347 -27341183.54361
 92  5 26  0  5 29.9770000  0  5G12G16G24G20G13
  14153403.5604  -39989908.32347 -30827556.65763
  17661917.388    -6357525.955 5  -4636342.47821
  13594545.169   -41748930.065 8 -32167814.47623
  16959995.5754  -11037508.25745  -8371689.56461
  15690126.1934  -37950899.30247 -27324914.27861
 92  5 26  0  5 59.9770000  0  5G12G16G24G20G13
  14148956.0754  -40013277.59047 -30845766.48863
  17635310.1144   -6497347.08645  -4745293.66761
  13583266.396   -41808196.796 8 -32213996.31723
  16932182.528   -11183673.460 5  -8485584.43921
  15694108.9584  -37929967.00547 -27308603.46661
 92  5 26  0  6 29.9770000  0  5G12G16G24G20G13
  14144631.3024  -40036008.25347 -30863478.70263
  17608698.372    -6637186.543 4  -4854259.13821
  13572092.950   -41866915.537 8 -32259751.14723
  16904382.739   -11329766.676 5  -8599423.22521
  15698101.6144  -37908986.58147 -27292255.14261
 92  5 26  0  6 59.9770000  0  5G12G16G24G20G13
  14140429.9744  -40058082.46847 -30880679.39563
  17582090.3644   -6777011.68744  -4963213.44261
  13561027.294   -41925069.231 8 -32305065.68323
  16876598.052   -11475767.756 5  -8713190.20721
  15702106.318   -37887940.374 7 -27275855.55621
 92  5 26  0  7 29.9770000  0  5G12G16G24G20G13
  14136352.8254  -40079511.69547 -30897377.50363
  17555484.927    -6916829.376 4  -5072161.95221
  13550065.177   -41982667.112 8 -32349947.12123
  16848831.7004  -11621685.40345  -8826892.19461
  15706122.177   -37866839.939 7 -27259413.71521
 92  5 26  0  7 59.9770000  0  5G12G16G24G20G13
  14132398.5994  -40100288.48247 -30913567.21863
  17528883.466    -7056632.045 4  -5181098.75821
  13539212.450   -42039706.381 8 -32394393.27523
  16821081.974   -11767509.666 5  -8940521.40921
  15710150.1464  -37845678.06747 -27242924.00861
 92  5 26  0  8 29.9770000  0  5G12G16G24G20G13
  14128567.8724  -40120427.18247 -30929259.72263
  17502275.177    -7196445.340 4  -5290043.84621
  13528463.700   -42096187.614 8 -32438404.59623
  16793348.0444  -11913252.28845  -9054087.00661
  15714184.6694  -37824469.90347 -27226398.22261
 92  5 26  0  8 59.9770000  0  5G12G16G24G20G13
  14124854.3024  -40139936.04747 -30944461.43663
  17475665.7164   -7336275.45344  -5399002.06261
  13517825.318   -42152095.114 8 -32481968.85423
  16765630.0684  -12058918.94945  -9167593.39861
  15718227.5364  -37803223.65947 -27209842.75961
 92  5 26  0  9 29.9770000  0  5G12G16G24G20G13
  14121261.5834  -40158817.21447 -30959174.04663
  17449053.247    -7476125.528 4  -5507975.82721
  13507295.435   -42207427.821 8 -32525085.22223
  16737923.1934  -12204509.12845  -9281040.21361
  15722277.286   -37781941.837 6 -27193259.57621
 92  5 26  0  9 59.9770000  0  5G12G16G24G20G13
  14117787.8494  -40177073.91347 -30973400.06063
  17422435.833    -7615995.373 4  -5616965.01221
  13496872.903   -42262196.541 8 -32567762.11523
  16710233.5444  -12350022.77045  -9394427.38361
  15726333.9034  -37760628.13446 -27176651.54961
 92  5 26  0 10 29.9770000  0  5G12G16G24G20G13
  14114432.1144  -40194703.93847 -30987137.74763
  17395817.575    -7755876.007 5  -5725962.60521
  13486558.646   -42316399.356 8 -32609998.04523
  16682560.7244  -12495455.58045  -9507751.57661
  15730394.6144  -37739280.11146 -27160016.78661
 92  5 26  0 10 59.9770000  0  5G12G16G24G20G13
  14111195.7004  -40211711.09047 -31000390.08763
  17369197.5364   -7895760.68145  -5834963.35661
  13476349.818   -42370048.600 8 -32651802.62323
  16654898.474   -12640808.415 5  -9621013.43521
  15734463.2004  -37717901.68446 -27143358.33461
 92  5 26  0 11 29.9770000  0  5G12G16G24G20G13
  14108078.0684  -40228095.19747 -31013156.93763
  17342574.958    -8035657.077 5  -5943973.24421
  13466241.6144  -42423168.32248 -32693194.59063
  16627255.919   -12786078.101 5  -9734210.51021
  15738538.1774  -37696492.88846 -27126676.22561
 92  5 26  0 11 59.9770000  0  5G12G16G24G20G13
  14105078.2004  -40243860.78447 -31025441.82963
  17315952.911    -8175569.501 5  -6052995.60921
  13456232.005   -42475769.027 8 -32734182.12423
  16599625.9974  -12931266.36845  -9847344.15061
  15742617.7864  -37675058.20646 -27109973.92561
 92  5 26  0 12 29.9760000  0  5G12G16G24G20G13
  14102198.5944  -40258991.18947 -31037231.76963
  17289330.4384   -8315464.44945  -6162004.36261
  13446325.516   -42527830.057 8 -32774749.13423
  16572019.3754  -13076349.00845  -9960395.47361
  15746702.8834  -37653582.58946 -27093239.72261
 92  5 26  0 12 59.9760000  0  5G12G16G24G20G13
  14099440.3604  -40273484.17547 -31048525.02163
  17262713.2114   -8455336.11445  -6270994.98861
  13436521.195   -42579353.621 8 -32814897.34223
  16544429.3994  -13221329.51245 -10073367.21861
  15750799.961   -37632060.641 6 -27076469.42321
 92  5 26  0 13 29.9760000  0  5G12G16G24G20G13
  14096801.3834  -40287352.44047 -31059331.47563
  17236099.7034   -8595185.71645  -6379968.41461
  13426816.156   -42630351.665 8 -32854636.05823
  16516858.7974  -13366213.25445 -10186263.56361
  15754902.3524  -37610506.26246 -27059673.85761
 92  5 26  0 13 59.9760000  0  5G12G16G24G20G13
  14094281.5634  -40300593.05547 -31069648.85663
  17209496.3054   -8734988.29045  -6488905.19061
  13417213.258   -42680814.574 8 -32893957.77923
  16489307.9614  -13510994.27745 -10299079.86061
  15759008.4534  -37588916.79346 -27042850.94961
 92  5 26  0 14 29.9760000  0  5G12G16G24G20G13
  14091884.016   -40313198.328 7 -31079471.17023
  17182905.664    -8874728.690 5  -6597793.51121
  13407714.1804  -42730727.41048 -32932850.88163
  16461779.219   -13655661.905 5 -10411807.79321
  15763126.1414  -37567284.15046 -27025994.41061
 92  5 26  0 14 59.9760000  0  5G12G16G24G20G13
  14089606.672   -40325166.906 7 -31088797.35723
  17156323.758    -9014414.267 5  -6706639.12121
  13398322.1724  -42780083.74348 -32971310.33863
  16434271.0704  -13800211.55545 -10524443.81161
  15767249.9854  -37545606.94846 -27009103.13661
 92  5 26  0 15 29.9760000  0  5G12G16G24G20G13
  14087445.313   -40336517.283 7 -31097641.83023
  17129748.9694   -9154071.68645  -6815462.79361
  13389033.2504  -42828897.89648 -33009347.32163
  16406784.906   -13944658.605 5 -10636999.86421
  15771379.195   -37523903.869 6 -26992191.69821
 92  5 26  0 15 59.9760000  0  5G12G16G24G20G13
  14085408.1104  -40347229.56347 -31105989.08463
  17103182.4774   -9293676.32345  -6924245.34561
  13379853.2424  -42877138.84448 -33046937.65263
  16379320.1254  -14088980.13746 -10749458.11961
  15775518.875   -37502154.142 6 -26975243.92121
 92  5 26  0 16 29.9760000  0  5G12G16G24G20G13
  14083487.0474  -40357323.42447 -31113854.44963
  17076619.625    -9433257.435 5  -7033009.55221
  13370783.031   -42924804.827 8 -33084079.95723
  16351877.9224  -14233192.54946 -10861831.34261
  15779664.2974  -37480377.63446 -26958275.27361
 92  5 26  0 16 59.9760000  0  5G12G16G24G20G13
  14081684.305   -40366796.748 7 -31121236.28723
  17050064.360    -9572806.390 5  -7141748.72221
  13361822.867   -42971891.964 8 -33120771.21323
  16324456.711   -14377290.410 6 -10974115.30321
  15783812.508   -37458571.363 6 -26941283.42321
 92  5 26  0 17 29.9760000  0  5G12G16G24G20G13
  14080002.344   -40375643.562 7 -31128129.93723
  17023517.828    -9712312.072 5  -7250454.16721
  13352972.9774  -43018395.57448 -33157007.77463
  16297059.195   -14521264.257 6 -11086302.62821
  15787970.297   -37436728.543 6 -26924263.11221
 92  5 26  0 17 59.9760000  0  5G12G16G24G20G13
  14078436.4064  -40383862.17347 -31134534.07463
  16996979.2424   -9851767.87045  -7359120.75161
  13344236.6954  -43064307.05948 -33192782.93663
  16269685.8204  -14665109.54146 -11198389.78161
  15792134.9304  -37414847.77946 -26907213.22861
 92  5 26  0 18 29.9760000  0  5G12G16G24G20G13
  14076990.961   -40391463.038 7 -31140456.84723
  16970449.0554   -9991184.48745  -7467756.79261
  13335607.2584  -43109653.21348 -33228117.58163
  16242337.992   -14808833.417 6 -11310382.32621
  15796301.9224  -37392938.83246 -26890141.37561
 92  5 26  0 18 59.9760000  0  5G12G16G24G20G13
  14075661.594   -40398445.480 7 -31145897.74323
  16943931.086   -10130544.633 5  -7576348.84421
  13327082.4144  -43154453.72948 -33263027.05763
  16215010.9384  -14952431.25246 -11422276.66661
  15800477.9454  -37371000.86146 -26873046.92061
 92  5 26  0 19 29.9760000  0  5G12G16G24G20G13
  14074451.469   -40404807.762 7 -31150855.39023
  16917422.5004  -10269841.80045  -7684891.82461
  13318659.5554  -43198712.93248 -33297514.73363
  16187710.5084  -15095897.91346 -11534068.78561
  15804659.8754  -37349031.49846 -26855928.01361
 92  5 26  0 19 59.9760000  0  5G12G16G24G20G13
  14073358.500   -40410559.210 7 -31155337.06523
  16890928.055   -10409066.275 5  -7793378.15221
  13310337.4304  -43242446.17648 -33331592.56363
  16160432.9534  -15239239.32746 -11645763.31161
  15808842.8754  -37327039.62446 -26838791.55461
 92  5 26  0 20 29.9760000  0  5G12G16G24G20G13
  14072378.5784  -40415700.58747 -31159343.36263
  16864451.3054  -10548203.32845  -7901796.38361
  13302113.172   -43285666.588 8 -33365270.78523
  16133180.4454  -15382452.58146 -11757357.97461
  15813032.4854  -37305025.37346 -26821637.63561
 92  5 26  0 20 59.9760000  0  5G12G16G24G20G13
  14071515.594   -40420233.770 7 -31162875.73623
  16837991.117   -10687244.371 5  -8010139.80421
  13293986.8204  -43328371.78948 -33398547.54863
  16105952.7664  -15525536.12046 -11868851.56661
  15817226.570   -37282989.942 6 -26804467.24121
 92  5 26  0 21 29.9760000  0  6G12G16G24G20G 3G13
  14070770.289   -40424151.726 7 -31165928.71623
  16811550.836   -10826193.419 5  -8118411.52421
  13285960.586   -43370548.943 8 -33431412.84323
  16078750.7194  -15668479.74146 -11980236.14361
  18521277.7974         -0.96352
  15821424.8284  -37260925.40246 -26787274.14961
 92  5 26  0 21 59.9760000  0  6G12G16G24G20G 3G13
  14070142.297   -40427453.532 7 -31168501.58223
  16785128.242   -10965047.752 5  -8226609.46521
  13278036.8204  -43412185.59848 -33463856.97463
  16051576.8444  -15811278.84546 -12091508.10261
  18498054.4384    -122034.60842
  15825629.164   -37238829.871 6 -26770056.89721
 92  5 26  0 22 29.9760000  0  6G12G16G24G20G 3G13
  14069632.094   -40430137.290 7 -31170592.84423
  16758717.641   -11103824.485 5  -8334746.91321
  13270219.8834  -43453267.65448 -33495868.94263
  16024432.4304  -15953927.69646 -12202662.98161
  18474860.4384    -243912.37742
  15829840.5944  -37216701.16346 -26752813.80861
 92  5 26  0 22 59.9760000  0  5G12G16G24G20G13
  14069239.430   -40432206.584 7 -31172205.30623
  16732322.867   -11242539.699 5  -8442836.44921
  13262507.4224  -43493793.73848 -33527447.69163
  15997315.117   -16096426.341 6 -12313700.82221
  15834056.3524  -37194542.27546 -26735547.20061
 92  5 26  0 23 29.9760000  0  5G12G16G24G20G13
  14068962.813   -40433648.352 7 -31173328.78323
  16705938.9534  -11381184.88845  -8550871.41061
  13254904.5314  -43533745.75948 -33558579.11963
  15970231.4534  -16238757.68746 -12424608.29661
  15838282.555   -37172338.930 6 -26718245.95521
 92  5 26  0 23 59.9760000  0  6G12G16G24G20G 3G13
  14068807.992   -40434467.950 7 -31173967.45823
  16679568.2194  -11519758.95145  -8658850.95661
  13247409.2114  -43573135.85748 -33589272.68063
  15943177.3444  -16380923.54146 -12535386.81661
  18405468.7114         -0.37452
  15842514.899   -37150095.884 6 -26700913.76721
 92  5 26  0 24 29.9760000  0  6G12G16G24G20G 3G13
  14068767.938   -40434682.321 7
  16653210.9304  -11658272.95545  -8766783.70161
  13240013.0634  -43612002.83248 -33619558.61863
  15916152.7814  -16522937.01046 -12646046.60061
  18382393.539     -121243.367 2
  15846752.7194  -37127829.35346 -26683563.28661
 92  5 26  0 24 59.9760000  0  6G12G16G24G20G 3G13
  14068840.8054  -40434288.48047
  16626869.969   -11796696.986 5  -8874646.33721
  13232716.0944  -43650350.53148 -33649439.92863
  15889158.5474  -16664791.12046 -12756582.19261
  18359351.110     -242332.926 2
  15850996.8674  -37105534.78546 -26666190.95361
 92  5 26  0 25 29.9760000  0  6G12G16G24G20G 3G13
  14069027.203   -40433306.420 7 -31173062.47023
  16600545.274   -11935031.806 5  -8982439.46621
  13225516.3284  -43688186.89848 -33678922.79263
  15862193.3054  -16806502.25446 -12867006.38561
  18336332.016     -363287.512 2
  15855239.039   -37083231.734 6 -26648812.00721
 92  5 26  0 25 59.9760000  0  6G12G16G24G20G 3G13
  14069327.555   -40431731.171 7 -31171835.04123
  16574242.8994  -12073248.69545  -9090140.70461
  13218414.6024  -43725500.35748 -33707998.19963
  15835255.0784  -16948061.76646 -12977312.43461
  18313345.781     -484100.967 2
  15859485.6104  -37060914.26846 -26631421.83761
 92  5 26  0 26 29.9760000  0  6G12G16G24G20G 3G13
  14069742.289   -40429556.998 7 -31170140.91823
  16547967.570   -12211325.508 5  -9197732.81621
  13211417.5634  -43762271.22248 -33736650.80563
  15808347.0394  -17089459.98446 -13087492.80061
  18290380.2424    -604765.72842
  15863736.688   -37038575.149 6 -26614014.79821
 92  5 26  0 26 59.9760000  0  6G12G16G24G20G 3G13
  14070269.367   -40426782.467 7 -31167978.98522
  16521718.914   -12349260.803 5  -9305214.64121
  13204528.7974  -43798475.26048 -33764861.73263
  15781470.5164  -17230691.37246 -13197543.16061
  18267448.5314    -725278.72942        -0.34971
  15867993.0864  -37016211.99246 -26596589.02361
 92  5 26  0 27 29.9760000  0  6G12G16G24G20G 3G13
  14070911.141   -40423414.228 7 -31165354.42022
  16495492.688   -12487077.872 5  -9412604.34121
  13197745.7894  -43834116.62848 -33792634.21563
  15754626.2504  -17371758.51146 -13307465.53861
  18244545.328     -845644.896 2    -93791.74021
  15872249.9694  -36993830.65146 -26579149.09061
 92  5 26  0 27 59.9760000  0  6G12G16G24G20G 3G13
  14071663.961   -40419461.061 7 -31162274.06322
  16469286.914   -12624792.533 5  -9519914.26421
  13191065.7194  -43869220.51748 -33819987.87763
  15727813.0944  -17512666.13846 -13417263.61261
  18221662.9064    -965871.49942   -187474.42361
  15876512.2894  -36971438.11746 -26561700.42961
 92  5 26  0 28 29.9760000  0  6G12G16G24G20G 3G13
  14072527.930   -40414913.864 7 -31158730.81822
  16443099.688   -12762410.094 5  -9627148.52021
  13184489.0554  -43903783.02448 -33846919.69363
  15701031.5554  -17653401.50946 -13526927.46261
  18198814.7744   -1085947.99042   -281040.10361
  15880778.6174  -36949024.97446 -26544235.70661
 92  5 26  0 28 59.9750000  0  6G12G16G24G20G 3G13
  14073503.745   -40409791.852 7 -31154739.67022
  16416926.261   -12899943.318 5  -9734317.06021
  13178010.5584  -43937823.23748 -33873444.52163
  15674281.2614  -17793974.71646 -13636464.94361
  18175988.706    -1205887.593 2   -374499.17721
  15885043.2064  -36926609.29546 -26526768.99161
 92  5 26  0 29 29.9750000  0  6G12G16G24G20G 3G13
  14074588.589   -40404084.697 7 -31150292.56622
  16390773.675   -13037378.751 5  -9841409.39621
  13171633.7534  -43971339.70848 -33899561.24063
  15647562.8474  -17934380.99446 -13745872.35661
  18153194.7774   -1325686.33142   -467848.44261
  15889309.9174  -36904178.46646 -26509290.49161
 92  5 26  0 29 59.9750000  0  6G12G16G24G20G 3G13
  14075785.347   -40397801.266 7 -31145396.41822
  16364643.1124  -13174695.97745  -9948409.64561
  13165352.7064  -44004339.96248 -33925275.71463
  15620877.0114  -18074620.28246 -13855149.65761
  18130420.0194   -1445347.83542   -561090.83961
  15893582.167   -36881740.955 6 -26491806.79921
 92  5 26  0 30 29.9750000  0  6G12G16G24G20G 3G13
  14077090.8784  -40390932.91647 -31140044.48262
  16338537.886   -13311876.673 5 -10055303.49421
  13159175.8624  -44036804.35048 -33950572.62863
  15594225.1444  -18214679.49946 -13964286.63361
  18107676.6914   -1564861.20643   -654217.77961
  15897855.7774  -36859286.44246 -26474309.84961
 92  5 26  0 30 59.9750000  0  6G12G16G24G20G 3G13
  14078511.987   -40383477.694 7 -31134235.24922
  16312459.1984  -13448911.66145 -10162083.81061
  13153099.2374  -44068733.42448 -33975452.41763
  15567608.0664  -18354553.09746 -14073278.97661
  18084964.4024   -1684223.22843   -747226.77861
  15902131.2224  -36836812.25646 -26456797.57061
 92  5 26  0 31 29.9750000  0  6G12G16G24G20G 3G13
  14080041.503   -40375433.995 7 -31127967.46022
  16286411.4724  -13585799.52345 -10268749.47761
  13147124.7064  -44100133.33048 -33999919.86763
  15541027.8474  -18494234.63046 -14182121.64761
  18062279.5424   -1803429.91342   -840114.76761
  15906412.339   -36814315.066 6 -26439267.34521
 92  5 26  0 31 59.9750000  0  6G12G16G24G20G 3G13
  14081682.3474  -40366806.11547 -31121244.46163
  16260391.4724  -13722545.41145 -10375304.52661
  13141250.1364  -44131004.90848 -34023975.63763
  15514483.2454  -18633724.74646 -14290815.17761
  18039625.8944   -1922484.24542   -932884.00661
  15910698.105   -36791798.032 6 -26421721.67721
 92  5 26  0 32 29.9750000  0  6G12G16G24G20G 3G13
  14083434.019   -40357611.932 7 -31114080.19322
  16234391.0114  -13859168.01345 -10481763.49961
  13135473.6594  -44161360.95148 -34047629.69163
  15487972.1984  -18773036.51746 -14399369.72961
  18016992.308    -2041402.288 2  -1025547.03121
  15914983.3784  -36769276.75946 -26404172.70261
 92  5 26  0 32 59.9750000  0  6G12G16G24G20G 3G13
  14085291.112   -40347843.948 7 -31106468.80922
  16208418.8624  -13995648.98845 -10588112.12261
  13129795.6054  -44191196.19548 -34070877.92763
  15461499.2064  -18912158.27946 -14507776.24161
  17994392.6834   -2160174.67342  -1118096.59061
  15919274.2304  -36746742.31146 -26386613.44061
 92  5 26  0 33 29.9750000  0  5G12G16G24G20G13
  14087257.152   -40337511.375 7 -31098417.48322
  16182474.7144  -14131991.06245 -10694352.49961
  13124217.3314  -44220513.80248 -34093722.81163
  15435059.612   -19051095.037 6 -14616038.59821
  15923561.964   -36724203.041 6 -26369050.43421
 92  5 26  0 33 59.9750000  0  5G12G16G24G20G13
  14089333.011   -40326609.695 7 -31089922.70022
  16156559.589   -14268177.663 5 -10800471.72921
  13118737.7454  -44249308.04148 -34116159.87763
  15408655.9484  -19189838.00446 -14724149.94361
  15927850.1054  -36701652.72546 -26351478.84561
 92  5 26  0 34 29.9750000  0  6G12G16G24G20G 3G13
  14091514.128   -40315149.356 7 -31080992.60122
  16130670.1204  -14404216.65145 -10906475.93961
  13113353.4334  -44277599.82748 -34138205.41763
  15382291.8314  -19328393.18346 -14832114.95661
  17926748.6204    -118353.98842
  15932143.8004  -36679099.82746 -26333905.22861
 92  5 26  0 34 59.9750000  0  6G12G16G24G20G 3G13
  14093801.878   -40303126.746 7 -31071624.37222
  16104813.6524  -14540105.17345 -11012362.89761
  13108063.8394  -44305395.54648 -34159864.41363
  15355961.4254  -19466752.05546 -14939926.99461
  17904250.245     -236566.029 2        -0.15231
  15936435.706   -36656539.812 6 -26316326.06721
 92  5 26  0 35 29.9750000  0  6G12G16G24G20G 3G13
  14096195.222   -40290546.707 7 -31061821.78622
  16078983.1834  -14675840.60645 -11118130.57361
  13102868.0274  -44332701.42248 -34181141.71163
  15329670.3554  -19604915.61746 -15047586.84461
  17881779.7924    -354639.47842    -92005.09861
  15940732.5344  -36633975.65146 -26298743.66861
 92  5 26  0 35 59.9750000  0  6G12G16G24G20G 3G13
  14098696.683   -40277397.847 7 -31051575.95822
  16053185.7454  -14811405.75945 -11223765.56361
  13097766.6124  -44359510.31547 -34202031.75063
  15303418.6284  -19742867.77146 -15155081.95661
  17859344.073     -472561.173 2   -183891.73321
  15945027.659   -36611394.159 6 -26281147.76821
 92  5 26  0 36 29.9750000  0  6G12G16G24G20G 3G13
  14101304.987   -40263691.085 7 -31040895.40322
  16027419.5664  -14946810.91245 -11329275.88661
  13092760.1914  -44385819.57748 -34222532.46463
  15277207.6984  -19880615.05646 -15262417.42561
  17836930.847     -590340.319 2   -275667.30621
  15949326.6914  -36588804.80846 -26263545.73861
 92  5 26  0 36 59.9750000  0  6G12G16G24G20G 3G13
  14104020.058   -40249424.823 7 -31029778.87022
  16001683.3554  -15082045.36945 -11434653.19961
  13087851.1834  -44411616.26047 -34242633.76663
  15251035.120   -20018151.168 6 -15369588.34621
  17814544.2224    -707972.91442   -367328.71361
  15953627.9724  -36566203.96746 -26245934.76361
 92  5 26  0 37 29.9750000  0  6G12G16G24G20G 3G13
  14106840.206   -40234609.951 7 -31018234.85522
  15975982.7924  -15217112.24045 -11539899.93061
  13083039.3314  -44436900.83947 -34262336.02863
  15224901.2144  -20155482.54846 -15476599.73961
  17792185.0344    -825468.30142   -458883.22361
  15957927.542   -36543601.110 6 -26228322.22021
 92  5 26  0 37 59.9750000  0  6G12G16G24G20G 3G13
  14109762.855   -40219247.227 7 -31006263.94122
  15950312.105   -15352009.816 6 -11645014.75021
  13078326.6204  -44461664.88447 -34281632.67763
  15198807.0814  -20292605.13146 -15583448.42661
  17769851.8864    -942825.08742   -550329.70361
  15962234.784   -36520995.314 6 -26210707.39921
 92  5 26  0 38 29.9750000  0  6G12G16G24G20G 3G13
  14112792.917   -40203328.720 7 -30993859.95822
  15924674.659   -15486722.885 6 -11749985.79821
  13073714.3004  -44485904.99247 -34300521.06263
  15172756.4644  -20429506.49746 -15690124.75061
  17747548.8084   -1060033.73942   -641660.80161
  15966533.5894  -36498376.84346 -26193082.69061
 92  5 26  0 38 59.9750000  0  6G12G16G24G20G 3G13
  14115928.839   -40186854.776 7 -30981023.15922
  15899078.6444  -15621240.51046 -11854804.55161
  13069198.5194  -44509636.08547 -34319012.81463
  15146747.011   -20566182.739 6 -15796625.64621
  17725271.605    -1177092.313 2   -732874.96821
  15970840.6834  -36475743.68046 -26175446.52561
 92  5 26  0 39 29.9750000  0  6G12G16G24G20G 3G13
  14119168.464   -40169821.277 7 -30967750.34422
  15873519.3944  -15755549.40946 -11959460.66761
  13064778.6204  -44532862.04447 -34337110.95863
  15120783.2224  -20702624.76246 -15902944.04161
  17703024.972    -1293994.703 2   -823967.41721
  15975153.1524  -36453089.92346 -26157794.31461
 92  5 26  0 39 59.9750000  0  6G12G16G24G20G 3G13
  14122517.956   -40152225.216 7 -30954039.16722
  15848002.167   -15889643.540 6 -12063949.42421
  13060455.5114  -44555579.89447 -34354813.17263
  15094865.8084  -20838825.12646 -16009074.13461
  17680812.956    -1410735.988 2   -914934.38921
  15979468.066   -36430410.575 6 -26140122.16321
 92  5 26  0 40 29.9750000  0  6G12G16G24G20G 3G13
  14125971.073   -40134072.523 7 -30939894.25722
  15822524.761   -16023534.642 6 -12168279.99121
  13056226.6914  -44577803.10747 -34372129.95663
  15068992.1054  -20974784.95346 -16115016.80361
  17658628.816    -1527320.051 2  -1005778.82421
  15983788.339   -36407709.880 6 -26122433.38321
 92  5 26  0 40 59.9750000  0  6G12G16G24G20G 3G13
  14129528.175   -40115377.928 7 -30925327.07922
  15797081.831   -16157233.571 6 -12272460.81121
  13052092.2064  -44599527.13247 -34389057.76163
  15043165.0814  -21110514.02146 -16220779.66261
  17636468.1284   -1643759.35342  -1096510.47161
  15988111.4564  -36385000.70046 -26104737.98861
 92  5 26  0 41 29.9750000  0  6G12G16G24G20G 3G13
  14133189.636   -40096140.698 7 -30910337.06922
  15771675.948   -16290740.415 6 -12376491.94821
  13048055.7454  -44620744.22547 -34405590.55463
  15017380.3474  -21246006.99346 -16326358.54961
  17614338.605    -1760051.406 2  -1187127.40621
  15992432.902   -36362280.202 6 -26087033.77021
 92  5 26  0 41 59.9750000  0  6G12G16G24G20G 3G13
  14136953.581   -40076357.545 7 -30894921.66722
  15746308.355   -16424052.992 6 -12480371.71721
  13044115.6204  -44641449.58947 -34421724.60563
  14991643.6284  -21381255.55746 -16431746.97861
  17592237.7694   -1876190.65642  -1277625.26361
  15996763.058   -36339543.312 6 -26069316.79121
 92  5 26  0 42 29.9750000  0  6G12G16G24G20G 3G13
  14140823.636   -40056024.564 7 -30879077.83222
  15720979.5344  -16557156.74246 -12584088.75861
  13040271.0664  -44661650.89047 -34437465.87863
  14965955.1524  -21516251.04546 -16536938.20561
  17570169.5734   -1992171.32643  -1367999.51761
  16001089.628   -36316783.848 6 -26051582.19321
 92  5 26  0 42 59.9750000  0  6G12G16G24G20G 3G13
  14144797.800   -40035136.744 7 -30862801.65522
  15695694.8474  -16690024.21546 -12687621.69661
  13036521.5114  -44681352.76847 -34452817.99063
  14940317.2534  -21650983.96546 -16641924.82761
  17548125.9414   -2107986.03742  -1458244.48961
  16005429.2534  -36293994.44846 -26033824.29461
 92  5 26  0 43 29.9750000  0  6G12G16G24G20G 3G13
  14148876.769   -40013702.364 7 -30846099.58722
  15670453.386   -16822662.391 6 -12790975.96021
  13032863.9484  -44700578.76747 -34467799.28863
  14914728.1204  -21785457.53346 -16746709.36161
  17526124.1364   -2223641.25843  -1548365.21861
  16009767.3474  -36271181.46346 -26016048.01761
 92  5 26  0 43 59.9750000  0  6G12G16G24G20G 3G13
  14153057.980   -39991735.669 7 -30828982.73222
  15645255.683   -16955078.788 6 -12894157.41221
  13029297.0194  -44719320.25147 -34482403.04363
  14889184.8864  -21919680.49146 -16851298.62161
  17504133.8704   -2339148.87042  -1638370.86761
  16014110.1674  -36248356.80546 -25998262.64961
 92  5 26  0 44 29.9750000  0  6G12G16G24G20G 3G13
  14157341.4094  -39969228.04647
  15620104.620   -17087253.604 6 -12997150.61221
  13025827.5664  -44737552.46147 -34496609.96163
  14863692.6054  -22053639.75346 -16955682.39961
  17482189.0584   -2454498.28243  -1728253.29661
  16018458.589   -36225510.321 6
 92  5 26  0 44 59.9750000  0  6G12G16G24G20G 3G13
  14161725.753   -39946187.574 7 -30793490.81922
  15594995.394   -17219202.710 6 -13099967.94021
  13022457.7374  -44755259.45947 -34510407.62264
  14838250.2304  -22187338.73446 -17059863.36361
  17460267.7924   -2569695.53743  -1818017.12361
  16022808.2064  -36202647.61046 -25962645.22461
 92  5 26  0 45 29.9740000  0  6G12G16G24G20G 3G13
  14166209.459   -39922619.013 7 -30775125.75722
  15569929.162   -17350930.162 6 -13202612.55721
  13019193.4834  -44772415.10547 -34523775.66064
  14812859.2254  -22320771.94546 -17163837.23761
  17438375.9904   -2684738.31543  -1907660.57761
  16027166.217   -36179771.039 6 -25944819.39121
 92  5 26  0 45 59.9740000  0  6G12G16G24G20G 3G13
  14170800.506   -39898496.848 7 -30756329.31122
  15544910.608   -17482399.897 6 -13305056.35821
  13016038.3114  -44788995.48847 -34536695.44364
  14787523.029   -22453919.312 6 -17267588.37121
  17416515.944    -2799608.253 3  -1997169.39021
  16031526.0614  -36156853.14146 -25926961.34061
 92  5 26  0 46 29.9740000  0  6G12G16G24G20G 3G13
  14175491.647   -39873846.776 7 -30737121.51122
  15519938.709   -17613617.698 6 -13407303.84321
  13012980.0064  -44805068.77047 -34549220.07964
  14762237.7334  -22586796.24546 -17371128.78761
  17394684.0694   -2914324.54343  -2086558.43961
  16035891.2644  -36133917.19046 -25909089.21861
 92  5 26  0 46 59.9740000  0  6G12G16G24G20G 3G13
  14180282.3894  -39848668.96647 -30717502.49562
  15495020.029   -17744575.505 6 -13509348.74021
  13010014.7094  -44820648.51447 -34561360.14364
  14737004.819   -22719397.953 6 -17474454.75021
  17372884.420    -3028884.877 3  -2175825.98221
  16040256.4834  -36110960.78646 -25891201.19461
 92  5 26  0 47 29.9740000  0  6G12G16G24G20G 3G13
  14185171.733   -39822973.655 7 -30697480.22522
  15470149.350   -17875262.620 6 -13611182.70021
  13007138.6624  -44835764.40547 -34573138.76264
  14711822.467   -22851729.780 7 -17577570.41922
  17351114.670    -3143297.277 3  -2264978.26621
  16044631.5694  -36087992.17146 -25873303.64561
 92  5 26  0 47 59.9740000  0  6G12G16G24G20G 3G13
  14190158.201   -39796768.944 7 -30677061.02422
  15445331.1004  -18005682.32646 -13712808.30161
  13004344.1704  -44850450.78047 -34584582.69664
  14686690.459   -22983794.685 7 -17680478.10422
  17329368.1004   -3257567.53743  -2354019.81761
  16049003.076   -36065017.174 6 -25855401.12221
 92  5 26  0 48 29.9740000  0  6G12G16G24G20G 3G13
  14195241.006   -39770062.380 7 -30656250.76122
  15420559.9124  -18135851.46046 -13814238.65061
  13001631.9284  -44864701.57747 -34595687.21664
  14661610.053   -23115594.996 7 -17783179.61222
  17307651.0764   -3371701.26643  -2442954.97961
  16053374.5844  -36042040.81246 -25837497.54461
 92  5 26  0 48 59.9740000  0  6G12G16G24G20G 3G13
  14200419.8734  -39742849.88147 -30635046.27162
  15395838.7094  -18265762.33746 -13915467.75861
  12999010.8114  -44878478.67047 -34606422.61664
  14636580.967   -23247121.395 7 -17885667.68422
  17285956.373    -3485692.045 3  -2531778.72821
  16057745.717   -36019057.161 6 -25819588.28221
 92  5 26  0 49 29.9740000  0  6G12G16G24G20G 3G13
  14205692.889   -39715136.244 7 -30613451.27822
  15371164.272   -18395426.196 6 -14016504.38821
  12996478.0924  -44891782.23747 -34616789.03464
  14611605.014   -23378373.597 7 -17987942.09522
  17264291.584    -3599542.164 3  -2620492.93821
  16062120.6234  -35996068.39446 -25801675.04661
 92  5 26  0 49 59.9740000  0  6G12G16G24G20G 3G13
  14211059.412   -39686936.868 7 -30591477.79122
  15346535.131   -18524857.562 6 -14117359.85221
  12994037.3114  -44904611.04247 -34626785.50764
  14586678.529   -23509361.854 7 -18090010.82322
  17242651.404    -3713265.183 3  -2709108.09721
  16066495.162   -35973086.948 6 -25783767.51621
 92  5 26  0 50 29.9740000  0  6G12G16G24G20G 3G13
  14216520.5294  -39658239.13347 -30569115.97062
  15321953.9754  -18654032.05346 -14218015.16361
  12991690.5064  -44916944.15547 -34636395.73064
  14561805.803   -23640068.342 7 -18191859.99622
  17221037.2014   -3826845.85443  -2797612.31861
  16070867.842   -35950097.638 6 -25765853.84121
 92  5 26  0 50 59.9740000  0  6G12G16G24G20G 3G13
  14222074.819   -39629050.029 7 -30546371.26622
  15297419.8894  -18782959.03946 -14318477.60561
  12989436.1624  -44928794.95847 -34645630.12364
  14536987.311   -23770495.061 7 -18293491.16222
  17199450.3264   -3940288.90543  -2886009.33461
  16075245.5294  -35927105.18846 -25747937.74761
 92  5 26  0 51 29.9740000  0  6G12G16G24G20G 3G13
  14227723.490   -39599367.049 7 -30523241.72622
  15272931.2794  -18911644.71146 -14418752.01261
  12987270.4594  -44940173.88648 -34654496.83064
  14512222.147   -23900634.521 7 -18394898.48822
  17177890.8504   -4053589.84743  -2974295.62361
  16079622.569   -35904104.811 5 -25730015.47021
 92  5 26  0 51 59.9740000  0  6G12G16G24G20G 3G13
  14233464.3194  -39569200.98947 -30499735.76162
  15248490.522   -19040078.656 6 -14518830.26221
  12985191.1234  -44951097.32948 -34663008.60464
  14487510.733   -24030492.018 7 -18496086.09822
  17156352.873    -4166756.783 3  -3062477.51021
  16083997.279   -35881104.634 5 -25712093.36521
 92  5 26  0 52 29.9740000  0  6G12G16G24G20G 3G13
  14239297.1864  -39538548.89647 -30475851.07062
  15224098.4364  -19168259.52246 -14618711.31361
  12983199.6864  -44961567.65647 -34671167.30264
  14462854.3194  -24160059.35947 -18597047.61762
  17134843.2724   -4279784.67043  -3150551.04561
  16088375.4834  -35858098.88645 -25694166.90461
 92  5 26  0 52 59.9740000  0  6G12G16G24G20G 3G13
  14245221.225   -39507418.198 7 -30451593.43722
  15199755.6864  -19296192.40546 -14718399.13361
  12981293.3974  -44971582.46247 -34678971.05364
  14438253.076   -24289338.513 7 -18697784.57122
  17113360.7484   -4392678.47043  -3238520.10861
  16092755.467   -35835092.353 5 -25676239.83221
 92  5 26  0 53 29.9740000  0  6G12G16G24G20G 3G13
  14251236.865   -39475805.662 7 -30426960.34222
  15175463.420   -19423852.810 6 -14817874.63621
  12979472.6474  -44981146.41447 -34686423.49264
  14413707.506   -24418321.181 7 -18798290.49722
  17091905.9834   -4505432.70043  -3326380.39261
  16097131.209   -35812079.425 5 -25658307.77821
 92  5 26  0 53 59.9740000  0  6G12G16G24G20G 3G13
  14257343.998   -39443710.510 7 -30401951.18122
  15151228.0694  -19551212.06346 -14917115.48061
  12977741.3814  -44990249.03747 -34693516.45164
  14389221.7174  -24547001.33947 -18898560.69162
  17070477.9674   -4618044.00143  -3414129.35261
  16101514.2644  -35789056.40345 -25640367.88361
 92  5 26  0 54 29.9740000  0  6G12G16G24G20G 3G13
  14263540.639   -39411145.332 7 -30376575.77222
  15127045.1474  -19678287.06646 -15016134.82661
  12976094.6314  -44998901.40347 -34700258.55964
  14364790.8974  -24675386.32947 -18998600.88862
  17049070.6944   -4730522.63143  -3501774.85461
  16105895.584   -35766033.363 5 -25622427.94521
 92  5 26  0 54 59.9740000  0  6G12G16G24G20G 3G13
  14269829.529   -39378101.623 7 -30350827.48222
  15102918.2254  -19805063.68546 -15114921.67461
  12974534.9984  -45007100.47347 -34706647.45064
  14340419.240   -24803462.097 7 -19098400.14222
  17027697.100    -4842857.868 3  -3589308.67621
  16110280.311   -35742999.626 5 -25604479.70821
 92  5 26  0 55 29.9740000  0  6G12G16G24G20G 3G13
  14276207.045   -39344588.148 7 -30324713.13722
  15078847.8814  -19931547.70746 -15213480.52161
  12973057.6084  -45014859.41247 -34712693.38764
  14316105.7174  -24931232.30947 -19197961.29062
  17006344.4754   -4955056.22243  -3676735.82561
  16114663.561   -35719960.651 5 -25586527.34421
 92  5 26  0 55 59.9740000  0  6G12G16G24G20G 3G13
  14282675.326   -39310596.184 7 -30298225.94122
  15054837.5374  -20057730.63146 -15311804.73961
  12971667.2794  -45022161.30847 -34718383.17964
  14291851.928   -25058682.592 7 -19297273.15022
  16985021.350    -5067106.444 3  -3764047.54521
  16119050.959   -35696905.184 5 -25568562.12021
 92  5 26  0 56 29.9740000  0  6G12G16G24G20G 3G13
  14289232.920   -39276132.573 7 -30271371.22522
  15030880.4284  -20183630.40846 -15409908.33461
  12970363.2724  -45029019.21147 -34723727.00764
  14267658.8654  -25185814.46447 -19396336.89662
  16963727.529    -5179012.917 3  -3851247.24521
  16123443.1864  -35673837.57545 -25550587.47461
 92  5 26  0 56 59.9740000  0  6G12G16G24G20G 3G13
  14295881.225   -39241190.809 7 -30244143.92022
  15006980.8424  -20309228.00846 -15507776.46361
  12969146.8424  -45035414.12947 -34728710.06264
  14243528.0924  -25312615.86447 -19495143.13362
  16942460.654    -5290766.603 3  -3938327.87421
  16127834.045   -35650748.350 5 -25532595.96821
 92  5 26  0 57 29.9740000  0  6G12G16G24G20G 3G13
  14302619.764   -39205786.458 7 -30216556.16622
  14983137.5144  -20434518.12746 -15605405.00761
  12968015.5294  -45041356.10747 -34733340.18164
  14219461.2334  -25439097.09047 -19593699.88262
  16921220.7254   -5402380.73543  -4025299.82061
  16132230.9674  -35627650.04245 -25514597.37561
 92  5 26  0 57 59.9740000  0  6G12G16G24G20G 3G13
  14309447.709   -39169905.260 7 -30188596.84422
  14959357.8194  -20559473.97246 -15702773.07461
  12966974.0844  -45046832.21347 -34737607.28064
  14195457.983   -25565238.698 7 -19691991.99922
  16900012.2954   -5513838.60443  -4112149.94161
  16136630.725   -35604525.448 5 -25496578.30221
 92  5 26  0 58 29.9740000  0  6G12G16G24G20G 3G13
  14316367.9284  -39133543.16347 -30160262.79662
  14935647.2794  -20684080.55946 -15799869.00161
  12966024.3264  -45051824.69447 -34741497.52964
  14171519.412   -25691031.143 7 -19790012.03622
  16878831.7644   -5625133.55943  -4198873.12061
  16141038.639   -35581367.651 5 -25478533.37321
 92  5 26  0 58 59.9740000  0  6G12G16G24G20G 3G13
  14323372.7644  -39096730.18247 -30131577.40962
  14912000.4044  -20808356.54346 -15896707.30961
  12965159.9444  -45056359.19747 -34745030.91664
  14147642.358   -25816498.965 7 -19887779.11922
  16857679.373    -5736293.482 3  -4285491.12521
  16145445.998   -35558204.415 5 -25460484.17621
 92  5 26  0 59 29.9740000  0  6G12G16G24G20G 3G13
  14330462.803   -39059469.683 6 -30102543.30421
  14888410.5454  -20932307.84646 -15993292.62661
  12964383.2794  -45060444.80647 -34748214.51364
  14123829.998   -25941639.827 7 -19985291.43222
  16836551.4984   -5847319.15443  -4372004.46661
  16149854.951   -35535035.924 5 -25442430.90521
 92  5 26  0 59 59.9740000  0  6G12G16G24G20G 3G13
  14337640.498   -39021750.002 6 -30073151.39422
  14864884.069   -21055929.047 6 -16089620.71821
  12963694.0224  -45064068.10647 -34751037.87464
  14100083.029   -26066436.944 7 -20082535.89222
  16815452.9444   -5958196.38743  -4458402.18061
  16154267.279   -35511847.879 5 -25424362.37521
 92  5 26  1  0 29.9740000  0  6G12G16G24G20G 3G13
  14344900.826   -38983590.038 6 -30043416.41022
  14841421.608   -21179237.935 6 -16185705.45021
  12963088.1944  -45067250.40347 -34753517.59664
  14076397.061   -26190903.664 7 -20179522.90422
  16794378.3654   -6068941.68343  -4544697.05261
  16158681.7564  -35488656.04145 -25406290.88261
 92  5 26  1  0 59.9740000  0  6G12G16G24G20G 3G13
  14352247.967   -38944989.529 6 -30013338.14722
  14818017.6004  -21302233.46146 -16281546.01061
  12962562.4204  -45070014.61847 -34755671.54064
  14052774.951   -26315034.207 7 -20276247.95922
  16773331.170    -6179552.237 4  -4630886.95421
  16163095.967   -35465456.735 5 -25388213.62221
 92  5 26  1  1 29.9740000  0  6G12G16G24G20G 3G13
  14359675.2014  -38905959.48646 -29982925.17961
  14794671.889   -21424909.019 6 -16377137.25521
  12962113.6704  -45072371.58347 -34757508.14564
  14029216.912   -26438833.967 7 -20372715.26422
  16752307.975    -6290036.537 4  -4716978.47421
  16167509.061   -35442258.645 5 -25370137.27321
 92  5 26  1  1 59.9740000  0  6G12G16G24G20G 3G13
  14367187.2794  -38866486.20846 -29952166.84162
  14771393.404   -21547233.059 6 -16472454.57621
  12961744.6704  -45074305.50647 -34759015.10664
  14005726.100   -26562283.449 7 -20468909.62622
  16731307.756    -6400378.325 4  -4802958.96421
  16171925.897   -35419044.795 5 -25352048.64821
 92  5 26  1  2 29.9740000  0  6G12G16G24G20G 3G13
  14374781.209   -38826576.383 6 -29921068.32822
  14748184.162   -21669202.904 6 -16567495.90321
  12961457.3894  -45075819.97447 -34760195.22464
  13982300.959   -26685383.611 7 -20564831.79222
  16710336.3974   -6510581.83744  -4888831.72261
  16176347.1004  -35395818.78845 -25333950.57661
 92  5 26  1  2 59.9730000  0  6G12G16G24G20G 3G13
  14382459.025   -38786226.704 6 -29889627.07321
  14725045.5254  -21790804.17346 -16662250.03261
  12961251.8454  -45076898.70047 -34761035.80264
  13958943.298   -26808120.661 7 -20660471.00522
  16689395.5094   -6620636.03043  -4974588.10961
  16180771.306   -35372574.083 5 -25315837.89021
 92  5 26  1  3 29.9730000  0  6G12G16G24G20G 3G13
  14390220.2514  -38745440.96746 -29857846.03661
  14701971.5174  -21912042.11046 -16756721.04161
  12961133.4074  -45077524.68647 -34761523.59264
  13935655.759   -26930503.537 7 -20755834.24922
  16668478.5254   -6730552.57843  -5060237.22261
  16185196.2044  -35349312.05445 -25297711.72061
 92  5 26  1  3 59.9730000  0  6G12G16G24G20G 3G13
  14398063.1114  -38704228.92646 -29825732.82261
  14678965.7044  -22032936.30746 -16850924.20261
  12961099.5174  -45077707.25947
  13912435.071   -27052531.038 7 -20850920.57622
  16647585.9314   -6840333.50844  -5145780.69061
  16189623.821   -35326039.405 5 -25279577.26221
 92  5 26  1  4 29.9730000  0  6G12G16G24G20G 3G13
  14405985.8684  -38662591.88346 -29793288.43161
  14656028.8764  -22153493.18646 -16944864.51761
  12961144.8614  -45077452.09847
  13889281.478   -27174199.041 7 -20945726.77522
  16626722.0404   -6949977.45244  -5231217.41061
  16194055.798   -35302754.015 5 -25261432.91321
 92  5 26  1  4 59.9730000  0  6G12G16G24G20G 3G13
  14413991.6504  -38620523.05246 -29760507.58861
  14633152.6114  -22273702.91646 -17038534.32761
  12961280.4784  -45076756.50147 -34760925.03964
  13866198.939   -27295494.930 7 -21040243.02122
  16605883.032    -7059475.129 4  -5316540.13621
  16198493.486   -35279445.948 5 -25243270.87121
 92  5 26  1  5 29.9730000  0  6G12G16G24G20G 3G13
  14422075.3214  -38578041.88346 -29727405.44161
  14610336.454   -22393586.519 6 -17131950.01621
  12961487.3294  -45075655.15447 -34760066.86264
  13843186.923   -27416432.858 7 -21134480.32822
  16585075.0954   -7168843.60044  -5401762.17061
  16202928.8764  -35256131.99245 -25225104.23961
 92  5 26  1  5 59.9730000  0  6G12G16G24G20G 3G13
  14430236.5324  -38535159.26446 -29693990.48161
  14587586.7434  -22513150.39846 -17225116.56661
  12961767.7904  -45074183.47947 -34758920.11664
  13820239.384   -27537017.950 7 -21228442.70822
  16564284.790    -7278090.922 4  -5486889.80821
  16207365.712   -35232819.958 5 -25206939.12721
 92  5 26  1  6 29.9730000  0  6G12G16G24G20G 3G13
  14438472.3144  -38491877.62446 -29660264.59061
  14564900.4394  -22632371.97546 -17318016.38961
  12962118.5714  -45072344.25047 -34757486.96264
  13797360.134   -27657246.842 7 -21322127.52822
  16543515.814    -7387216.821 4  -5571922.78821
  16211801.4074  -35209508.91345 -25188774.75461
 92  5 26  1  6 59.9730000  0  6G12G16G24G20G 3G13
  14446786.1574  -38448190.56646 -29626222.78861
  14542279.626   -22751229.004 6 -17410632.14721
  12962541.9074  -45070117.71547 -34755752.01064
  13774553.282   -27777107.382 7 -21415525.31322
  16522774.923    -7496212.554 4  -5656854.39521
  16216237.939   -35186188.745 5 -25170603.32121
 92  5 26  1  7 29.9730000  0  6G12G16G24G20G 3G13
  14455176.2514  -38404099.14946 -29591865.90161
  14519735.501   -22869712.533 6 -17502956.86621
  12963041.0254  -45067498.05847 -34753710.73364
  13751814.079   -27896595.304 7 -21508632.75222
  16502058.7364   -7605076.74844  -5741683.50261
  16220678.0954  -35162857.89645 -25152423.55761
 92  5 26  1  7 59.9730000  0  6G12G16G24G20G 3G13
  14463643.3534  -38359605.68846 -29557195.73661
  14497263.220   -22987802.683 6 -17594975.06521
  12963618.1574  -45064460.35247 -34751343.70164
  13729146.657   -28015707.101 7 -21601447.11022
  16481367.900    -7713808.892 4  -5826409.69621
  16225119.5874  -35139515.38045 -25134234.69561
 92  5 26  1  8 29.9730000  0  6G12G16G24G20G 3G13
  14472184.8064  -38314717.72746 -29522218.17361
  14474862.189   -23105501.217 6 -17686688.11322
  12964280.6504  -45060982.07647 -34748633.37064
  13706553.548   -28134444.857 7 -21693970.00422
  16460703.0254   -7822414.12544  -5911037.04161
  16229565.3684  -35116165.21545 -25116039.89261
 92  5 26  1  8 59.9730000  0  6G12G16G24G20G 3G13
  14480802.8924  -38269429.39746 -29486928.63261
  14452542.962   -23222812.020 6 -17778099.03022
  12965028.7044  -45057054.70447 -34745573.09264
  13684030.962   -28252796.840 7 -21786192.29622
  16440059.845    -7930883.702 4  -5995558.65021
  16234008.087   -35092799.040 5 -25097832.62121
 92  5 26  1  9 29.9730000  0  6G12G16G24G20G 3G13
  14489496.2754  -38223744.52046 -29451330.09161
  14430292.743   -23339736.242 6 -17869208.72722
  12965857.0644  -45052695.20047 -34742176.09164
  13661582.431   -28370761.156 7 -21878112.51222
  16419442.0644   -8039218.89244  -6079975.57861
  16238460.720   -35069417.187 5 -25079613.15321
 92  5 26  1  9 59.9730000  0  6G12G16G24G20G 3G13
  14498262.2904  -38177674.48846 -29415431.42661
  14408111.282   -23456285.471 6 -17960026.21522
  12966766.3454  -45047920.45847 -34738455.52564
  13639208.853   -28488343.345 7 -21969734.96723
  16398851.1424   -8147428.24044  -6164294.43161
  16242913.165   -35046027.299 5 -25061387.39121
 92  5 26  1 10 29.9730000  0  6G12G16G24G20G 3G13
  14507103.9394  -38131222.36246 -29379235.02561
  14386005.126   -23572466.677 6 -18050556.93422
  12967747.7284  -45042760.51447 -34734434.79764
  13616906.5874  -28605541.08347 -22061057.84762
  16378284.173    -8255512.795 4  -6248516.02321
  16247365.0564  -35022629.74045 -25043155.69261
 92  5 26  1 10 59.9730000  0  6G12G16G24G20G 3G13
  14516016.5174  -38084383.25746 -29342737.09461
  14363968.626   -23688268.750 6 -18140792.22722
  12968802.6264  -45037220.68047 -34730118.06164
  13594678.501   -28722343.836 7 -22152072.95522
  16357742.3844   -8363464.54444  -6332634.18361
  16251817.9624  -34999215.80345 -25024911.20861
 92  5 26  1 11 29.9730000  0  6G12G16G24G20G 3G13
  14525002.1424  -38037163.54946 -29305942.59061
  14342000.775   -23803691.445 6 -18230731.89622
  12969929.1114  -45031297.90347 -34725502.92164
  13572528.923   -28838752.443 7 -22242780.93223
  16337223.6964   -8471287.22344  -6416651.73361
  16256278.118   -34975788.856 5 -25006656.56921
 92  5 26  1 11 59.9730000  0  6G12G16G24G20G 3G13
  14534059.4464  -37989566.55746 -29268854.08261
  14320113.790   -23918730.880 6 -18320372.91322
  12971131.4314  -45024983.62047 -34720582.70764
  13550450.525   -28954764.146 7 -22333179.62923
  16316730.446    -8578981.532 4  -6500569.25521
  16260739.9544  -34952348.70845 -24988391.68561
 92  5 26  1 12 29.9730000  0  6G12G16G24G20G 3G13
  14543189.8614  -37941582.73846 -29231464.16861
  14298298.634   -24033361.646 6 -18409695.50222
  12972412.1034  -45018255.25147 -34715339.83964
  13528453.134   -29070363.990 7 -22423257.40023
  16296261.931    -8686535.420 4  -6584377.40321
  16265203.345   -34928882.747 5 -24970106.67021
 92  5 26  1 12 59.9730000  0  6G12G16G24G20G 3G13
  14552393.8924  -37893219.91546 -29193778.92061
  14276565.056   -24147567.759 6 -18498687.19222
  12973772.1964  -45011105.95047 -34709768.96564
  13506534.212   -29185553.812 7 -22513015.67223
  16275821.7984   -8793954.03844  -6668080.13761
  16269672.329   -34905395.054 5 -24951804.67421
 92  5 26  1 13 29.9730000  0  6G12G16G24G20G 3G13
  14561667.1894  -37844487.76446 -29155805.87661
  14254916.2984  -24261346.30146 -18587345.71062
  12975208.9544  -45003551.95247 -34703882.73764
  13484689.798   -29300337.371 7 -22602457.36923
  16255404.4394   -8901244.20644  -6751682.78061
  16274146.478   -34881891.967 5 -24933490.67621
 92  5 26  1 13 59.9730000  0  6G12G16G24G20G 3G13
  14571009.7754  -37795387.05246 -29117545.64961
  14233347.7674  -24374675.92246 -18675654.42362
  12976721.2204  -44995607.79847 -34697692.50064
  13462926.126   -29414709.890 7 -22691578.78323
  16235017.1034   -9008403.96745  -6835183.77861
  16278622.079   -34858371.337 5 -24915163.04021
 92  5 26  1 14 29.9730000  0  6G12G16G24G20G 3G13
  14580422.5324  -37745932.81446 -29079009.95261
  14211862.329   -24487574.393 6 -18763627.17322
  12978302.7284  -44987294.44947 -34691214.57464
  13441239.431   -29528680.534 7 -22780387.04423
  16214643.1034   -9115446.01044  -6918593.05561
  16283098.806   -34834844.642 5 -24896830.67221
 92  5 26  1 14 59.9730000  0  6G12G16G24G20G 3G13
  14589899.8294  -37696129.83846 -29040202.50961
  14190459.478   -24600062.566 6 -18851280.21222
  12979951.3294  -44978631.58347 -34684464.30164
  13419625.634   -29642248.478 7 -22868881.51223
  16194296.493    -9222372.100 4  -7001911.99621
  16287574.4704  -34811313.11645 -24878494.48461
 92  5 26  1 15 29.9730000  0  6G12G16G24G20G 3G13
  14599445.2044  -37645965.51346 -29001113.49861
  14169126.5014  -24712160.15446 -18938628.90262
  12981670.0484  -44969602.06647 -34677428.32264
  13398095.368   -29755395.446 7 -22957047.94423
  16173979.0714   -9329166.90244  -7085128.63561
  16292060.2824  -34787760.47845 -24860141.89461
 92  5 26  1 15 59.9730000  0  6G12G16G24G20G 3G13
  14609059.3924  -37595442.36846 -28961744.88861
  14147866.0564  -24823873.94346 -19025678.53062
  12983460.8614  -44960191.76147 -34670095.63264
  13376646.587   -29868118.352 7 -23044883.94223
  16153678.517    -9435830.471 4  -7168243.00821
  16296545.204   -34764186.390 5 -24841772.57421
 92  5 26  1 16 29.9730000  0  6G12G16G24G20G 3G13
  14618739.8844  -37544575.16546 -28922108.17961
  14126679.4234  -24935234.34946 -19112452.79762
  12985322.1264  -44950407.93547 -34662471.89064
  13355272.993   -29980426.352 7 -23132396.63723
  16133402.1894   -9542374.75044  -7251264.45261
  16301033.8144  -34740602.13445 -24823395.29261
 92  5 26  1 16 59.9730000  0  6G12G16G24G20G 3G13
  14628485.493   -37493356.734 6 -28882197.79321
  14105556.9624  -25046213.72746 -19198930.16462
  12987257.5254  -44940237.29047 -34654546.73164
  13333984.407   -30092306.223 7 -23219575.72523
  16113150.462    -9648789.852 4  -7334185.22321
  16305525.681   -34716996.891 5 -24805001.72021
 92  5 26  1 17 29.9730000  0  6G12G16G24G20G 3G13
  14638295.946   -37441797.436 6 -28842021.79521
  14084518.2124  -25156788.73946 -19285092.43162
  12989266.7514  -44929680.29347 -34646320.51864
  13312774.009   -30203762.662 7 -23306424.86523
  16092924.1424   -9755083.49844  -7417011.37961
  16310019.439   -34693377.856 5 -24786597.38421
 92  5 26  1 17 59.9730000  0  6G12G16G24G20G 3G13
  14648175.7204  -37389887.96346 -28801572.92361
  14063563.0324  -25266905.73746 -19370897.80662
  12991349.3374  -44918737.38747 -34637793.59264
  13291647.728   -30314780.613 7 -23392932.33023
  16072722.6034   -9861243.73944  -7499733.58161
  16314518.032   -34669731.858 5 -24768171.98721
 92  5 26  1 18 29.9730000  0  6G12G16G24G20G 3G13
  14658117.1574  -37337641.11246 -28760861.16861
  14042692.626   -25376561.193 6 -19456343.53922
  12993500.5644  -44907433.67447 -34628985.52564
  13270605.525   -30425367.098 7 -23479103.58123
  16052544.9394   -9967280.18144  -7582359.32161
  16319021.3214  -34646068.09145 -24749732.79061
 92  5 26  1 18 59.9730000  0  7G12G16G24G20G 3G25G13
  14668123.7514  -37285064.91146 -28719892.77561
  14021921.5484  -25485731.98146 -19541411.61362
  12995719.040   -44895773.161 7 -34619899.43424
  13249640.962   -30535524.549 7 -23564940.52523
  16032388.814   -10073198.892 4  -7664893.30021
  17042480.4234         -0.75954
  16323527.5174  -34622391.90345 -24731283.89361
 92  5 26  1 19 29.9730000  0  7G12G16G24G20G 3G25G13
  14678188.4784  -37232163.92446 -28678671.30461
  14001236.0014  -25594422.53546 -19626105.47862
  12998005.6264  -44883761.55447 -34610539.76264
  13228761.345   -30645251.734 7 -23650442.20023
  16012258.017   -10179001.017 4  -7747336.41921
  17023292.2364    -100845.86243
  16328036.9544  -34598703.79145 -24712825.70861
 92  5 26  1 19 59.9730000  0  7G12G16G24G20G 3G25G13
  14688320.0094  -37178928.87446 -28637189.52361
  13980643.5324  -25702636.64746 -19710428.08462
  13000358.7594  -44871393.44947 -34600902.30164
  13207967.618   -30754533.275 7 -23735596.61423
  15992144.9784  -10284674.70144  -7829679.48261
  17004193.9154    -201202.84843
  16332547.446   -34574990.621 5 -24694348.02921
 92  5 26  1 20 29.9730000  0  7G12G16G24G20G 3G25G13
  14698511.9464  -37125366.46746 -28595452.66361
  13960141.3064  -25810394.08446 -19794394.83962
  13002780.8214  -44858666.10147 -34590984.90964
  13187254.462   -30863370.429 7 -23820404.75823
  15972057.0954  -10390224.06444  -7911925.67761
  16985187.7204    -301078.90643        -0.09971
  16337061.0254  -34551255.99345 -24675853.61961
 92  5 26  1 20 59.9720000  0  7G12G16G24G20G 3G25G13
  14708766.1374  -37071482.16646 -28553464.97361
  13939720.2154  -25917704.28046 -19878013.09862
  13005272.2154  -44845574.77247 -34580783.89864
  13166628.731   -30971757.640 7 -23904862.29523
  15951998.660   -10495646.566 4  -7994073.00621
  16966274.067     -400447.979 3    -77430.50921
  16341583.332   -34527501.078 5
 92  5 26  1 21 29.9720000  0  7G12G16G24G20G 3G25G13
  14719079.231   -37017281.305 6 -28511230.62021
  13919375.8014  -26024593.42346 -19961303.26562
  13007831.6064  -44832127.52647 -34570305.54564
  13146089.488   -31079705.121 7 -23988977.18623
  15931960.285   -10600955.050 4  -8076131.47321
  16947465.098     -499307.978 3   -154464.24521
  16346110.660   -34503729.107 5        -0.34031
 92  5 26  1 21 59.9720000  0  7G12G16G24G20G 3G25G13
  14729455.1064  -36962764.64646 -28468750.18561
  13899121.4344  -26131053.85946 -20044259.37262
  13010459.3954  -44818313.77147 -34559541.60364
  13125631.785   -31187202.484 7 -24072741.33923
  15911943.184   -10706142.596 4  -8158095.73421
  16928751.668     -597634.885 3   -231082.57221
  16350636.1454  -34479936.37945     18539.36261
 92  5 26  1 22 29.9720000  0  7G12G16G24G20G 3G25G13
  14739891.9814  -36907913.31546 -28426008.96661
  13878949.3954  -26237054.13446 -20126856.91662
  13013162.5354  -44804107.19347 -34548471.56264
  13105265.2704  -31294224.98047 -24156135.46363
  15891958.684   -10811186.997 4  -8239948.43721
  16910149.9184    -695390.47143   -307255.70261
  16355175.6064  -34456100.75545     37112.44361
 92  5 26  1 22 59.9720000  0  7G12G16G24G20G 3G25G13
  14750390.1844  -36852747.39946 -28383022.61661
  13858859.6374  -26342608.14946 -20209106.73862
  13015936.5354  -44789536.48047 -34537117.78264
  13084989.129   -31400787.083 7 -24239170.84323
  15871990.7384  -10916106.13244  -8321703.50161
  16891653.3954    -792589.03843   -382994.77961
  16359715.887   -34432238.705 5     55706.16021
 92  5 26  1 23 29.9720000  0  7G12G16G24G20G 3G25G13
  14760945.7934  -36797281.20346 -28339802.28761
  13838862.2074  -26447712.65646
  13018774.9104  -44774613.63147 -34525489.60764
  13064795.379   -31506897.268 7 -24321854.07923
  15852045.332   -11020911.368 5
  16873257.2384    -889257.30343   -458320.68261
  16364258.0124  -34408360.59845     74312.34761
 92  5 26  1 23 59.9720000  0  7G12G16G24G20G 3G25G13
  14771557.778   -36741504.973 6 -28296340.37021
  13818949.0904  -26552353.41346 -20372544.48362
  13021684.0044  -44759331.01547 -34513581.09564
  13044692.153   -31612540.120 7 -24404173.15123
  15832122.1134  -11125590.22445  -8484937.69361
  16854967.8404    -985385.26843   -533225.58161
  16368805.770   -34384453.383 5     92941.19921
 92  5 26  1 24 29.9720000  0  7G12G16G24G20G 3G25G13
  14782230.653   -36685427.202 6 -28252643.49221
  13799122.2854  -26656531.51146 -20453722.16462
  13024656.762   -44743705.303 7 -34501405.23824
  13024678.746   -31717718.377 7 -24486130.20723
  15812230.9654  -11230148.40245  -8566411.54161
  16836776.1924   -1080993.37343   -607725.33561
  16373358.668   -34360521.851 4    111588.96821
 92  5 26  1 24 59.9720000  0  7G12G16G24G20G 3G25G13
  14792960.2154  -36629041.43446 -28208706.61761
  13779392.2624  -26760228.39246 -20534524.85862
  13027697.5514  -44727727.69447 -34488955.17364
  13004752.035   -31822420.190 7
  15792361.020   -11334576.514 5
  16818676.5824   -1176096.97143   -681832.03661
  16377922.0124  -34336556.33744    130263.31561
 92  5 26  1 25 29.9720000  0  7G12G16G24G20G 3G25G13
  14803748.0984  -36572356.64746 -28164536.72561
  13759748.6844  -26863446.48646 -20614954.47762
  13030805.6924  -44711397.26647 -34476230.18164
  12984918.582   -31926648.454 7 -24648932.80823
  15772512.442   -11438881.121 5  -8729059.72221
  16800671.9964   -1270702.67143   -755550.77961
  16382488.7624  -34312561.96444    148960.02561
 92  5 26  1 25 59.9720000  0  7G12G16G24G20G 3G25G13
  14814592.5824  -36515368.52346 -28120130.48461
  13740197.3014  -26966182.66146 -20695008.57862
  13033978.6534  -44694720.40247 -34463235.24064
  12965179.012   -32030392.932 7 -24729772.63123
  15752685.215   -11543054.668 5  -8810233.88921
  16782770.598    -1364794.352 3   -828868.92221
  16387058.754   -34288530.090 4    167686.04221
 92  5 26  1 26 29.9720000  0  7G12G16G24G20G 3G25G13
  14825492.2854  -36458084.60846 -28075493.74461
  13720744.7624  -27068429.43646 -20774681.33062
  13037217.3954  -44677699.50147 -34449972.21964
  12945525.824   -32133655.756 7 -24810237.15123
  15732887.348   -11647102.113 5  -8891309.73921
  16764960.3094   -1458375.54943   -901789.36961
  16391641.340   -34264464.960 4
 92  5 26  1 26 59.9720000  0  7G12G16G24G20G 3G25G13
  14836444.3404  -36400532.11346 -28030647.72261
  13701373.1294  -27170214.12146 -20853994.00862
  13040517.2854  -44660358.42947 -34436459.71664
  12925964.371   -32236458.512 7 -24890343.16523
  15713100.9184  -11751047.66945  -8972306.18461
  16747245.8794   -1551455.80943   -974319.42961
  16396220.0434  -34240390.32044        -0.25871
 92  5 26  1 27 29.9720000  0  7G12G16G24G20G 3G25G13
  14847449.395   -36342700.622 6 -27985584.30421
  13682092.4964  -27271521.77146 -20932934.97262
  13043877.9494  -44642695.37947 -34422696.31964
  12906494.426   -32338784.872 7 -24970077.96823
  15693344.7464  -11854878.19145  -9053212.99661
  16729638.770    -1643989.186 3  -1046423.30721
  16400809.824   -34216292.103 5     18777.47121
 92  5 26  1 27 59.9720000  0  7G12G16G24G20G 3G25G13
  14858506.4814  -36284589.25346 -27940302.79861
  13662912.1994  -27372336.70946 -21011491.99862
  13047301.5434  -44624705.14447 -34408677.97664
  12887110.7704  -32440628.56547 -25049436.66663
  15673613.137   -11958590.452 5  -9134027.67621
  16712139.176    -1735964.122 3  -1118092.06921
  16405400.3564  -34192165.71544     37577.17361
